[[{"header":{"parameterUnit":"m.s-1","parameterCategory":1,"la1":31.0,"la2":29.5877,"lo1":-88.7671,"lo2":-86.6584,"dy":0.0162,"dx":0.0185,"nx":115,"ny":88,"refTime":"2023-03-18T12:00:00:Z","depth":0,"parameterNumber":2,"parameterNumberName":"U-component_of_WINDS"},"data":[0.0,0.0,0.0,0.0,0.0,0.0,0.0,0.0,0.0,0.0,0.0,0.0,0.0,0.0,0.0,0.0,0.0,0.0,0.0,0.0,0.0,0.0,0.0,0.0,0.0,0.0,0.0,0.0,0.0,0.0,0.0,0.0,0.0,0.0,0.0,0.0,0.0,0.0,0.0,0.0,0.0,0.0,0.0,0.0,0.0,0.0,0.0,0.0,0.0,0.0,0.0,0.0,0.0,0.0,0.0,0.0,0.0,0.0,0.0,0.0,0.0,0.0,0.0,0.0,0.0,0.0,0.0,0.0,0.0,0.0,0.0,0.0,0.0,0.0,0.0,0.0,0.0,0.0,0.0,0.0,0.0,0.0,0.0,0.0,0.0,0.0,0.0,0.0,0.0,0.0,0.0,0.0,0.0,0.0,0.0,0.0,0.0,0.0,0.0,0.0,0.0,0.0,0.0,0.0,0.0,0.0,0.0,0.0,0.0,0.0,0.0,0.0,0.0,0.0,0.0,0.0,0.0,0.0,0.0,0.0,0.0,0.0,0.0,0.0,0.0,0.0,0.0,0.0,0.0,0.0,0.0,0.0,0.0,0.0,0.0,0.0,0.0,0.0,0.0,0.0,0.0,0.0,0.0,0.0,0.0,0.0,0.0,0.0,0.0,0.0,0.0,0.0,0.0,0.0,0.0,0.0,0.0,0.0,0.0,0.0,0.0,0.0,0.0,0.0,0.0,0.0,0.0,0.0,0.0,0.0,0.0,0.0,0.0,0.0,0.0,0.0,0.0,0.0,0.0,0.0,0.0,0.0,0.0,0.0,0.0,0.0,0.0,0.0,0.0,0.0,0.0,0.0,0.0,0.0,0.0,0.0,0.0,0.0,0.0,0.0,0.0,0.0,0.0,0.0,0.0,0.0,0.0,0.0,0.0,0.0,0.0,0.0,0.0,0.0,0.0,0.0,0.0,0.0,0.0,0.0,0.0,0.0,0.0,0.0,0.0,0.0,0.0,0.0,0.0,0.0,0.0,0.0,0.0,0.0,0.0,0.0,0.0,0.0,0.0,0.0,0.0,0.0,0.0,0.0,0.0,0.0,0.0,0.0,0.0,0.0,0.0,0.0,0.0,0.0,0.0,0.0,0.0,0.0,0.0,0.0,0.0,0.0,0.0,0.0,0.0,0.0,0.0,0.0,0.0,0.0,0.0,0.0,0.0,0.0,0.0,0.0,0.0,0.0,0.0,0.0,0.0,0.0,0.0,0.0,0.0,0.0,0.0,0.0,0.0,0.0,0.0,0.0,0.0,0.0,0.0,0.0,0.0,0.0,0.0,0.0,0.0,0.0,0.0,0.0,0.0,0.0,0.0,0.0,0.0,0.0,0.0,0.0,0.0,0.0,0.0,0.0,0.0,0.0,0.0,0.0,0.0,0.0,0.0,0.0,0.0,0.0,0.0,0.0,0.0,0.0,0.0,0.0,0.0,0.0,0.0,0.0,0.0,0.0,0.0,0.0,0.0,0.0,0.0,0.0,0.0,0.0,0.0,0.0,0.0,0.0,0.0,0.0,0.0,0.0,0.0,0.0,0.0,0.0,0.0,0.0,0.0,0.0,0.0,0.0,0.0,0.0,0.0,0.0,0.0,0.0,0.0,0.0,0.0,0.0,0.0,0.0,0.0,0.0,0.0,0.0,0.0,0.0,0.0,0.0,0.0,0.0,0.0,0.0,0.0,0.0,0.0,0.0,0.0,0.0,0.0,0.0,0.0,0.0,0.0,0.0,0.0,0.0,0.0,0.0,0.0,0.0,0.0,0.0,0.0,0.0,0.0,0.0,0.0,0.0,0.0,0.0,0.0,0.0,0.0,0.0,0.0,0.0,0.0,0.0,0.0,0.0,0.0,0.0,0.0,0.0,0.0,0.0,0.0,0.0,0.0,0.0,0.0,0.0,0.0,0.0,0.0,0.0,0.0,0.0,0.0,0.0,0.0,0.0,0.0,0.0,0.0,0.0,0.0,0.0,0.0,0.0,0.0,0.0,0.0,0.0,0.0,0.0,0.0,0.0,0.0,0.0,0.0,0.0,0.0,0.0,0.0,0.0,0.0,0.0,0.0,0.0,0.0,0.0,0.0,0.0,0.0,0.0,0.0,0.0,0.0,0.0,0.0,0.0,0.0,0.0,0.0,0.0,0.0,0.0,0.0,0.0,0.0,0.0,0.0,0.0,0.0,0.0,0.0,0.0,0.0,0.0,0.0,0.0,0.0,0.0,0.0,0.0,0.0,0.0,0.0,0.0,0.0,0.0,0.0,0.0,0.0,0.0,0.0,0.0,0.0,0.0,0.0,0.0,0.0,0.0,0.0,0.0,0.0,0.0,0.0,0.0,0.0,0.0,0.0,0.0,0.0,0.0,0.0,0.0,0.0,0.0,0.0,0.0,0.0,0.0,0.0,0.0,0.0,0.0,0.0,0.0,0.0,0.0,0.0,0.0,0.0,0.0,0.0,0.0,0.0,0.0,0.0,0.0,0.0,0.0,0.0,0.0,0.0,0.0,0.0,0.0,0.0,0.0,0.0,0.0,0.0,0.0,0.0,0.0,0.0,0.0,0.0,0.0,0.0,0.0,0.0,0.0,0.0,0.0,0.0,0.0,0.0,0.0,0.0,0.0,0.0,0.0,0.0,0.0,0.0,0.0,0.0,0.0,0.0,0.0,0.0,0.0,0.0,0.0,0.0,0.0,0.0,0.0,0.0,0.0,0.0,0.0,0.0,0.0,0.0,0.0,0.0,0.0,0.0,0.0,0.0,0.0,0.0,0.0,0.0,0.0,0.0,0.0,0.0,0.0,0.0,0.0,0.0,0.0,0.0,0.0,0.0,0.0,0.0,0.0,0.0,0.0,0.0,0.0,0.0,0.0,0.0,0.0,0.0,0.0,0.0,0.0,0.0,0.0,0.0,0.0,0.0,0.0,0.0,0.0,0.0,0.0,0.0,0.0,0.0,0.0,0.0,0.0,0.0,0.0,0.0,0.0,0.0,0.0,0.0,0.0,0.0,0.0,0.0,0.0,0.0,0.0,0.0,0.0,0.0,0.0,0.0,0.0,0.0,0.0,0.0,0.0,0.0,0.0,0.0,0.0,0.0,0.0,0.0,0.0,0.0,0.0,0.0,0.0,0.0,0.0,0.0,0.0,0.0,0.0,0.0,0.0,0.0,0.0,0.0,0.0,0.0,0.0,0.0,0.0,0.0,0.0,0.0,0.0,0.0,0.0,0.0,0.0,0.0,0.0,0.0,0.0,0.0,0.0,0.0,0.0,0.0,0.0,0.0,0.0,0.0,0.0,0.0,0.0,0.0,0.0,0.0,0.0,0.0,0.0,0.0,0.0,0.0,0.0,0.0,0.0,0.0,0.0,0.0,0.0,0.0,0.0,0.0,0.0,0.0,0.0,0.0,0.0,0.0,0.0,0.0,0.0,0.0,0.0,0.0,0.0,0.0,0.0,0.0,0.0,0.0,0.0,0.0,0.0,0.0,0.0,0.0,0.0,0.0,0.0,0.0,0.0,0.0,0.0,0.0,0.0,0.0,0.0,0.0,0.0,0.0,0.0,0.0,0.0,0.0,0.0,0.0,0.0,0.0,0.0,0.0,0.0,0.0,0.0,0.0,0.0,0.0,0.0,0.0,0.0,0.0,0.0,0.0,0.0,0.0,0.0,0.0,0.0,0.0,0.0,0.0,0.0,0.0,0.0,0.0,0.0,0.0,0.0,0.0,0.0,0.0,0.0,0.0,0.0,0.0,0.0,0.0,0.0,0.0,0.0,0.0,0.0,0.0,0.0,0.0,0.0,0.0,0.0,0.0,0.0,0.0,0.0,0.0,0.0,0.0,0.0,0.0,0.0,0.0,0.0,0.0,0.0,0.0,0.0,0.0,0.0,0.0,0.0,0.0,0.0,0.0,0.0,0.0,0.0,0.0,0.0,0.0,0.0,0.0,0.0,0.0,0.0,0.0,0.0,0.0,0.0,0.0,0.0,0.0,0.0,0.0,0.0,0.0,0.0,0.0,0.0,0.0,0.0,0.0,0.0,0.0,0.0,0.0,0.0,0.0,0.0,0.0,0.0,0.0,0.0,0.0,0.0,0.0,0.0,0.0,0.0,0.0,0.0,0.0,0.0,0.0,0.0,0.0,0.0,0.0,0.0,0.0,0.0,0.0,0.0,0.0,0.0,0.0,0.0,0.0,0.0,0.0,0.0,0.0,0.0,0.0,0.0,0.0,0.0,0.0,0.0,3.4024,0.0,0.0,0.0,0.0,0.0,0.0,0.0,0.0,0.0,0.0,0.0,0.0,0.0,0.0,0.0,0.0,0.0,0.0,0.0,0.0,0.0,0.0,0.0,0.0,0.0,0.0,0.0,0.0,0.0,0.0,0.0,0.0,0.0,0.0,0.0,0.0,0.0,0.0,0.0,0.0,0.0,0.0,0.0,0.0,0.0,0.0,0.0,0.0,0.0,0.0,0.0,0.0,0.0,0.0,0.0,0.0,0.0,0.0,0.0,0.0,0.0,0.0,0.0,0.0,0.0,0.0,0.0,0.0,0.0,0.0,0.0,0.0,0.0,0.0,0.0,0.0,0.0,0.0,0.0,0.0,0.0,0.0,0.0,0.0,0.0,0.0,0.0,0.0,0.0,0.0,0.0,0.0,0.0,0.0,0.0,0.0,0.0,0.0,0.0,0.0,0.0,0.0,0.0,0.0,0.0,0.0,0.0,0.0,0.0,0.0,3.5025,3.5693,3.2034,3.1853,3.5699,0.0,0.0,0.0,0.0,0.0,0.0,0.0,0.0,0.0,0.0,0.0,0.0,0.0,0.0,0.0,0.0,0.0,0.0,0.0,0.0,0.0,0.0,0.0,0.0,0.0,0.0,0.0,0.0,0.0,0.0,0.0,0.0,0.0,0.0,0.0,0.0,0.0,0.0,0.0,0.0,0.0,0.0,0.0,0.0,0.0,0.0,0.0,0.0,0.0,0.0,0.0,0.0,0.0,0.0,0.0,0.0,0.0,0.0,0.0,0.0,0.0,0.0,0.0,0.0,0.0,0.0,0.0,0.0,0.0,0.0,0.0,0.0,0.0,0.0,0.0,0.0,0.0,0.0,0.0,0.0,0.0,0.0,0.0,0.0,0.0,0.0,0.0,0.0,0.0,0.0,0.0,0.0,0.0,0.0,0.0,0.0,0.0,0.0,0.0,0.0,0.0,0.0,0.0,0.0,0.0,0.0,0.0,0.0,0.0,0.0,0.0,0.0,3.3412,3.3518,3.7346,0.0,0.0,0.0,0.0,0.0,0.0,0.0,0.0,0.0,0.0,0.0,0.0,0.0,0.0,0.0,0.0,0.0,0.0,0.0,0.0,0.0,0.0,0.0,0.0,0.0,0.0,0.0,0.0,0.0,0.0,0.0,0.0,0.0,0.0,0.0,0.0,0.0,0.0,0.0,0.0,0.0,0.0,0.0,0.0,0.0,0.0,0.0,0.0,0.0,0.0,0.0,0.0,0.0,0.0,0.0,0.0,0.0,0.0,0.0,0.0,0.0,0.0,0.0,0.0,0.0,0.0,0.0,0.0,0.0,0.0,0.0,0.0,0.0,0.0,0.0,0.0,0.0,0.0,0.0,0.0,0.0,0.0,0.0,0.0,0.0,0.0,0.0,0.0,0.0,0.0,0.0,0.0,0.0,0.0,0.0,0.0,0.0,0.0,0.0,0.0,0.0,0.0,0.0,0.0,0.0,0.0,0.0,0.0,0.0,0.0,3.8324,3.902,3.8672,0.0,3.9105,0.0,0.0,0.0,0.0,0.0,0.0,0.0,0.0,0.0,0.0,0.0,0.0,0.0,0.0,0.0,0.0,0.0,0.0,0.0,0.0,0.0,0.0,0.0,0.0,0.0,0.0,0.0,0.0,0.0,0.0,0.0,0.0,0.0,0.0,0.0,0.0,0.0,0.0,0.0,0.0,0.0,0.0,0.0,0.0,0.0,0.0,0.0,0.0,0.0,0.0,0.0,0.0,0.0,0.0,0.0,0.0,0.0,0.0,0.0,0.0,0.0,0.0,0.0,0.0,0.0,0.0,0.0,0.0,0.0,0.0,0.0,0.0,0.0,0.0,0.0,0.0,0.0,0.0,0.0,0.0,0.0,0.0,0.0,0.0,0.0,0.0,0.0,0.0,0.0,0.0,0.0,0.0,0.0,0.0,0.0,0.0,0.0,0.0,0.0,0.0,0.0,0.0,0.0,0.0,0.0,0.0,0.0,0.0,0.0,0.0,3.8814,3.8633,3.9571,4.0121,0.0,0.0,0.0,0.0,0.0,0.0,0.0,0.0,0.0,0.0,0.0,0.0,0.0,0.0,0.0,0.0,0.0,0.0,0.0,0.0,0.0,0.0,0.0,0.0,0.0,0.0,0.0,0.0,0.0,0.0,0.0,0.0,0.0,0.0,0.0,0.0,0.0,0.0,0.0,0.0,0.0,0.0,0.0,0.0,0.0,0.0,0.0,0.0,0.0,0.0,0.0,0.0,0.0,0.0,0.0,0.0,0.0,0.0,0.0,0.0,0.0,0.0,0.0,0.0,0.0,0.0,0.0,0.0,0.0,0.0,0.0,0.0,0.0,0.0,0.0,0.0,0.0,0.0,0.0,0.0,0.0,0.0,0.0,0.0,0.0,0.0,0.0,0.0,0.0,0.0,0.0,0.0,0.0,0.0,0.0,0.0,0.0,0.0,0.0,0.0,0.0,0.0,0.0,0.0,0.0,0.0,0.0,0.0,0.0,0.0,4.0474,3.9893,3.9543,4.0414,4.1054,4.1285,0.0,0.0,0.0,0.0,0.0,0.0,0.0,0.0,0.0,0.0,0.0,0.0,0.0,0.0,0.0,0.0,0.0,0.0,0.0,0.0,0.0,0.0,0.0,0.0,0.0,0.0,0.0,0.0,0.0,0.0,0.0,0.0,0.0,0.0,0.0,0.0,0.0,0.0,0.0,0.0,0.0,0.0,0.0,0.0,0.0,0.0,0.0,0.0,0.0,0.0,0.0,0.0,0.0,0.0,0.0,0.0,0.0,0.0,0.0,0.0,0.0,0.0,0.0,0.0,0.0,0.0,0.0,0.0,0.0,0.0,0.0,0.0,0.0,0.0,0.0,0.0,0.0,0.0,0.0,0.0,0.0,0.0,0.0,0.0,0.0,0.0,0.0,0.0,0.0,0.0,0.0,0.0,0.0,0.0,0.0,0.0,0.0,0.0,0.0,0.0,0.0,0.0,0.0,0.0,0.0,0.0,0.0,0.0,4.5278,4.3042,4.2133,4.2755,4.2124,4.2124,0.0,0.0,0.0,0.0,0.0,0.0,0.0,0.0,0.0,0.0,0.0,0.0,0.0,0.0,0.0,0.0,0.0,0.0,0.0,0.0,0.0,0.0,0.0,0.0,0.0,0.0,0.0,0.0,0.0,0.0,0.0,0.0,0.0,0.0,0.0,0.0,0.0,0.0,0.0,0.0,0.0,0.0,0.0,0.0,0.0,0.0,0.0,0.0,0.0,0.0,0.0,0.0,0.0,0.0,0.0,0.0,0.0,0.0,0.0,0.0,0.0,0.0,0.0,0.0,0.0,0.0,0.0,0.0,0.0,0.0,0.0,0.0,0.0,0.0,0.0,0.0,0.0,0.0,0.0,0.0,0.0,0.0,0.0,0.0,0.0,0.0,0.0,0.0,0.0,0.0,0.0,0.0,0.0,0.0,0.0,0.0,0.0,0.0,0.0,0.0,0.0,0.0,0.0,0.0,0.0,0.0,0.0,0.0,0.0,4.4013,4.315,4.2524,4.2316,4.3008,4.3316,0.0,0.0,0.0,0.0,0.0,0.0,0.0,0.0,0.0,0.0,0.0,0.0,0.0,0.0,0.0,0.0,0.0,0.0,0.0,0.0,0.0,0.0,0.0,0.0,0.0,0.0,0.0,0.0,0.0,0.0,0.0,0.0,0.0,0.0,0.0,0.0,0.0,0.0,0.0,0.0,0.0,0.0,0.0,0.0,0.0,0.0,0.0,0.0,0.0,0.0,0.0,0.0,0.0,0.0,0.0,0.0,0.0,0.0,0.0,0.0,0.0,0.0,0.0,0.0,0.0,0.0,0.0,0.0,0.0,0.0,0.0,0.0,0.0,0.0,0.0,0.0,0.0,0.0,0.0,0.0,0.0,0.0,0.0,0.0,0.0,0.0,0.0,0.0,0.0,0.0,0.0,0.0,0.0,0.0,0.0,0.0,0.0,0.0,0.0,0.0,0.0,0.0,0.0,0.0,0.0,0.0,0.0,0.0,0.0,4.3181,0.0,4.2816,4.2277,4.3316,4.3778,0.0,0.0,0.0,0.0,0.0,0.0,0.0,0.0,0.0,0.0,0.0,0.0,0.0,0.0,0.0,0.0,0.0,0.0,0.0,0.0,0.0,0.0,0.0,0.0,0.0,0.0,0.0,0.0,0.0,0.0,0.0,0.0,0.0,0.0,0.0,0.0,0.0,0.0,0.0,0.0,0.0,0.0,0.0,0.0,0.0,0.0,0.0,0.0,0.0,0.0,0.0,0.0,0.0,0.0,0.0,0.0,0.0,0.0,0.0,0.0,0.0,0.0,0.0,0.0,0.0,0.0,0.0,0.0,0.0,0.0,0.0,0.0,0.0,0.0,0.0,0.0,0.0,0.0,0.0,0.0,0.0,0.0,0.0,0.0,0.0,0.0,0.0,0.0,0.0,0.0,0.0,0.0,0.0,0.0,0.0,0.0,0.0,0.0,0.0,0.0,0.0,0.0,0.0,0.0,0.0,0.0,0.0,0.0,4.4168,4.3201,4.3201,4.3316,4.3201,4.3239,4.3547,0.0,0.0,0.0,0.0,0.0,0.0,0.0,0.0,0.0,0.0,0.0,0.0,0.0,0.0,0.0,0.0,0.0,0.0,0.0,0.0,0.0,0.0,0.0,0.0,0.0,0.0,0.0,0.0,0.0,0.0,0.0,0.0,0.0,0.0,0.0,0.0,0.0,0.0,0.0,0.0,0.0,0.0,0.0,0.0,0.0,0.0,0.0,0.0,0.0,0.0,0.0,0.0,0.0,0.0,0.0,0.0,0.0,0.0,0.0,0.0,0.0,0.0,0.0,0.0,0.0,0.0,0.0,0.0,0.0,0.0,0.0,0.0,0.0,0.0,0.0,0.0,0.0,0.0,0.0,0.0,0.0,0.0,0.0,0.0,0.0,0.0,0.0,0.0,0.0,0.0,0.0,0.0,0.0,0.0,0.0,0.0,0.0,0.0,0.0,0.0,0.0,0.0,0.0,0.0,0.0,0.0,0.0,0.0,0.0,4.4966,4.5449,4.6278,4.7317,4.5163,4.4855,0.0,0.0,0.0,0.0,0.0,0.0,0.0,0.0,0.0,0.0,0.0,0.0,0.0,0.0,0.0,0.0,0.0,0.0,0.0,0.0,0.0,0.0,0.0,0.0,0.0,0.0,0.0,0.0,0.0,0.0,0.0,0.0,0.0,0.0,0.0,0.0,0.0,0.0,0.0,0.0,0.0,0.0,0.0,0.0,0.0,0.0,0.0,0.0,0.0,0.0,0.0,0.0,0.0,0.0,0.0,0.0,0.0,0.0,0.0,0.0,0.0,0.0,0.0,0.0,0.0,0.0,0.0,0.0,0.0,0.0,0.0,0.0,0.0,0.0,0.0,0.0,0.0,0.0,0.0,0.0,0.0,0.0,0.0,0.0,0.0,0.0,0.0,0.0,0.0,0.0,0.0,0.0,0.0,0.0,0.0,0.0,0.0,0.0,0.0,0.0,0.0,0.0,0.0,0.0,0.0,0.0,0.0,0.0,0.0,4.8508,4.7758,4.7818,4.8797,4.6417,4.5534,4.6337,0.0,0.0,0.0,0.0,0.0,0.0,0.0,0.0,0.0,0.0,0.0,0.0,0.0,0.0,0.0,0.0,0.0,0.0,0.0,0.0,0.0,0.0,0.0,0.0,0.0,0.0,0.0,0.0,0.0,0.0,0.0,0.0,0.0,0.0,0.0,0.0,0.0,0.0,0.0,0.0,0.0,0.0,0.0,0.0,0.0,0.0,0.0,0.0,0.0,0.0,0.0,0.0,0.0,0.0,0.0,0.0,0.0,0.0,0.0,0.0,0.0,0.0,0.0,0.0,0.0,0.0,0.0,0.0,0.0,0.0,0.0,0.0,0.0,0.0,0.0,0.0,0.0,0.0,0.0,0.0,0.0,0.0,0.0,0.0,0.0,0.0,0.0,0.0,0.0,0.0,0.0,0.0,0.0,0.0,0.0,0.0,0.0,0.0,0.0,0.0,0.0,0.0,0.0,0.0,0.0,0.0,0.0,0.0,5.3451,5.047,4.8874,4.8592,4.7401,4.5818,0.0,0.0,0.0,0.0,0.0,0.0,0.0,0.0,0.0,0.0,0.0,0.0,0.0,0.0,0.0,0.0,0.0,0.0,0.0,0.0,0.0,0.0,0.0,0.0,0.0,0.0,0.0,0.0,0.0,0.0,0.0,0.0,0.0,0.0,0.0,0.0,0.0,0.0,0.0,0.0,0.0,0.0,0.0,0.0,0.0,0.0,0.0,0.0,0.0,0.0,0.0,0.0,0.0,0.0,0.0,0.0,0.0,0.0,0.0,0.0,0.0,0.0,0.0,0.0,0.0,0.0,0.0,0.0,0.0,0.0,0.0,0.0,0.0,0.0,0.0,0.0,0.0,0.0,0.0,0.0,0.0,0.0,0.0,0.0,0.0,0.0,0.0,0.0,0.0,0.0,0.0,0.0,0.0,0.0,0.0,0.0,0.0,0.0,0.0,0.0,0.0,0.0,0.0,0.0,0.0,0.0,0.0,0.0,0.0,5.6422,5.8028,5.7989,5.6104,5.1459,4.8655,0.0,0.0,0.0,0.0,0.0,0.0,0.0,0.0,0.0,0.0,0.0,0.0,0.0,0.0,0.0,0.0,0.0,0.0,0.0,0.0,0.0,0.0,0.0,0.0,0.0,0.0,0.0,0.0,0.0,0.0,0.0,0.0,0.0,0.0,0.0,0.0,0.0,0.0,0.0,0.0,0.0,0.0,0.0,0.0,0.0,0.0,0.0,0.0,0.0,0.0,0.0,0.0,0.0,0.0,0.0,0.0,0.0,0.0,0.0,0.0,0.0,0.0,0.0,0.0,0.0,0.0,0.0,0.0,0.0,0.0,0.0,0.0,0.0,0.0,0.0,0.0,0.0,0.0,0.0,0.0,0.0,0.0,0.0,0.0,0.0,0.0,0.0,0.0,0.0,0.0,0.0,0.0,0.0,0.0,0.0,0.0,0.0,0.0,0.0,0.0,0.0,0.0,0.0,0.0,0.0,0.0,0.0,0.0,5.743,5.976,6.3778,6.4888,6.2829,5.7224,5.2504,0.0,0.0,0.0,0.0,0.0,0.0,0.0,0.0,0.0,0.0,0.0,0.0,0.0,0.0,0.0,0.0,0.0,0.0,0.0,0.0,0.0,0.0,0.0,0.0,0.0,0.0,0.0,0.0,0.0,0.0,0.0,0.0,0.0,0.0,0.0,0.0,0.0,0.0,0.0,0.0,0.0,0.0,0.0,0.0,0.0,0.0,0.0,0.0,0.0,0.0,0.0,0.0,0.0,0.0,0.0,0.0,0.0,0.0,0.0,0.0,0.0,0.0,0.0,0.0,0.0,0.0,0.0,0.0,0.0,0.0,0.0,0.0,0.0,0.0,0.0,0.0,0.0,0.0,0.0,0.0,0.0,0.0,0.0,0.0,0.0,0.0,0.0,0.0,0.0,0.0,0.0,0.0,0.0,0.0,0.0,0.0,0.0,0.0,0.0,0.0,0.0,0.0,0.0,0.0,0.0,0.0,0.0,0.0,6.0264,6.3092,6.803,6.9835,6.8302,6.3153,5.6557,0.0,0.0,0.0,0.0,0.0,0.0,0.0,0.0,0.0,0.0,0.0,0.0,0.0,0.0,0.0,0.0,0.0,0.0,0.0,0.0,0.0,0.0,0.0,0.0,0.0,0.0,0.0,0.0,0.0,0.0,0.0,0.0,0.0,0.0,0.0,0.0,0.0,0.0,0.0,0.0,0.0,0.0,0.0,0.0,0.0,0.0,0.0,0.0,0.0,0.0,0.0,0.0,0.0,0.0,0.0,0.0,0.0,0.0,0.0,0.0,0.0,0.0,0.0,0.0,0.0,0.0,0.0,0.0,0.0,0.0,0.0,0.0,0.0,0.0,0.0,0.0,0.0,0.0,0.0,0.0,0.0,0.0,0.0,0.0,0.0,0.0,0.0,0.0,0.0,0.0,0.0,0.0,0.0,0.0,0.0,0.0,0.0,0.0,0.0,0.0,0.0,0.0,0.0,0.0,0.0,0.0,0.0,0.0,6.1248,6.6027,7.0127,7.194,7.1268,6.3959,5.7367,0.0,0.0,0.0,0.0,0.0,0.0,0.0,0.0,0.0,0.0,0.0,0.0,0.0,0.0,0.0,0.0,0.0,0.0,0.0,0.0,0.0,0.0,0.0,0.0,0.0,0.0,0.0,0.0,0.0,0.0,0.0,0.0,0.0,0.0,0.0,0.0,0.0,0.0,0.0,0.0,0.0,0.0,0.0,0.0,0.0,0.0,0.0,0.0,4.6367,0.0,0.0,0.0,0.0,0.0,0.0,0.0,0.0,0.0,0.0,0.0,0.0,0.0,0.0,0.0,0.0,0.0,0.0,0.0,0.0,0.0,0.0,0.0,0.0,0.0,0.0,0.0,0.0,0.0,0.0,0.0,0.0,0.0,0.0,0.0,0.0,0.0,0.0,0.0,0.0,0.0,0.0,0.0,0.0,0.0,0.0,0.0,0.0,0.0,0.0,0.0,0.0,0.0,0.0,0.0,0.0,0.0,0.0,0.0,6.3638,6.9245,7.2199,7.3566,7.309,6.65,6.0333,0.0,0.0,0.0,0.0,0.0,0.0,0.0,0.0,0.0,0.0,0.0,0.0,0.0,0.0,0.0,0.0,0.0,0.0,0.0,0.0,0.0,0.0,0.0,0.0,0.0,0.0,0.0,0.0,0.0,0.0,0.0,0.0,0.0,0.0,0.0,0.0,0.0,0.0,0.0,0.0,0.0,0.0,0.0,0.0,0.0,0.0,0.0,0.0,0.0,0.0,0.0,0.0,0.0,0.0,0.0,0.0,0.0,0.0,0.0,0.0,0.0,0.0,0.0,0.0,0.0,0.0,0.0,0.0,0.0,0.0,0.0,0.0,0.0,0.0,0.0,0.0,0.0,0.0,0.0,0.0,0.0,0.0,0.0,0.0,0.0,0.0,0.0,0.0,0.0,0.0,0.0,0.0,0.0,0.0,0.0,0.0,0.0,0.0,0.0,0.0,0.0,0.0,0.0,0.0,0.0,0.0,0.0,6.1495,6.6144,7.2305,7.4013,7.4784,7.471,6.9397,6.3788,5.8103,0.0,0.0,0.0,0.0,0.0,0.0,0.0,0.0,0.0,0.0,0.0,0.0,0.0,0.0,0.0,0.0,0.0,0.0,0.0,0.0,0.0,0.0,0.0,0.0,0.0,0.0,0.0,0.0,0.0,0.0,0.0,0.0,0.0,0.0,0.0,0.0,0.0,0.0,4.4442,4.5131,0.0,0.0,0.0,0.0,0.0,0.0,0.0,0.0,4.6435,0.0,0.0,0.0,0.0,0.0,0.0,0.0,0.0,0.0,0.0,0.0,0.0,0.0,0.0,0.0,0.0,0.0,0.0,0.0,0.0,0.0,0.0,0.0,0.0,0.0,0.0,0.0,0.0,0.0,0.0,0.0,0.0,0.0,0.0,0.0,0.0,0.0,0.0,0.0,0.0,0.0,0.0,0.0,0.0,0.0,0.0,0.0,0.0,0.0,0.0,0.0,0.0,0.0,0.0,0.0,0.0,5.9693,6.1401,6.6254,7.4431,7.5282,7.5601,7.5453,7.0735,6.5422,5.9701,0.0,0.0,0.0,0.0,0.0,0.0,0.0,0.0,0.0,0.0,0.0,0.0,0.0,0.0,0.0,0.0,0.0,0.0,0.0,0.0,0.0,0.0,0.0,0.0,0.0,0.0,0.0,0.0,0.0,0.0,0.0,0.0,0.0,0.0,0.0,0.0,0.0,0.0,0.0,4.6134,4.7903,0.0,0.0,0.0,0.0,0.0,0.0,0.0,0.0,4.5221,0.0,0.0,0.0,0.0,0.0,0.0,0.0,0.0,0.0,0.0,0.0,0.0,0.0,0.0,0.0,0.0,0.0,0.0,0.0,0.0,0.0,0.0,0.0,0.0,0.0,0.0,0.0,0.0,0.0,0.0,0.0,0.0,0.0,0.0,0.0,0.0,0.0,0.0,0.0,0.0,0.0,0.0,0.0,0.0,0.0,0.0,0.0,0.0,0.0,0.0,0.0,0.0,0.0,0.0,0.0,5.9874,6.3489,6.8741,7.5577,7.6238,7.627,7.5676,6.9843,6.4308,0.0,0.0,0.0,0.0,0.0,0.0,0.0,0.0,0.0,0.0,0.0,0.0,0.0,0.0,0.0,0.0,0.0,0.0,0.0,0.0,0.0,0.0,0.0,0.0,0.0,0.0,0.0,0.0,0.0,0.0,0.0,0.0,0.0,0.0,0.0,0.0,0.0,0.0,0.0,0.0,4.7985,4.9328,4.7927,0.0,0.0,0.0,0.0,0.0,0.0,4.6922,4.6922,0.0,0.0,0.0,0.0,0.0,0.0,0.0,0.0,0.0,0.0,0.0,0.0,0.0,0.0,0.0,0.0,0.0,0.0,0.0,0.0,0.0,0.0,0.0,0.0,0.0,0.0,0.0,0.0,0.0,0.0,0.0,0.0,0.0,0.0,0.0,0.0,0.0,0.0,0.0,0.0,0.0,0.0,0.0,0.0,0.0,0.0,0.0,0.0,0.0,0.0,0.0,0.0,0.0,0.0,0.0,5.9908,6.5497,7.1002,7.6343,7.6931,7.6753,7.5973,6.9199,6.3371,0.0,0.0,0.0,0.0,0.0,0.0,0.0,0.0,0.0,0.0,0.0,0.0,0.0,0.0,0.0,0.0,0.0,0.0,0.0,0.0,0.0,0.0,0.0,0.0,0.0,0.0,0.0,0.0,0.0,0.0,0.0,0.0,0.0,0.0,0.0,0.0,0.0,0.0,0.0,0.0,0.0,5.0941,4.8508,4.8894,0.0,0.0,0.0,0.0,4.7618,4.9359,0.0,0.0,0.0,0.0,0.0,0.0,0.0,0.0,0.0,0.0,0.0,0.0,0.0,0.0,0.0,0.0,0.0,0.0,0.0,0.0,0.0,0.0,0.0,0.0,0.0,0.0,0.0,0.0,0.0,0.0,0.0,0.0,0.0,0.0,0.0,0.0,0.0,0.0,0.0,0.0,0.0,0.0,0.0,0.0,0.0,0.0,0.0,0.0,0.0,0.0,0.0,0.0,0.0,0.0,0.0,0.0,5.9564,6.5313,7.1131,7.6691,7.7068,7.705,7.6865,7.1079,6.5032,0.0,0.0,0.0,0.0,0.0,0.0,0.0,0.0,0.0,0.0,0.0,0.0,0.0,0.0,0.0,0.0,0.0,0.0,0.0,0.0,0.0,0.0,0.0,0.0,0.0,0.0,0.0,0.0,0.0,0.0,0.0,0.0,0.0,0.0,0.0,0.0,0.0,0.0,0.0,0.0,0.0,5.3721,5.1873,5.2376,5.2337,0.0,0.0,4.9397,4.9397,5.2105,0.0,0.0,0.0,0.0,0.0,0.0,0.0,0.0,0.0,0.0,0.0,0.0,0.0,0.0,0.0,0.0,0.0,0.0,0.0,0.0,0.0,0.0,0.0,0.0,0.0,0.0,0.0,0.0,0.0,0.0,0.0,0.0,0.0,0.0,0.0,0.0,0.0,0.0,0.0,0.0,0.0,0.0,0.0,0.0,0.0,0.0,0.0,0.0,0.0,0.0,0.0,0.0,0.0,0.0,0.0,5.5892,6.0292,6.719,7.2585,7.625,7.7273,7.7255,7.6273,6.9285,6.353,0.0,0.0,0.0,0.0,0.0,0.0,0.0,0.0,0.0,0.0,0.0,0.0,0.0,0.0,0.0,0.0,0.0,0.0,0.0,0.0,0.0,0.0,0.0,0.0,0.0,0.0,0.0,0.0,0.0,0.0,0.0,0.0,0.0,0.0,0.0,0.0,0.0,0.0,0.0,0.0,0.0,0.0,5.3185,5.4396,0.0,0.0,0.0,5.3614,5.4581,0.0,0.0,0.0,0.0,0.0,0.0,0.0,0.0,0.0,0.0,0.0,0.0,0.0,0.0,0.0,0.0,0.0,0.0,0.0,0.0,0.0,0.0,0.0,0.0,0.0,0.0,0.0,0.0,0.0,0.0,0.0,0.0,0.0,0.0,0.0,0.0,0.0,0.0,0.0,0.0,0.0,0.0,0.0,0.0,0.0,0.0,0.0,0.0,0.0,0.0,0.0,0.0,0.0,0.0,0.0,0.0,0.0,6.116,6.9128,7.435,7.6344,7.7608,7.7571,7.6125,6.8444,0.0,0.0,0.0,0.0,0.0,0.0,0.0,0.0,0.0,0.0,0.0,0.0,0.0,0.0,0.0,0.0,0.0,0.0,0.0,0.0,0.0,0.0,0.0,0.0,0.0,0.0,0.0,4.4794,0.0,0.0,0.0,0.0,0.0,0.0,0.0,0.0,0.0,0.0,0.0,0.0,0.0,0.0,5.8491,5.457,5.6618,5.7718,0.0,0.0,5.7657,5.8645,5.8487,5.7212,0.0,0.0,0.0,0.0,0.0,0.0,0.0,0.0,0.0,0.0,0.0,0.0,0.0,0.0,0.0,0.0,0.0,0.0,0.0,0.0,0.0,0.0,0.0,0.0,0.0,0.0,0.0,0.0,0.0,0.0,0.0,0.0,0.0,0.0,0.0,0.0,0.0,0.0,0.0,0.0,0.0,0.0,0.0,0.0,0.0,0.0,0.0,0.0,0.0,0.0,0.0,0.0,0.0,0.0,0.0,6.2068,7.0599,7.6032,7.8034,7.809,7.794,7.7718,7.0471,6.4697,0.0,0.0,0.0,0.0,0.0,0.0,0.0,0.0,0.0,0.0,0.0,0.0,0.0,0.0,0.0,0.0,0.0,0.0,0.0,0.0,0.0,0.0,0.0,0.0,0.0,0.0,0.0,0.0,0.0,0.0,0.0,0.0,0.0,0.0,0.0,0.0,0.0,0.0,0.0,0.0,0.0,5.9086,5.6874,5.9706,6.1582,0.0,0.0,6.0423,5.9496,6.2574,6.2651,5.5429,0.0,0.0,0.0,0.0,0.0,0.0,0.0,0.0,0.0,0.0,0.0,0.0,0.0,0.0,0.0,0.0,0.0,0.0,0.0,0.0,0.0,0.0,0.0,0.0,0.0,0.0,0.0,0.0,0.0,0.0,0.0,0.0,0.0,0.0,0.0,0.0,0.0,0.0,0.0,0.0,0.0,0.0,0.0,0.0,0.0,0.0,0.0,0.0,0.0,0.0,0.0,0.0,0.0,5.9592,6.2747,7.1228,7.617,7.7348,7.8331,7.8253,7.7024,7.0789,6.5335,0.0,0.0,0.0,0.0,0.0,0.0,0.0,0.0,0.0,0.0,0.0,0.0,0.0,0.0,0.0,0.0,0.0,0.0,0.0,0.0,0.0,0.0,0.0,0.0,0.0,0.0,0.0,0.0,4.3672,4.402,4.4678,0.0,0.0,0.0,0.0,0.0,0.0,0.0,0.0,0.0,0.0,6.0904,6.0494,6.254,0.0,0.0,6.2874,6.3566,6.3334,6.2629,6.0912,5.7228,5.3651,0.0,0.0,0.0,0.0,0.0,0.0,0.0,0.0,0.0,0.0,0.0,0.0,0.0,0.0,0.0,0.0,0.0,0.0,0.0,0.0,0.0,0.0,0.0,0.0,0.0,0.0,0.0,0.0,0.0,0.0,0.0,0.0,0.0,0.0,0.0,0.0,0.0,0.0,0.0,0.0,0.0,0.0,0.0,0.0,0.0,0.0,0.0,0.0,0.0,0.0,0.0,0.0,6.067,6.3954,7.2283,7.6736,7.7162,7.8734,7.8692,7.67,7.1416,6.6316,0.0,0.0,0.0,0.0,0.0,0.0,0.0,0.0,0.0,0.0,0.0,0.0,0.0,0.0,0.0,0.0,0.0,0.0,0.0,0.0,0.0,0.0,0.0,0.0,0.0,0.0,0.0,0.0,4.4059,4.433,4.4059,0.0,0.0,0.0,0.0,0.0,0.0,0.0,0.0,0.0,0.0,6.1983,6.2452,6.4326,6.5168,6.3694,6.4355,6.5102,6.536,6.2734,5.9916,5.7813,0.0,0.0,0.0,0.0,0.0,0.0,0.0,0.0,0.0,0.0,0.0,0.0,0.0,0.0,0.0,0.0,0.0,0.0,0.0,0.0,0.0,0.0,0.0,0.0,0.0,0.0,0.0,0.0,0.0,0.0,0.0,0.0,0.0,0.0,0.0,0.0,0.0,0.0,0.0,0.0,0.0,0.0,0.0,0.0,0.0,0.0,0.0,0.0,0.0,0.0,0.0,0.0,0.0,6.2331,6.5653,7.3852,7.8109,7.8014,7.949,7.9386,7.751,7.2663,6.7814,6.2953,0.0,0.0,0.0,0.0,0.0,0.0,0.0,0.0,0.0,0.0,0.0,0.0,0.0,0.0,0.0,0.0,0.0,0.0,0.0,0.0,0.0,0.0,0.0,0.0,0.0,0.0,4.6767,4.696,4.6612,0.0,0.0,0.0,0.0,0.0,0.0,0.0,0.0,0.0,0.0,5.8418,6.1896,6.2011,6.4819,6.6469,6.5367,6.483,6.46,6.4795,6.3327,6.0828,0.0,0.0,0.0,0.0,0.0,0.0,0.0,0.0,0.0,0.0,0.0,0.0,0.0,0.0,0.0,0.0,0.0,0.0,0.0,0.0,0.0,0.0,0.0,0.0,0.0,0.0,0.0,4.667,4.6758,0.0,0.0,0.0,0.0,0.0,0.0,0.0,0.0,0.0,0.0,0.0,5.0689,5.1285,0.0,0.0,0.0,0.0,0.0,0.0,0.0,0.0,0.0,0.0,0.0,0.0,6.2442,6.5841,7.2857,7.694,7.7842,7.8795,7.8688,7.7402,7.367,6.7961,6.0103,0.0,0.0,0.0,0.0,0.0,0.0,0.0,0.0,0.0,0.0,0.0,0.0,0.0,0.0,0.0,0.0,0.0,0.0,0.0,0.0,0.0,0.0,0.0,0.0,0.0,4.5916,0.0,0.0,0.0,0.0,0.0,0.0,0.0,0.0,0.0,0.0,0.0,5.2298,5.6084,5.8942,6.1467,6.3524,6.5069,6.5947,0.0,0.0,0.0,0.0,0.0,0.0,0.0,0.0,0.0,0.0,0.0,0.0,0.0,0.0,5.52,5.1254,5.0287,5.0287,5.079,0.0,0.0,0.0,0.0,0.0,0.0,0.0,0.0,0.0,0.0,0.0,0.0,0.0,0.0,0.0,0.0,4.8039,0.0,0.0,0.0,0.0,0.0,0.0,0.0,0.0,5.1857,5.3512,5.4875,5.5734,5.6182,0.0,5.5359,5.3541,0.0,0.0,0.0,0.0,0.0,0.0,0.0,0.0,6.3087,6.6099,7.2609,7.6625,7.7747,7.8417,7.8333,7.7268,7.3083,6.7373,6.0176,5.5364,5.1749,0.0,0.0,0.0,0.0,0.0,0.0,0.0,0.0,0.0,0.0,0.0,0.0,0.0,0.0,0.0,0.0,0.0,0.0,0.0,0.0,0.0,0.0,0.0,4.6121,0.0,0.0,0.0,0.0,0.0,0.0,0.0,0.0,0.0,5.1293,5.1769,5.3801,5.8374,6.0047,6.1825,6.4537,0.0,0.0,0.0,0.0,0.0,0.0,0.0,6.0454,5.9767,5.8391,5.7529,5.8054,5.9228,6.0008,5.978,0.0,0.0,5.3133,5.2105,5.2144,5.2995,5.4039,5.51,5.5935,5.6515,5.6902,0.0,0.0,0.0,0.0,0.0,0.0,0.0,0.0,4.8097,4.9716,0.0,4.9111,0.0,0.0,0.0,0.0,0.0,0.0,0.0,0.0,5.5212,5.736,5.8644,5.953,5.9862,5.9817,6.0526,5.9424,5.6631,5.2646,0.0,0.0,0.0,0.0,0.0,0.0,6.4407,6.6711,7.3313,7.7143,7.7783,7.8417,7.8296,7.7157,7.1211,6.6455,6.3174,5.86,5.4999,5.2638,5.1788,0.0,0.0,0.0,0.0,0.0,0.0,0.0,0.0,0.0,0.0,0.0,0.0,0.0,0.0,0.0,0.0,0.0,0.0,0.0,0.0,4.648,0.0,0.0,0.0,0.0,0.0,0.0,0.0,0.0,0.0,0.0,5.263,5.3687,5.6022,6.0188,0.0,0.0,0.0,0.0,6.6027,6.6104,6.6029,6.622,6.6733,6.6049,6.4622,6.2294,0.0,0.0,6.1652,6.1599,6.1755,6.1966,6.0786,5.9088,5.7834,5.6729,5.636,5.7172,5.7541,5.7871,5.8642,5.9302,5.9321,5.6432,0.0,0.0,0.0,0.0,5.1711,5.3312,5.5169,5.495,5.5172,5.5614,5.3162,0.0,0.0,0.0,0.0,0.0,0.0,5.5697,5.7587,6.1241,6.3664,6.5073,6.6486,6.6905,6.6316,6.5359,6.4007,6.2183,5.9513,5.6512,5.329,0.0,0.0,0.0,0.0,6.5257,6.8391,7.3803,7.7029,7.7783,7.7744,7.7329,7.646,7.301,6.9394,6.5713,6.2082,5.8784,5.6006,5.3454,0.0,0.0,0.0,0.0,0.0,0.0,0.0,0.0,0.0,0.0,0.0,0.0,0.0,0.0,0.0,0.0,0.0,0.0,0.0,4.9913,4.9401,4.9014,0.0,0.0,0.0,0.0,0.0,0.0,0.0,0.0,0.0,5.7829,5.805,5.9191,0.0,0.0,6.3577,6.5195,6.5981,6.6657,6.7341,0.0,0.0,0.0,6.6462,6.5261,6.4547,6.4514,6.4744,6.5424,6.5538,6.5475,6.5214,6.4747,6.4126,6.3023,6.0641,5.9282,5.9919,6.1466,6.3013,6.3864,6.4946,6.5835,6.439,5.9206,5.6422,5.5577,5.6097,5.7212,5.8768,6.0543,6.0395,6.0611,6.1011,5.8233,5.5835,5.3721,5.197,0.0,0.0,0.0,6.0078,6.3057,6.6012,6.8362,7.011,7.1451,7.1691,7.0882,6.9559,6.8283,6.6914,6.5338,6.2657,5.8943,0.0,0.0,5.8597,6.3501,6.7179,6.9761,7.4236,7.695,7.7666,7.7463,7.7084,7.6533,7.4258,7.1688,6.899,6.5602,6.2424,5.973,5.6561,5.4235,0.0,0.0,0.0,0.0,0.0,0.0,0.0,0.0,0.0,0.0,0.0,4.7524,0.0,0.0,0.0,0.0,4.8121,4.9451,5.0658,5.0199,0.0,0.0,0.0,0.0,0.0,0.0,0.0,5.3652,5.5439,5.7909,6.118,6.1874,6.2917,6.5407,6.5124,6.5266,6.716,0.0,6.7985,6.9228,6.9378,6.9491,6.9791,6.8959,6.8097,6.746,6.7128,6.7091,6.7809,6.7984,6.7921,6.7873,6.8054,6.8198,6.7795,6.6173,6.4624,6.4122,6.5434,6.7139,6.8446,7.0109,7.1231,7.1792,7.0051,6.482,6.2361,6.1997,6.3482,6.4179,6.4224,6.489,6.5866,6.6837,6.3774,6.1892,6.0822,5.798,0.0,0.0,6.2107,6.4559,6.8128,6.9779,7.1725,7.3891,7.4698,7.4661,7.3891,7.3156,7.2152,7.0877,7.0064,6.8742,6.7005,6.3539,6.192,6.2328,6.678,6.9724,7.1013,7.4774,7.6928,7.7426,7.7378,7.7254,7.7144,7.4895,7.3303,7.2422,6.8676,6.5543,6.3258,6.0174,5.7418,5.5092,0.0,0.0,0.0,0.0,0.0,0.0,0.0,0.0,0.0,0.0,0.0,0.0,0.0,0.0,0.0,4.8164,0.0,4.9657,4.9771,0.0,0.0,0.0,5.3148,5.4149,5.4647,5.5286,5.6286,0.0,0.0,0.0,0.0,6.6862,6.8413,6.7597,6.771,7.0031,6.9731,6.9843,7.1228,7.1649,7.1949,7.2389,7.2304,7.1621,7.0359,6.9731,6.9222,6.9272,6.9391,6.9524,6.9852,7.0573,7.1067,7.1433,7.162,7.1833,6.904,6.9289,7.0448,7.2095,7.379,7.4756,7.7478,7.6656,7.5249,7.1929,6.7691,6.8618,6.9628,7.0544,7.0175,6.988,6.9458,6.7465,6.5435,6.3516,6.3272,6.3873,6.5308,6.7851,6.9853,7.1468,7.3634,7.4992,7.5542,7.635,7.6313,7.5542,7.5322,7.4911,7.4238,7.3462,7.2643,7.174,7.0869,6.9033,6.6523,6.909,7.1441,7.3495,7.6141,7.7206,7.657,7.705,7.702,7.6469,7.4677,7.3303,7.2459,6.8641,6.5441,6.3113,6.0047,5.7291,5.505,5.3273,0.0,0.0,0.0,0.0,0.0,0.0,0.0,0.0,0.0,4.9455,4.9712,0.0,5.0374,0.0,4.977,5.0877,5.3008,5.2449,0.0,0.0,5.4146,5.5025,5.5569,5.6343,5.7519,5.9311,6.0942,6.2756,6.5052,6.7276,6.9202,7.0524,6.9926,6.9714,7.0911,7.1413,7.1749,7.2208,7.2817,7.334,7.3415,7.2918,7.2171,7.12,7.092,7.0713,7.0166,7.0623,7.1163,7.125,7.1406,7.16,7.161,7.1836,7.2078,7.2206,7.2609,7.3041,7.3629,7.5225,7.6467,8.0954,8.1021,8.0154,7.8031,7.5175,7.5031,7.5346,7.6006,7.5601,7.4695,7.3423,7.1066,6.9262,6.7994,6.8015,6.8843,7.0349,7.2092,7.3523,7.4698,7.6019,7.6644,7.668,7.7121,7.7084,7.6644,7.6644,7.6604,7.6491,7.6011,7.5551,7.5044,7.5044,7.3959,7.2085,7.2694,7.401,7.5902,7.7329,7.7437,7.6228,7.6903,7.6931,7.6167,7.4555,7.2973,7.1468,6.7907,6.4875,6.2512,5.9771,5.758,5.6047,5.4123,5.2679,0.0,0.0,0.0,0.0,0.0,0.0,0.0,0.0,0.0,0.0,0.0,5.1972,0.0,5.1986,0.0,5.5546,5.4874,5.4724,5.5874,5.6706,5.7404,5.8013,5.8963,6.0357,6.228,6.3404,6.4882,6.72,6.8782,7.0292,7.1705,7.1749,7.1962,7.2671,7.2957,7.3069,7.3492,7.3641,7.3566,7.3181,7.2348,7.1566,7.0797,7.0422,7.0126,6.9814,7.0076,7.0496,7.0541,7.1058,7.1545,7.1629,7.2266,7.3004,7.3571,7.3938,7.4181,7.4552,7.5812,7.677,8.3005,8.3674,8.2076,8.1866,8.2287,8.133,8.0561,7.9957,8.0057,7.9276,7.7635,7.4698,7.345,7.3377,7.2716,7.356,7.5506,7.5542,7.6276,7.7598,7.7635,7.7561,7.7488,7.7488,7.7451,7.7341,7.7341,7.7487,7.7783,7.7783,7.7624,7.7273,7.7236,7.7236,7.7199,7.6493,7.657,7.7629,7.8238,7.7703,7.6182,7.702,7.6975,7.5995,7.4092,7.2018,6.9669,6.6439,6.37,6.1518,5.9283,5.7752,5.7117,5.497,5.3827,0.0,5.2754,0.0,0.0,0.0,0.0,0.0,0.0,0.0,0.0,5.273,5.3569,5.5593,5.451,5.4874,5.758,5.7283,5.7546,5.8995,5.943,6.0003,6.1018,6.1991,6.3262,6.5069,6.5691,6.6934,6.9056,6.9954,7.0965,7.2186,7.2957,7.3601,7.442,7.3974,7.3713,7.4495,7.4062,7.3303,7.2458,7.1626,7.0907,7.0087,6.962,6.9043,6.9191,6.9415,6.9528,6.9686,7.0883,7.1733,7.179,7.2988,7.3896,7.4076,7.4085,7.4363,7.4941,7.5994,7.6564,8.4356,8.4071,8.4388,8.3918,8.3065,8.4048,8.2691,7.9748,8.0442,8.0594,8.0241,7.8956,7.8405,7.8405,7.8259,7.8442,7.8846,7.8846,7.9029,7.9323,7.9323,7.8993,7.8369,7.8369,7.8002,7.7341,7.7341,7.7487,7.7783,7.7783,7.7883,7.8053,7.8053,7.8053,7.8053,0.0,0.0,0.0,7.7883,7.7672,7.6182,7.7453,7.7229,7.5155,7.1696,0.0,6.7173,6.3429,6.0823,5.9732,5.8133,0.0,0.0,0.0,0.0,0.0,0.0,0.0,0.0,0.0,0.0,0.0,5.5685,5.5457,5.4965,5.5286,5.5956,5.7041,5.7409,5.8111,5.9339,5.9966,6.0667,6.1565,6.1757,6.2487,6.4206,6.4458,6.5249,6.7156,6.7884,6.8683,6.9814,7.1125,7.2025,7.2385,7.2992,7.3722,7.4502,7.3945,7.3536,7.3647,7.3499,7.3127,7.2295,7.1998,7.1204,7.0226,7.0376,7.0299,6.9852,7.0843,7.1797,7.177,7.2694,7.3254,7.3254,7.3677,7.3864,7.3864,7.3981,7.4131,7.4387,7.581,7.7006,8.5811,0.0,8.5426,8.5098,0.0,8.4792,8.3611,8.1804,8.2404,8.2209,8.1562,8.0718,8.0388,8.0351,7.9947,8.0021,8.0351,7.9984,7.98,7.98,7.98,7.958,7.9176,7.8772,7.8369,7.7928,7.7524,7.7524,7.7783,7.7783,7.7994,7.8276,7.8276,7.8276,7.8313,7.8057,7.7431,7.6502,7.7041,7.6569,7.5088,7.6462,7.6363,7.4367,0.0,0.0,0.0,0.0,0.0,0.0,0.0,0.0,0.0,0.0,0.0,5.5649,5.606,5.6511,5.7078,5.7452,5.7862,5.8273,5.902,5.8646,5.6668,5.7481,5.8401,5.9264,6.0045,6.097,6.219,6.2747,6.3305,6.4122,6.4233,6.4807,6.6068,6.6574,6.7282,6.8547,6.909,6.974,7.097,7.1368,7.2025,7.2732,7.3164,7.3521,7.3855,7.367,7.3372,7.3372,7.3001,7.2481,7.1701,7.118,7.0623,6.9496,6.9472,6.9644,6.9372,6.999,7.0597,7.072,7.1578,7.2385,7.2559,7.3081,7.3678,7.3815,7.3875,7.3934,7.4046,7.5229,7.6262,8.6755,8.7291,8.5998,8.5749,8.6266,8.4993,8.4454,8.4447,0.0,0.0,0.0,8.2003,8.1636,8.1599,8.0938,8.0938,8.1379,8.0755,8.0351,8.0204,8.0204,8.0131,7.9984,7.9323,7.8956,7.8772,7.7965,7.7707,7.8005,7.7857,7.7994,7.8313,7.8425,7.8499,7.8424,7.7851,7.7185,7.6408,7.6349,7.5602,7.4101,7.5372,7.5395,7.4011,7.2744,7.0071,6.5888,6.3356,6.075,5.8033,5.774,5.7765,5.7943,5.7987,5.782,5.7394,5.7509,5.7881,5.8549,5.9181,5.985,6.0518,6.1967,6.1558,5.8586,5.985,6.1038,6.1794,6.2805,6.4033,6.5348,6.5747,6.6155,6.6898,6.6935,6.7243,6.7874,6.8506,6.9137,6.9806,6.9917,7.0475,7.19,7.1552,7.1663,7.3001,7.3372,7.3298,7.3187,7.3112,7.3112,7.3038,7.2444,7.1701,7.0883,7.0252,6.9434,6.8766,6.858,6.8543,6.8617,6.8691,6.8777,6.9171,7.0115,7.1119,7.1405,7.2559,7.354,7.3715,7.3765,7.3765,7.384,7.4623,7.532,8.6394,8.6459,8.629,8.5876,8.5422,8.5842,8.6123,8.6218,8.4967,8.4705,8.5233,8.4462,8.4095,8.4095,8.3985,8.3618,8.3067,8.2957,8.2517,0.0,8.1856,8.1489,8.0865,8.0718,8.0277,7.958,7.8809,7.8591,7.8684,7.8153,7.7994,7.8388,7.8982,7.9203,7.8818,7.745,7.6518,7.6188,7.6799,7.6322,7.4774,7.5685,7.5677,7.4686,7.1939,6.9536,6.743,6.5044,6.3209,6.2034,6.1397,6.1171,6.1348,6.1365,6.15,6.1596,6.219,6.2636,6.271,6.2859,6.297,6.3119,6.3973,6.3676,6.1967,6.3193,6.4159,6.4361,6.6267,6.7738,6.8054,6.9097,6.9806,7.0103,7.0177,7.0289,7.0326,7.04,7.0549,7.0735,7.0735,7.0995,7.19,7.1961,7.2184,7.3075,7.3112,7.3075,7.2555,7.2332,7.2332,7.2258,7.1612,7.0796,7.0127,6.9793,6.9311,6.8654,6.8543,6.8543,6.8543,6.8989,6.9323,6.9472,7.066,7.1663,7.19,7.2792,7.3201,7.329,7.3364,7.3476,7.3503,7.4299,7.4984,8.6294,8.6294,8.6294,8.6122,8.5811,8.6156,8.6732,8.7237,8.6096,8.5634,8.5752,8.5416,8.5233,8.5196,8.4792,8.4425,8.4022,8.3618,8.2957,8.2223,8.2186,8.2003,8.1636,8.1195,8.0828,8.0388,7.9617,7.9338,7.9449,7.9238,7.9231,7.95,7.9483,7.8928,7.7757,7.7375,7.6435,7.4913,7.5575,7.5481,7.4326,7.5484,7.5295,7.3699,7.2942,7.149,6.9063,6.7964,6.6769,6.5521,6.4728,6.4254,6.3959,6.3574,6.3308,6.3119,6.3379,6.3825,6.4233,6.5125,6.5831,6.6239,6.702,6.7168,6.6462,6.6648,6.6982,6.7439,6.8948,6.9815,6.9767,7.0437,7.0856,7.0907,7.087,7.1106,7.1441,7.1143,7.1106,7.1403,7.0809,7.0586,7.1403,7.1515,7.1575,7.1969,7.2058,7.2035,7.2072,7.1403,7.1032,7.1329,7.0759,7.0202,6.9719,6.9274,6.8951,6.8543,6.8543,6.8543,6.8543,6.8877,6.9026,6.91,7.0066,7.0735,7.0883,7.1515,7.1923,7.2035,7.2095,7.2244,7.2755,7.355,7.442,8.6294,8.6294,8.6294,8.6294,8.6294,8.6294,8.6846,8.7548,8.7116,8.6636,8.6059,8.6045,8.6077,8.6004,8.5416,8.5049,8.4792,8.4242,8.3508,8.2774,8.2737,8.2737,8.27,8.2076,8.1746,8.1489,8.0718,8.0367,8.037,8.0271,8.0452,8.0703,7.9908,7.8664,7.7194,7.7739,7.6808,7.451,7.4896,7.4671,7.3687,7.4853,7.4723,7.3376,7.4276,7.3822,7.1609,7.1253,7.0513,6.9119,6.8145,6.739,6.6934,6.6223,6.5668,6.5255,6.5459,6.5905,6.6722,6.7911,6.8951,6.9546,7.0177,7.0623,7.0735,7.0252,6.988,7.0066,7.0834,7.1392,7.1204,7.1413,7.1435,7.1464,7.1464,7.1775,7.2258,7.1701,7.1329,7.1701,7.0623,6.9992,7.0437,7.0623,7.0759,7.093,7.0893,7.118,7.1403,7.0475,7.0066,7.0066,6.9793,6.9422,6.9385,6.894,6.8617,6.8543,6.8543,6.8543,6.8543,6.8543,6.8543,6.8654,6.9211,6.9769,6.9843,7.0437,7.0958,7.1106,7.1315,7.1635,7.2481,7.3224,7.3945,8.6294,8.6294,8.6294,8.6294,8.6294,8.6294,8.6498,8.6762,8.739,8.7393,8.6861,8.679,8.6885,8.6885,8.6775,8.6334,8.5673,8.56,8.5086,8.4352,8.4389,8.4389,8.4278,8.4242,8.3875,8.3104,8.2296,8.1654,8.1305,8.0627,8.0807,8.1562,8.0147,7.9191,7.885,7.8675,7.7666,7.5919,7.6002,7.4947,7.2946,7.3599,7.4286,7.4793,7.4905,7.5209,7.5263,7.4822,7.4037,7.312,7.1765,7.0974,7.0845,7.036,7.0087,6.9939,7.0796,7.1775,7.2406,7.2741,7.2741,7.2927,7.2889,7.3261,7.3892,7.3967,7.3038,7.165,7.2295,7.2778,7.2192,7.2652,7.3001,7.2964,7.3001,7.3187,7.3112,7.2555,7.1812,7.1069,7.0252,6.9732,6.9781,6.9769,7.014,7.0833,7.0684,7.0512,7.0252,6.988,6.9397,6.8989,6.8691,6.8691,6.8691,6.8617,6.8543,6.8543,6.8543,6.8543,6.8543,6.8543,6.8543,6.8617,6.9063,6.9546,6.9769,7.0326,7.0772,7.0698,7.1218,7.2235,7.3127,7.3744,7.419,8.6294,8.6294,8.6294,8.6294,8.6294,8.6294,8.6995,8.7994,8.7971,8.8032,8.829,8.7919,8.7472,8.7031,8.7031,8.6554,8.582,8.5783,8.538,8.4646,8.4609,8.4609,8.4609,8.4609,8.4205,8.3471,8.3067,8.2647,8.2065,8.1871,8.1867,8.1859,8.064,7.9727,7.9066,7.8369,7.7344,7.6207,7.6537,7.5878,7.4309,7.4316,7.4612,7.5048,7.5478,7.5855,7.6162,7.6214,7.6166,7.5799,7.4794,7.3823,7.2981,7.2337,7.1611,7.0902,7.165,7.2741,7.4004,7.4078,7.4078,7.4078,7.4115,7.4264,7.4524,7.4153,7.3595,7.3335,7.3722,7.3796,7.3075,7.3224,7.3372,7.3372,7.3372,7.3372,7.3372,7.2221,7.1255,7.0883,6.9806,6.8989,6.8951,6.8989,6.9546,7.04,7.0215,6.9546,6.962,6.9323,6.8877,6.8617,6.8543,6.8543,6.8543,6.8543,6.8543,6.8543,6.8543,6.8543,6.8543,6.8543,6.8543,6.8543,6.884,6.9063,6.8951,6.9174,6.9509,6.9806,7.0586,7.1565,7.1886,7.3001,7.3521,8.6294,8.6294,8.6294,8.6294,8.6294,8.6294,8.717,8.8633,8.8327,8.8654,8.9276,8.8725,8.8096,8.7362,8.7105,8.6664,8.6187,8.6114,8.582,8.5306,8.527,8.527,8.527,8.527,8.4829,8.4132,8.3838,8.3309,8.2581,8.2584,8.2505,8.2171,8.1292,8.0162,7.907,7.8342,7.7438,7.6242,7.6671,7.6464,7.5621,7.538,7.5239,7.5117,7.5799,7.6216,7.6203,7.6929,7.7341,7.7304,7.6533,7.5639,7.4617,7.3885,7.3167,7.2569,7.3097,7.4115,7.5527,7.5601,7.5601,7.5601,7.5601,7.5527,7.523,7.4747,7.4561,7.4784,7.4948,7.4539,7.3521,7.3372,7.3372,7.3372,7.3372,7.3372,7.3298,7.1923,7.0958,7.0772,6.9546,6.8543,6.8543,6.858,6.9026,6.9769,6.9249,6.8654,6.9174,6.8877,6.8543,6.8543,6.8543,6.8543,6.8543,6.8543,6.8543,6.8543,6.8543,6.8543,6.8543,6.8543,6.8543,6.8543,6.8543,6.8543,6.8691,6.8617,6.8729,6.8989,6.9781,7.0747,7.1056,7.2072,7.2666,8.6294,8.6294,8.6294,8.6294,8.6294,8.6294,8.6853,8.7981,8.8685,8.9115,8.9403,8.9386,8.8904,8.8133,8.7472,8.7031,8.6958,8.6958,8.6921,8.6848,8.6811,8.6885,8.6885,8.6885,8.6407,8.5453,8.4829,8.3999,8.2843,8.2334,8.2437,8.3069,8.2092,8.0678,7.9432,7.9405,7.8458,7.6537,7.6326,7.6464,7.6898,7.6426,7.5836,7.5283,7.5743,7.6266,7.6348,7.6893,7.7341,7.7341,7.657,7.6019,7.5873,7.5331,7.5285,7.618,7.6624,7.7125,7.7793,7.7905,7.7905,7.7942,7.7645,7.7645,7.6679,7.6344,7.601,7.575,7.5436,7.4879,7.367,7.3484,7.3447,7.3372,7.3372,7.3335,7.3335,7.1775,7.1032,7.066,6.9472,6.8617,6.8543,6.8543,6.858,6.8766,6.8617,6.858,6.8617,6.858,6.8543,6.8543,6.8543,6.8543,6.8543,6.8543,6.8543,6.8543,6.8543,6.8543,6.8543,6.8543,6.8543,6.8543,6.8543,6.8543,6.8543,6.8654,6.884,6.9149,6.9434,7.0066,7.0499,7.0809,7.1403,8.6294,8.6294,8.6294,8.6294,8.6294,8.6294,8.717,8.8579,8.8932,8.9518,9.0078,9.0154,8.9748,8.894,8.8683,8.8243,8.7802,8.7766,8.7766,8.7692,8.7252,8.7031,8.7031,8.7031,8.6591,8.5857,8.549,8.4993,8.4284,8.3743,8.3604,8.3719,8.3337,8.2169,8.0609,7.9897,7.9016,7.7713,7.712,7.6947,7.7278,7.7473,7.7275,7.6549,7.6762,7.7185,7.7696,7.7474,7.7341,7.7341,7.7011,7.6644,7.6093,7.5632,7.5695,7.6681,7.6995,7.7459,7.8165,7.8276,7.8053,7.7533,7.6976,7.6679,7.6121,7.5378,7.4784,7.4933,7.4529,7.3935,7.3744,7.3855,7.3967,7.3447,7.2927,7.2666,7.2332,7.118,7.014,6.9992,6.9137,6.8543,6.8543,6.8543,6.8543,6.8543,6.8543,6.8543,6.8543,6.8543,6.8543,6.8543,6.8543,6.8543,6.8543,6.8543,6.8543,6.8543,6.8543,6.8506,6.8506,6.8506,6.8543,6.8543,6.8543,6.8543,6.8543,6.8543,6.8766,6.884,6.9211,6.962,7.0066,7.0252,7.0747,8.6536,8.6329,8.6294,8.6294,8.6294,8.6294,8.7361,8.9019,8.9106,8.9825,9.0777,9.0739,9.0298,8.9858,8.9784,8.9528,8.8977,8.872,8.8463,8.8169,8.7655,8.7252,8.7031,8.7031,8.6738,8.6187,8.6029,8.5677,8.5133,8.4855,8.4754,8.4608,8.4138,8.3048,8.1604,8.0529,7.9618,7.8784,7.8017,7.7603,7.7658,7.8441,7.8634,7.8204,7.8387,7.8413,7.8236,7.762,7.7341,7.7341,7.7341,7.7047,7.6497,7.6317,7.6474,7.7069,7.7348,7.7682,7.8202,7.8276,7.8053,7.7533,7.6976,7.653,7.6196,7.5193,7.497,7.5156,7.4991,7.4492,7.4338,7.4673,7.4561,7.3558,7.2666,7.2221,7.2109,7.0735,6.9732,6.9323,6.8877,6.8543,6.8543,6.8543,6.8543,6.8543,6.8543,6.8543,6.8543,6.8543,6.8543,6.8543,6.8543,6.8543,6.8506,6.8506,6.8506,6.8506,6.8197,6.8234,6.8506,6.8506,6.8543,6.8543,6.8543,6.8543,6.8543,6.8543,6.8543,6.858,6.8766,6.9137,6.9483,6.9669,7.0078,8.6949,8.6363,8.6294,8.6294,8.6294,8.6394,8.7456,8.8932,8.9192,9.0123,9.1473,9.0996,9.0702,9.0629,9.0592,9.0592,9.0408,8.9821,8.9087,8.8353,8.8169,8.7692,8.7031,8.7031,8.6995,8.6848,8.6487,8.5946,8.5318,8.5485,8.551,8.5261,8.4474,8.3446,8.232,8.1224,8.0333,7.958,7.8844,7.843,7.8473,7.9211,7.9522,7.9655,8.0252,7.9705,7.7783,7.7505,7.7414,7.7341,7.7341,7.7341,7.7292,7.7459,7.771,7.7731,7.8034,7.8276,7.8276,7.8276,7.8276,7.8128,7.8165,7.7608,7.6976,7.6716,7.6567,7.6419,7.6567,7.6456,7.5639,7.5564,7.5023,7.3558,7.2518,7.2035,7.1701,7.066,6.9434,6.8766,6.8543,6.8543,6.8543,6.8543,6.8543,6.8543,6.8543,6.8543,6.8543,6.8543,6.8543,6.8543,6.8543,6.8543,6.8506,6.8506,6.8506,6.8431,6.8011,6.7814,6.8308,6.8543,6.8543,6.8543,6.8543,6.8543,6.858,6.8617,6.8654,6.8654,6.8729,6.8729,6.8877,6.9149,6.9211,8.6984,8.6329,8.6294,8.6294,8.6394,8.7012,8.7981,8.9106,8.9785,9.071,9.1583,9.1546,9.1436,9.1436,9.1436,9.1436,9.14,9.1106,9.0335,8.9124,8.85,8.7802,8.7142,8.7031,8.7031,8.6953,8.6487,8.65,8.6639,8.646,8.6201,8.5918,8.5581,8.4455,8.2942,8.2037,8.1364,8.0973,7.981,7.9189,7.9177,7.9406,7.962,7.9762,7.9937,7.9912,7.9844,7.8793,7.7965,7.7414,7.7341,7.7341,7.7524,7.7703,7.7879,7.7957,7.8165,7.8276,7.8276,7.8276,7.8276,7.8202,7.7793,7.7385,7.705,7.6567,7.6084,7.5639,7.5861,7.5845,7.5267,7.5527,7.4821,7.2778,7.1812,7.1143,7.0549,6.9583,6.8877,6.8617,6.8543,6.8543,6.8543,6.8543,6.8543,6.8543,6.8543,6.8543,6.8543,6.8543,6.8543,6.8543,6.8543,6.8506,6.8506,6.8346,6.8271,6.8308,6.8049,6.7814,6.8234,6.8543,6.8543,6.8543,6.8543,6.8543,6.8617,6.8691,6.8729,6.8803,6.8914,6.8803,6.858,6.8654,6.884,8.7639,8.6742,8.6708,8.6536,8.6394,8.7266,8.8255,8.9192,9.0114,9.098,9.1694,9.1767,9.1803,9.1803,9.1803,9.1803,9.1803,9.1803,9.1106,8.9895,8.9014,8.8206,8.7472,8.7105,8.7031,8.699,8.6782,8.7017,8.7394,8.7184,8.6925,8.6672,8.5919,8.4943,8.3672,8.2699,8.213,8.1698,8.0569,7.9776,7.951,7.9287,7.9211,7.9329,7.9825,8.0218,8.0509,7.9755,7.9103,7.8332,7.7965,7.7733,7.7657,7.7762,7.7842,7.8014,7.8165,7.8276,7.8276,7.8276,7.8276,7.8202,7.783,7.7533,7.7422,7.6939,7.6382,7.5787,7.601,7.5787,7.4933,7.5007,7.4338,7.2444,7.1775,7.0772,6.962,6.884,6.858,6.8543,6.8543,6.8543,6.8543,6.8543,6.8543,6.8543,6.8543,6.8543,6.8543,6.8543,6.8543,6.8543,6.8543,6.8506,6.8468,6.8271,6.8086,6.8123,6.8123,6.8123,6.8346,6.8506,6.8543,6.8543,6.8543,6.8543,6.858,6.8766,6.8877,6.8951,6.9,6.8951,6.8803,6.858,6.8729,8.8777,8.7467,8.7398,8.6949,8.6528,8.7456,8.831,8.9192,9.0231,9.1133,9.1694,9.1803,9.1803,9.1803,9.1803,9.1803,9.1803,9.1767,9.1436,9.0629,8.9821,8.9014,8.8096,8.7472,8.7252,8.7247,8.7409,8.7549,8.774,8.7637,8.7637,8.71,8.5616,8.4523,8.3981,8.3298,8.2527,8.1914,8.119,8.05,7.9776,7.9025,7.8715,7.8858,7.9956,8.0513,8.039,8.0678,8.0571,7.98,7.8883,7.8247,7.7841,7.7836,7.799,7.8051,7.8221,7.8351,7.8313,7.8276,7.8276,7.8276,7.8239,7.8276,7.8128,7.7979,7.7608,7.6902,7.7047,7.6489,7.5209,7.4986,7.4168,7.2681,7.1998,7.0883,6.8951,6.858,6.8691,6.858,6.8543,6.8543,6.8543,6.8543,6.8543,6.8543,6.8543,6.8543,6.8543,6.8543,6.8543,6.8543,6.8543,6.8506,6.8506,6.8468,6.8234,6.8234,6.8234,6.8308,6.8346,6.8468,6.8543,6.8543,6.8543,6.8543,6.8654,6.884,6.8803,6.8691,6.8803,6.8989,6.8914,6.8643,6.8791,8.8812,8.7467,8.7432,8.6984,8.6627,8.7981,8.8845,8.9278,9.0788,9.1546,9.1803,9.1803,9.1803,9.1803,9.1803,9.1803,9.1803,9.1803,9.173,9.14,9.0665,8.9491,8.8426,8.8023,8.7876,8.7876,8.8188,8.8551,8.8925,8.8066,8.75,8.7158,8.5556,8.4219,8.3437,8.316,8.2811,8.2638,8.2431,8.1974,8.1076,7.9844,7.96,8.0146,8.0084,8.0659,8.1355,8.1725,8.1195,7.9874,7.9029,7.8639,7.8625,7.867,7.8565,7.8387,7.8833,7.8871,7.8425,7.8276,7.8276,7.8276,7.8276,7.8276,7.8276,7.8276,7.7905,7.7385,7.7551,7.7253,7.5936,7.5915,7.5209,7.3372,7.2146,7.0735,6.9211,6.9026,6.9211,6.8654,6.858,6.8543,6.8543,6.8543,6.8543,6.8543,6.8543,6.8543,6.8543,6.8543,6.8543,6.8543,6.8543,6.8543,6.8543,6.8543,6.8506,6.8468,6.8468,6.8468,6.8468,6.8506,6.8543,6.8543,6.8543,6.8543,6.8766,6.8989,6.8803,6.8543,6.8865,6.9162,6.8828,6.8556,6.9001,8.9467,8.8329,8.8053,8.7467,8.7043,8.8452,8.9142,8.9449,9.0943,9.1803,9.1803,9.1803,9.1803,9.1803,9.1803,9.1803,9.1803,9.1803,9.1803,9.1657,9.0959,8.9895,8.8904,8.8426,8.8353,8.8683,8.8998,8.9256,8.9408,8.8704,8.8386,8.7888,8.6261,8.4966,8.4364,8.4411,8.3891,8.3358,8.3507,8.341,8.1839,8.1015,8.0681,8.0856,8.0655,8.1238,8.2092,8.2186,8.1562,8.0498,7.9837,7.9559,7.9459,7.9482,7.9327,7.8908,7.9242,7.9131,7.8499,7.8276,7.8276,7.8276,7.8276,7.8276,7.8276,7.8276,7.7942,7.7273,7.7273,7.6567,7.5676,7.549,7.4673,7.3112,7.2295,7.1255,6.9694,6.9657,6.9509,6.91,6.8729,6.8543,6.8543,6.8543,6.8543,6.8543,6.8543,6.8543,6.8543,6.8543,6.8543,6.8543,6.8543,6.8543,6.8543,6.8543,6.8543,6.8506,6.8506,6.8543,6.8543,6.8543,6.858,6.858,6.8543,6.858,6.8766,6.8877,6.8729,6.868,6.9088,6.915,6.889,6.8853,6.9261,9.0398,8.964,8.8881,8.8122,8.7596,8.8573,8.9142,8.9449,9.1057,9.1803,9.1803,9.1803,9.1803,9.1803,9.1803,9.1803,9.1803,9.1803,9.1803,9.1546,9.0996,9.0225,8.9821,8.905,8.9087,8.9454,8.9915,8.9956,8.9889,8.9915,8.9629,8.8911,8.7537,8.6382,8.5656,8.6029,8.5249,8.3965,8.484,8.4556,8.3066,8.2643,8.2536,8.2287,8.2241,8.2281,8.2421,8.226,8.1819,8.1158,8.1085,8.0688,8.0308,8.0332,8.0104,7.9743,7.9651,7.9354,7.8573,7.8425,7.8276,7.8276,7.8276,7.8276,7.8276,7.8276,7.8016,7.7422,7.653,7.6047,7.5044,7.4153,7.341,7.2778,7.3001,7.2555,7.1441,7.0363,6.9843,6.9732,6.9063,6.8617,6.8617,6.858,6.8543,6.8543,6.8543,6.8543,6.8543,6.8543,6.8543,6.8543,6.8543,6.8543,6.8543,6.8543,6.8543,6.8506,6.8506,6.8543,6.8543,6.8543,6.8617,6.8654,6.8691,6.8617,6.858,6.858,6.858,6.8617,6.8791,6.9014,6.9199,6.9298,6.9632,9.0364,8.964,8.8915,8.8157,8.7631,8.8573,8.9106,8.9278,9.102,9.1803,9.1803,9.1803,9.1803,9.1803,9.1803,9.1803,9.1803,9.1803,9.1803,9.1693,9.0959,9.0996,9.0959,9.0372,9.0188,9.0335,9.0407,9.0737,9.0958,9.0223,8.9495,8.9302,8.8481,8.7097,8.6013,8.656,8.5927,8.4682,8.5752,8.593,8.5062,8.487,8.5052,8.5189,8.45,8.3715,8.3111,8.2553,8.215,8.1856,8.1379,8.1166,8.1194,8.1218,8.0992,8.0634,8.0431,8.0097,7.9316,7.8685,7.8276,7.8276,7.8276,7.8276,7.8276,7.8351,7.8239,7.8016,7.783,7.6939,7.549,7.4153,7.3447,7.3187,7.3224,7.3261,7.2704,7.1552,7.0747,7.0388,6.9446,6.8729,6.9298,6.8729,6.8617,6.8543,6.8543,6.8543,6.8543,6.8543,6.8543,6.8543,6.8543,6.8543,6.8543,6.8543,6.8543,6.8543,6.8543,6.8729,6.8729,6.858,6.8617,6.8729,6.884,6.8729,6.8543,6.8543,6.8543,6.8543,6.8543,6.8729,6.8977,6.9335,6.9966,9.0571,9.0123,8.9495,8.8966,8.8802,8.9431,8.9785,9.0032,9.1209,9.1803,9.1803,9.1803,9.1803,9.1803,9.1803,9.1803,9.1803,9.1803,9.1803,9.173,9.1326,9.1436,9.162,9.1436,9.1179,9.1179,9.1252,9.1545,9.1472,9.1105,9.0703,9.044,8.9584,8.8365,8.7109,8.7741,8.7121,8.5892,8.7249,8.7847,8.6521,8.7017,8.729,8.734,8.6383,8.549,8.5123,8.3544,8.3141,8.292,8.2251,8.1781,8.2006,8.2055,8.1867,8.1413,8.1285,8.0654,7.9725,7.9094,7.8685,7.8313,7.8313,7.8276,7.8425,7.8611,7.8611,7.8388,7.809,7.7496,7.5527,7.4673,7.3892,7.3447,7.3372,7.3372,7.3187,7.2258,7.1478,7.1206,7.0115,6.9558,6.9335,6.8989,6.8617,6.8543,6.8543,6.8543,6.8543,6.8543,6.8543,6.8543,6.8543,6.8543,6.8543,6.8543,6.8543,6.8543,6.8543,6.8877,6.9174,6.8914,6.8654,6.8766,6.8914,6.8691,6.8543,6.8543,6.858,6.8543,6.8543,6.8543,6.8877,6.9645,7.0239,9.064,9.0607,8.996,8.9652,8.9918,9.0058,9.0312,9.0552,9.1397,9.1803,9.1803,9.1803,9.1803,9.1803,9.1803,9.1803,9.1803,9.1803,9.1803,9.1767,9.173,9.1693,9.1767,9.173,9.1657,9.1803,9.1875,9.1912,9.1839,9.1912,9.1582,9.1583,9.1097,8.9827,8.8978,8.9473,8.8981,8.7076,8.8793,8.9532,8.8211,8.8947,8.9311,8.8649,8.7842,8.7105,8.6407,8.5013,8.3948,8.4315,8.3263,8.2729,8.2696,8.2806,8.2705,8.2177,8.1991,8.1174,8.0097,7.9539,7.9131,7.8499,7.8313,7.8425,7.8611,7.8796,7.8722,7.8425,7.8016,7.7162,7.5118,7.4561,7.4153,7.3632,7.3372,7.3372,7.3261,7.2741,7.2444,7.2146,7.0958,7.0103,6.9744,6.9409,6.8914,6.8543,6.8543,6.8543,6.8543,6.8543,6.8543,6.8543,6.8543,6.8543,6.8543,6.8543,6.8543,6.8543,6.8543,6.8877,6.9286,6.8951,6.8654,6.884,6.8914,6.8766,6.8729,6.884,6.8803,6.8617,6.858,6.8617,6.9174,6.9992,7.0549,8.9881,8.9778,8.8429,8.8335,8.8991,8.9288,8.9868,9.0552,9.1472,9.1803,9.1803,9.1803,9.1803,9.1803,9.1803,9.1803,9.1803,9.1803,9.1803,9.1803,9.1803,9.1803,9.1803,9.1803,9.1803,9.1803,9.1876,9.1876,9.1803,9.1803,9.1876,9.1767,9.162,9.0883,9.0258,9.0411,9.0043,8.8611,8.9862,9.0227,9.0045,9.0411,9.0812,9.0005,8.9197,8.8353,8.7215,8.604,8.4866,8.3765,8.365,8.3298,8.2954,8.2954,8.2987,8.2787,8.2363,8.162,8.0654,7.9948,7.9539,7.9168,7.8833,7.8759,7.8982,7.8908,7.8759,7.8351,7.7756,7.6865,7.5733,7.5118,7.4264,7.367,7.341,7.3372,7.3335,7.3224,7.3038,7.2889,7.1738,7.0698,7.04,6.9967,6.9249,6.884,6.8617,6.858,6.8543,6.8543,6.8543,6.8543,6.8543,6.8543,6.8543,6.8543,6.8543,6.8543,6.8543,6.8617,6.884,6.8691,6.8654,6.9249,6.9323,6.9174,6.9174,6.9174,6.9063,6.8914,6.8803,6.8766,6.9472,7.0252,7.1106,8.9742,8.9727,8.9127,8.935,9.0157,9.0439,9.071,9.1209,9.162,9.1803,9.1803,9.1803,9.1803,9.1803,9.1803,9.1803,9.1803,9.1803,9.1803,9.1803,9.1803,9.1803,9.1803,9.1803,9.1803,9.1803,9.1803,9.1803,9.1803,9.1803,9.1803,9.1803,9.1803,9.14,9.0847,9.0923,9.0447,8.9971,9.0521,9.0996,9.0665,9.1069,9.1033,9.0959,9.0115,8.9271,8.8793,8.7105,8.6114,8.5374,8.4829,8.411,8.3645,8.3497,8.3529,8.3217,8.2809,8.2214,8.1508,8.0951,8.0654,8.0134,7.9688,7.9465,7.9558,7.9484,7.9187,7.8796,7.8202,7.7422,7.6587,7.5713,7.4896,7.4153,7.367,7.341,7.3372,7.3372,7.3372,7.3335,7.2332,7.1552,7.1329,7.066,6.9732,6.9174,6.8803,6.8729,6.8729,6.8766,6.8877,6.8766,6.8803,6.8691,6.8654,6.858,6.8543,6.8543,6.8691,6.8766,6.8989,6.91,6.9546,7.0177,7.0066,6.9806,6.9546,6.9509,6.936,6.9286,6.9323,6.9434,6.988,7.0549,7.1478,8.9356,8.945,8.9639,9.0294,9.1026,9.1425,9.162,9.1803,9.1803,9.1803,9.1803,9.1803,9.1803,9.1803,9.1803,9.1803,9.1803,9.1803,9.1803,9.1803,9.1803,9.1803,9.1803,9.1803,9.1803,9.1803,9.1803,9.1803,9.1803,9.1803,9.1803,9.1803,9.1803,9.1546,9.1097,9.14,9.0735,9.0698,9.0958,9.14,9.0996,9.0739,9.0886,9.14,9.0188,8.9638,8.9381,8.8169,8.7031,8.6434,8.5787,8.4986,8.441,8.4299,8.4072,8.3552,8.3292,8.2734,8.2177,8.1917,8.1471,8.0988,8.0785,8.0376,7.993,7.9781,7.9726,7.9279,7.8722,7.7905,7.7033,7.6253,7.5453,7.4635,7.3855,7.3372,7.3372,7.3372,7.3372,7.3149,7.2666,7.2295,7.1923,7.1589,7.0698,7.0103,6.9732,6.962,6.9583,6.9472,6.9472,6.9249,6.9137,6.8989,6.884,6.8617,6.858,6.8543,6.8877,6.9174,6.9509,6.9756,7.0363,7.0809,7.0883,7.0623,7.0289,7.0066,7.0252,7.0252,7.0066,7.0215,7.0809,7.1292,7.1947,8.7706,8.7769,8.8005,8.8542,8.9592,9.0429,9.1133,9.1803,9.1803,9.1803,9.1803,9.1803,9.1803,9.1803,9.1803,9.1803,9.1803,9.1803,9.1803,9.1803,9.1803,9.1803,9.1803,9.1803,9.1803,9.1803,9.1803,9.1803,9.1803,9.1803,9.1803,9.1803,9.1803,9.1694,9.1546,9.1694,9.1657,9.151,9.1657,9.173,9.151,9.0959,9.0739,9.0555,8.9968,8.9197,8.8867,8.8059,8.7541,8.6391,8.6259,8.5826,8.5275,8.4619,8.4443,8.4072,8.3589,8.2846,8.2251,8.214,8.2103,8.1694,8.1268,8.0785,8.019,7.9298,7.8778,7.8499,7.8313,7.8053,7.7292,7.6364,7.5527,7.4784,7.4153,7.367,7.3484,7.3372,7.3372,7.3372,7.3001,7.2666,7.2332,7.2035,7.1701,7.1143,7.066,7.0549,7.04,7.0177,7.014,6.9955,6.9806,6.962,6.9546,6.9249,6.9063,6.8877,6.9211,6.9694,7.0165,7.061,7.0809,7.118,7.1403,7.1552,7.1255,7.1218,7.1329,7.1143,7.0846,7.1268,7.19,7.2258,7.2541,8.785,8.8346,8.8487,8.9364,9.0631,9.1057,9.1472,9.1694,9.1803,9.1803,9.1803,9.1803,9.1803,9.1803,9.1803,9.1803,9.1803,9.1803,9.1803,9.1803,9.1803,9.1803,9.1803,9.1803,9.1803,9.1803,9.1803,9.1803,9.1803,9.1803,9.1803,9.1803,9.1803,9.1803,9.1803,9.1803,9.1803,9.1767,9.1803,9.1803,9.1583,9.1069,9.0592,9.0555,8.9821,8.8977,8.8353,8.8169,8.7762,8.6936,8.6951,8.6676,8.6238,8.5807,8.5632,8.5,8.4332,8.3552,8.2846,8.2697,8.2623,8.2437,8.1863,8.1083,8.0153,7.9075,7.8276,7.8313,7.8313,7.809,7.7756,7.7013,7.653,7.5787,7.4747,7.4301,7.3967,7.3484,7.3372,7.3372,7.3372,7.3075,7.2778,7.2406,7.2184,7.1849,7.1329,7.0995,7.0846,7.066,7.066,7.0698,7.0549,7.04,7.0363,7.0215,7.0153,7.0004,7.0103,7.0586,7.113,7.1501,7.1701,7.2035,7.2518,7.2518,7.2258,7.2035,7.1923,7.1826,7.164,7.2011,7.242,7.2741,7.3112,8.8255,8.9106,8.9364,9.0195,9.1472,9.1694,9.1803,9.1803,9.1803,9.1803,9.1803,9.1803,9.1803,9.1803,9.1803,9.1803,9.1803,9.1803,9.1803,9.1803,9.1803,9.1803,9.1803,9.1803,9.1803,9.1803,9.1803,9.1803,9.1803,9.1803,9.1803,9.1803,9.1803,9.1803,9.1803,9.1803,9.1803,9.1803,9.1803,9.1803,9.1657,9.1033,9.0555,9.0115,8.9528,8.872,8.8023,8.7876,8.7541,8.7446,8.7357,8.7221,8.7005,8.6685,8.6412,8.5818,8.5149,8.4332,8.3663,8.3292,8.3217,8.2883,8.2177,8.1008,8.0079,7.9001,7.8276,7.8276,7.8276,7.8276,7.8128,7.7533,7.705,7.6456,7.5713,7.5267,7.4821,7.4413,7.4041,7.3892,7.3855,7.3595,7.3224,7.2815,7.2555,7.2444,7.2035,7.1589,7.1478,7.1403,7.1589,7.1738,7.1403,7.1255,7.118,7.1106,7.1132,7.1095,7.1156,7.1329,7.1798,7.2244,7.2555,7.3001,7.3372,7.3224,7.2815,7.2629,7.2481,7.2495,7.2495,7.2495,7.2741,7.3112,7.3595,8.8219,8.9192,9.0069,9.0473,9.0746,9.1472,9.1803,9.1803,9.1803,9.1803,9.1803,9.1803,9.1803,9.1803,9.1803,9.1803,9.1803,9.1803,9.1803,9.1803,9.1803,9.1803,9.1803,9.1803,9.1803,9.1803,9.1803,9.1803,9.1803,9.1803,9.1803,9.1803,9.1803,9.1803,9.1803,9.1803,9.1803,9.1803,9.1803,9.1803,9.162,9.1069,9.0408,8.9638,8.8793,8.7949,8.7178,8.7325,8.7353,8.7468,8.7497,8.7693,8.7587,8.7304,8.6895,8.6635,8.5966,8.5223,8.4629,8.3812,8.3254,8.2771,8.1954,8.1008,8.0413,7.9149,7.8462,7.8462,7.8536,7.8388,7.8128,7.7682,7.7385,7.705,7.653,7.601,7.5676,7.5453,7.5081,7.4673,7.4338,7.4041,7.367,7.3261,7.3001,7.2889,7.2889,7.2444,7.2629,7.2629,7.2815,7.2815,7.2369,7.2146,7.1998,7.1937,7.1751,7.1788,7.1886,7.2035,7.2244,7.2689,7.3112,7.3224,7.3372,7.3372,7.3372,7.3112,7.3001,7.3224,7.3261,7.3038,7.2964,7.3261,7.3855,8.8255,8.9192,9.0114,9.0788,9.1322,9.162,9.1803,9.1803,9.1803,9.1803,9.1767,9.1803,9.1803,9.1767,9.1803,9.1803,9.1803,9.1803,9.1803,9.1803,9.1803,9.1803,9.1803,9.1803,9.1803,9.1803,9.1803,9.1803,9.1803,9.1803,9.1803,9.1803,9.1803,9.1803,9.1803,9.1803,9.1803,9.1803,9.1803,9.1803,9.173,9.1546,9.0959,9.0152,8.9968,8.8977,8.8023,8.7802,8.7642,8.7579,8.7497,8.773,8.8021,8.7675,8.7564,8.7452,8.6747,8.6189,8.5595,8.4592,8.3552,8.2474,8.1806,8.1248,8.0897,7.9985,7.9521,7.9298,7.8964,7.8722,7.8239,7.8016,7.783,7.7645,7.7273,7.6753,7.6493,7.6307,7.5936,7.549,7.4896,7.4413,7.4041,7.367,7.3484,7.3335,7.3372,7.3372,7.3372,7.3447,7.3447,7.3484,7.3038,7.2964,7.2852,7.2629,7.2406,7.2518,7.2666,7.2927,7.306,7.3001,7.3335,7.3372,7.3521,7.367,7.367,7.3447,7.3447,7.3595,7.3521,7.3335,7.3335,7.3521,7.419,8.8219,8.9192,9.015,9.098,9.173,9.1803,9.1803,9.1803,9.1803,9.162,9.1473,9.1657,9.1473,9.1326,9.1657,9.1546,9.1546,9.162,9.1767,9.1803,9.1803,9.1803,9.1803,9.1803,9.1803,9.1803,9.1803,9.1803,9.1803,9.1803,9.1803,9.1803,9.1803,9.1803,9.1803,9.1803,9.1803,9.1803,9.1803,9.1803,9.1803,9.173,9.1363,9.0592,9.0225,8.9417,8.8316,8.7802,8.7605,8.7512,8.7563,8.773,8.7958,8.8084,8.8084,8.7861,8.7564,8.7081,8.6449,8.5298,8.3812,8.2771,8.2103,8.1657,8.1211,8.0691,7.9725,7.9465,7.9242,7.8945,7.8351,7.8202,7.8165,7.7979,7.783,7.7422,7.731,7.7162,7.6716,7.6233,7.575,7.5378,7.4911,7.4577,7.4019,7.3759,7.341,7.341,7.3372,7.3447,7.3595,7.3595,7.3521,7.3558,7.367,7.3298,7.3038,7.3536,7.3684,7.393,7.4041,7.393,7.4041,7.445,7.4487,7.419,7.4227,7.445,7.419,7.3892,7.3855,7.3892,7.4227,7.4487,7.4933,8.8219,8.9192,9.015,9.098,9.1803,9.1803,9.1767,9.1657,9.1657,9.1289,9.0812,9.1363,9.0922,9.0298,9.1143,9.14,9.1069,9.1473,9.1803,9.1803,9.1803,9.1803,9.1803,9.1803,9.1803,9.1803,9.1803,9.1803,9.1803,9.1803,9.1803,9.1803,9.1803,9.1803,9.1803,9.1803,9.1803,9.1803,9.1803,9.1803,9.1803,9.1803,9.1363,9.0886,9.0372,8.9638,8.8867,8.8023,8.7757,8.7697,8.7571,8.773,8.8021,8.8084,8.8084,8.8047,8.8047,8.7601,8.6784,8.5261,8.422,8.3292,8.266,8.2103,8.1657,8.084,8.0059,8.0171,7.9354,7.8722,7.8425,7.8313,7.8313,7.8239,7.809,7.8016,7.7905,7.783,7.7347,7.7013,7.6939,7.6716,7.6101,7.5522,7.4778,7.4168,7.3647,7.3447,7.3558,7.3855,7.4153,7.4041,7.4078,7.4338,7.4375,7.3892,7.3744,7.4279,7.4614,7.4784,7.5044,7.5081,7.5267,7.5527,7.5341,7.497,7.5304,7.5713,7.5341,7.5007,7.4635,7.4673,7.5044,7.5378,7.5676,8.8255,8.9192,9.0114,9.098,9.173,9.1803,9.151,9.1069,9.0959,9.0555,9.0225,9.1179,9.0922,9.0335,9.0812,9.1326,9.0849,9.14,9.1803,9.1803,9.1803,9.1803,9.1803,9.1803,9.1803,9.1803,9.1803,9.1803,9.1803,9.1803,9.1803,9.1803,9.1803,9.1803,9.1803,9.1803,9.1803,9.1803,9.1803,9.1803,9.1803,9.1767,9.1657,9.1326,9.0996,9.0408,8.9638,8.8793,8.8345,8.8102,8.7837,8.7702,8.7895,8.8021,8.8084,8.8084,8.8084,8.7675,8.7007,8.6078,8.5372,8.4295,8.3292,8.2809,8.2586,8.2363,8.1768,8.1025,8.0171,7.9614,7.9261,7.8629,7.8388,7.8313,7.8202,7.8202,7.8165,7.8165,7.7979,7.7719,7.757,7.6902,7.6324,7.6324,7.5766,7.5506,7.5081,7.445,7.4375,7.4784,7.5118,7.4821,7.4784,7.5081,7.5118,7.471,7.4741,7.5202,7.5447,7.5436,7.5696,7.6121,7.601,7.6047,7.5899,7.5824,7.6121,7.6382,7.651,7.6287,7.5915,7.5601,7.5824,7.5919,7.5993,8.8219,8.9106,8.9785,9.071,9.1694,9.1803,9.1363,9.0629,9.0298,8.9748,8.9417,9.0372,9.0041,8.9491,9.0372,9.0959,9.0372,9.1326,9.1803,9.1803,9.1803,9.1803,9.1803,9.1803,9.1803,9.1803,9.1803,9.1803,9.1803,9.1803,9.1803,9.1803,9.1803,9.1803,9.1803,9.1803,9.1803,9.1803,9.1803,9.1803,9.1803,9.1803,9.1803,9.1657,9.14,9.1033,9.0482,8.9821,8.9121,8.8593,8.8206,8.7821,8.7942,8.7958,8.8084,8.8084,8.8047,8.7787,8.7415,8.6821,8.6115,8.5409,8.4257,8.3514,8.318,8.266,8.2326,8.1768,8.1248,8.0617,7.993,7.9131,7.8982,7.8945,7.8722,7.8759,7.8759,7.8796,7.8796,7.8499,7.8239,7.7459,7.6753,7.6865,7.6882,7.6753,7.6642,7.5936,7.5267,7.5601,7.5936,7.575,7.5527,7.575,7.5861,7.5676,7.5819,7.62,7.6282,7.6253,7.6736,7.7162,7.6827,7.6642,7.6827,7.6976,7.6939,7.705,7.7253,7.7291,7.7142,7.6865,7.6661,7.6587,7.655,8.831,8.9019,8.9106,9.0159,9.162,9.162,9.1143,9.0445,8.9674,8.8904,8.828,8.9124,8.883,8.7876,8.9528,9.0152,8.9931,9.1069,9.1583,9.1767,9.1803,9.1803,9.1803,9.1803,9.1803,9.1803,9.1803,9.1803,9.1803,9.1803,9.1803,9.1803,9.1803,9.1803,9.1803,9.1803,9.1803,9.1803,9.1803,9.1803,9.1803,9.1803,9.1803,9.1657,9.1326,9.1069,9.0592,9.0078,8.9305,8.8888,8.8582,8.8265,8.8127,8.8058,8.8084,8.8084,8.8084,8.801,8.7861,8.7267,8.6895,8.6264,8.5335,8.4295,8.3403,8.2883,8.2511,8.214,8.1525,8.1174,8.0654,8.0394,8.0114,7.9911,7.9576,7.9539,7.9539,7.9539,7.9539,7.9428,7.9279,7.8722,7.7979,7.7868,7.7533,7.7608,7.7459,7.7125,7.653,7.627,7.6567,7.6679,7.6493,7.6456,7.6493,7.6567,7.6733,7.7064,7.7122,7.7199,7.7719,7.7979,7.7682,7.757,7.8016,7.8053,7.7719,7.7756,7.8016,7.8016,7.7811,7.7719,7.7459,7.731,7.731,8.8845,8.9121,8.9256,9.0243,9.151,9.0592,8.9638,8.8904,8.861,8.8096,8.7435,8.883,8.8353,8.7288,8.894,8.9454,8.9895,9.0445,9.1216,9.1583,9.1803,9.1803,9.1803,9.1803,9.1803,9.1803,9.1803,9.1694,9.1803,9.1803,9.1803,9.1803,9.1803,9.1803,9.1803,9.1803,9.1803,9.1803,9.1803,9.1803,9.1803,9.1803,9.1803,9.1657,9.1546,9.1326,9.1143,9.0665,8.9966,8.9514,8.8951,8.8524,8.7905,8.7958,8.8084,8.8084,8.8084,8.8084,8.8047,8.7861,8.749,8.7007,8.6264,8.5409,8.4332,8.3403,8.2883,8.2474,8.2081,8.171,8.145,8.1265,8.0931,8.0596,8.0394,8.0394,8.0357,8.0357,8.032,8.0022,7.9911,7.9056,7.8425,7.8239,7.7979,7.8202,7.8165,7.7868,7.7608,7.7273,7.7125,7.7236,7.7347,7.7273,7.7533,7.7645,7.7774,7.7885,7.7848,7.7793,7.8016,7.8165,7.8276,7.8276,7.8276,7.8276,7.8202,7.8276,7.8276,7.8276,7.8128,7.8202,7.8239,7.7942,7.7793,8.8464,8.8192,8.8229,8.8722,8.9153,8.902,8.8463,8.7839,8.7729,8.7399,8.7142,8.7986,8.7912,8.7399,8.8647,8.9454,8.9564,9.0665,9.1436,9.1657,9.1803,9.1803,9.1803,9.1546,9.1472,9.1546,9.1546,9.136,9.162,9.173,9.173,9.1285,9.1546,9.1803,9.1803,9.1803,9.1803,9.1803,9.1803,9.1803,9.1803,9.1803,9.1803,9.1803,9.1803,9.1803,9.1767,9.1216,9.0737,9.0217,8.9657,8.9159,8.8433,8.8218,8.8121,8.8084,8.8084,8.8084,8.8084,8.8084,8.775,8.7378,8.6969,8.6078,8.5149,8.4183,8.3589,8.3106,8.2713,8.2416,8.2267,8.1986,8.1636,8.1228,8.1248,8.1211,8.1211,8.1211,8.0914,8.0542,7.9874,7.8945,7.8499,7.8388,7.8276,7.8276,7.8276,7.8202,7.8053,7.7942,7.7756,7.7756,7.7942,7.809,7.8276,7.8276,7.8257,7.8146,7.8183,7.8165,7.8276,7.8276,7.8276,7.8276,7.8276,7.8276,7.8276,7.8276,7.8276,7.8276,7.8276,7.8276,7.8276,7.8202,7.8128,8.7308,8.6787,8.6847,8.6619,8.5785,8.7449,8.7802,8.7068,8.7105,8.7031,8.7031,8.7068,8.7142,8.7252,8.8316,8.8977,8.9454,9.0445,9.1143,9.1693,9.1803,9.1803,9.1546,9.1133,9.1285,9.1285,9.1133,9.098,9.1472,9.1546,9.1209,9.0668,9.1397,9.1803,9.1803,9.1803,9.1803,9.1803,9.1803,9.1803,9.1803,9.1803,9.1803,9.1803,9.1803,9.1803,9.1803,9.1657,9.1436,9.0992,9.0512,9.002,8.9321,8.871,8.8567,8.8307,8.8381,8.8195,8.8158,8.8084,8.8084,8.775,8.7341,8.6486,8.5595,8.4629,8.396,8.3329,8.2957,8.2883,8.2713,8.2638,8.2437,8.2177,8.2103,8.2066,8.2066,8.1991,8.1731,8.1248,8.058,7.9688,7.9131,7.9056,7.8815,7.8536,7.8313,7.8313,7.8351,7.8351,7.8276,7.8165,7.8202,7.8276,7.8276,7.8276,7.8276,7.8276,7.8276,7.8276,7.8276,7.8276,7.8276,7.8276,7.8276,7.8276,7.8276,7.8276,7.8276,7.8276,7.8276,7.8276,7.8313,7.8313,7.8276,8.6328,8.6883,8.816,8.7208,8.5186,8.7194,8.7729,8.7031,8.7031,8.6995,8.7031,8.6995,8.6958,8.7068,8.7545,8.8133,8.8904,8.9931,9.0335,9.1069,9.1546,9.1803,9.1803,9.1397,9.1209,9.0825,9.0631,9.0552,9.071,9.0866,9.1133,9.136,9.1767,9.1803,9.1803,9.1803,9.1803,9.1803,9.1803,9.1803,9.1803,9.1803,9.1803,9.1803,9.1803,9.1803,9.1803,9.1767,9.1398,9.099,9.0909,9.0483,8.9952,8.9904,8.957,8.9161,8.879,8.8493,8.8233,8.8084,8.8084,8.8084,8.7638,8.6821,8.5929,8.4963,8.4146,8.3552,8.318,8.318,8.3217,8.3217,8.318,8.3032,8.2846,8.2846,8.2846,8.2623,8.24,8.188,8.1248,8.0617,7.9985,7.967,7.9335,7.8964,7.8462,7.8313,7.8425,7.8462,7.8425,7.8351,7.8239,7.8276,7.8276,7.8276,7.8276,7.8276,7.8276,7.8276,7.8313,7.8276,7.8276,7.8276,7.8276,7.8276,7.8276,7.8276,7.8276,7.8425,7.8313,7.8351,7.8388,7.8388,7.8351,8.5005,8.5344,8.6996,8.6448,8.506,8.6757,8.7399,8.7068,8.7031,8.6811,8.6591,8.6811,8.6848,8.6775,8.7178,8.7839,8.8647,8.9601,9.0555,9.1216,9.1436,9.1693,9.173,9.1472,9.098,9.0552,9.0032,8.9868,8.9986,9.0393,9.0902,9.1285,9.1546,9.1803,9.1803,9.1803,9.1803,9.1803,9.1803,9.1803,9.1803,9.1803,9.1803,9.1803,9.1803,9.1803,9.1803,9.1803,9.1619,9.1321,9.1167,9.0668,9.0156,8.9803,8.9459,8.8938,8.8604,8.8567,8.827,8.8121,8.8121,8.8084,8.7638,8.6672,8.5929,8.5,8.4332,8.3737,8.3254,8.318,8.3514,8.3589,8.3663,8.3626,8.3254,8.3032,8.2846,8.2549,8.2326,8.1991,8.136,8.0822,8.0339,8.0284,7.9986,7.9893,7.9316,7.9131,7.9094,7.8796,7.8722,7.8611,7.8573,7.8388,7.8276,7.8276,7.8276,7.8276,7.8313,7.8351,7.8388,7.8351,7.8276,7.8388,7.8388,7.8276,7.8276,7.8276,7.8648,7.8945,7.8685,7.8425,7.8462,7.8536,7.8425,8.3206,8.291,8.4514,8.4901,8.4461,8.5662,8.6493,8.6705,8.6563,8.6119,8.5637,8.6407,8.6334,8.6554,8.7288,8.8243,8.9087,8.9638,9.0629,9.1143,9.162,9.173,9.1546,9.1133,9.071,8.9868,8.9106,8.9106,8.9278,8.9785,9.0312,9.071,9.1209,9.1803,9.1803,9.1803,9.1803,9.1803,9.1803,9.1803,9.1803,9.1803,9.1803,9.1803,9.1803,9.1803,9.1803,9.1803,9.1803,9.1728,9.1536,9.1222,9.0757,9.0332,8.983,8.9347,8.879,8.8604,8.8307,8.8195,8.8121,8.7935,8.7267,8.6672,8.5966,8.5409,8.474,8.422,8.3737,8.3626,8.396,8.4035,8.4109,8.4109,8.37,8.3403,8.3106,8.2809,8.2549,8.2288,8.1731,8.1194,8.1045,8.101,8.0805,8.0674,8.0468,8.0431,8.0208,7.9762,7.9465,7.9242,7.9094,7.8833,7.8425,7.8351,7.8388,7.8425,7.8462,7.8499,7.8573,7.8759,7.8759,7.8573,7.8536,7.8425,7.8313,7.8276,7.8759,7.9168,7.8777,7.848,7.8833,7.8833,7.8536,8.0328,8.0338,8.2099,8.3021,8.3406,8.3301,8.4135,8.5614,8.4644,8.3986,8.4395,8.538,8.5857,8.582,8.6738,8.7582,8.8169,8.9124,8.9564,8.9895,9.1179,9.162,9.1546,9.1057,9.0552,8.9449,8.8219,8.7981,8.8845,8.9364,9.0195,9.1472,9.1546,9.1803,9.1803,9.1803,9.1803,9.1803,9.1803,9.1803,9.1803,9.1803,9.1803,9.1803,9.1803,9.1803,9.1803,9.1803,9.1803,9.1875,9.1978,9.1855,9.1542,9.1083,9.0657,8.9867,8.931,8.8864,8.8704,8.827,8.8158,8.8084,8.7527,8.7192,8.6709,8.6412,8.5781,8.5261,8.4889,8.474,8.4889,8.4518,8.448,8.4406,8.4146,8.4146,8.3997,8.3812,8.3589,8.3217,8.2771,8.2474,8.24,8.2161,8.1752,8.145,8.0984,8.0968,8.0988,8.0617,8.0208,7.9985,7.9762,7.8982,7.8462,7.8499,7.8499,7.8573,7.8833,7.9205,7.9465,7.9465,7.9391,7.9279,7.8833,7.8536,7.8462,7.8536,7.8536,7.8871,7.861,7.8479,7.8963,7.9131,7.8796]},{"header":{"parameterUnit":"m.s-1","parameterCategory":1,"la1":31.0,"la2":29.5877,"lo1":-88.7671,"lo2":-86.6584,"dy":0.0162,"dx":0.0185,"nx":115,"ny":88,"refTime":"2023-03-18T12:00:00:Z","depth":0,"parameterNumber":3,"parameterNumberName":"V-component_of_WINDS"},"data":[0.0,0.0,0.0,0.0,0.0,0.0,0.0,0.0,0.0,0.0,0.0,0.0,0.0,0.0,0.0,0.0,0.0,0.0,0.0,0.0,0.0,0.0,0.0,0.0,0.0,0.0,0.0,0.0,0.0,0.0,0.0,0.0,0.0,0.0,0.0,0.0,0.0,0.0,0.0,0.0,0.0,0.0,0.0,0.0,0.0,0.0,0.0,0.0,0.0,0.0,0.0,0.0,0.0,0.0,0.0,0.0,0.0,0.0,0.0,0.0,0.0,0.0,0.0,0.0,0.0,0.0,0.0,0.0,0.0,0.0,0.0,0.0,0.0,0.0,0.0,0.0,0.0,0.0,0.0,0.0,0.0,0.0,0.0,0.0,0.0,0.0,0.0,0.0,0.0,0.0,0.0,0.0,0.0,0.0,0.0,0.0,0.0,0.0,0.0,0.0,0.0,0.0,0.0,0.0,0.0,0.0,0.0,0.0,0.0,0.0,0.0,0.0,0.0,0.0,0.0,0.0,0.0,0.0,0.0,0.0,0.0,0.0,0.0,0.0,0.0,0.0,0.0,0.0,0.0,0.0,0.0,0.0,0.0,0.0,0.0,0.0,0.0,0.0,0.0,0.0,0.0,0.0,0.0,0.0,0.0,0.0,0.0,0.0,0.0,0.0,0.0,0.0,0.0,0.0,0.0,0.0,0.0,0.0,0.0,0.0,0.0,0.0,0.0,0.0,0.0,0.0,0.0,0.0,0.0,0.0,0.0,0.0,0.0,0.0,0.0,0.0,0.0,0.0,0.0,0.0,0.0,0.0,0.0,0.0,0.0,0.0,0.0,0.0,0.0,0.0,0.0,0.0,0.0,0.0,0.0,0.0,0.0,0.0,0.0,0.0,0.0,0.0,0.0,0.0,0.0,0.0,0.0,0.0,0.0,0.0,0.0,0.0,0.0,0.0,0.0,0.0,0.0,0.0,0.0,0.0,0.0,0.0,0.0,0.0,0.0,0.0,0.0,0.0,0.0,0.0,0.0,0.0,0.0,0.0,0.0,0.0,0.0,0.0,0.0,0.0,0.0,0.0,0.0,0.0,0.0,0.0,0.0,0.0,0.0,0.0,0.0,0.0,0.0,0.0,0.0,0.0,0.0,0.0,0.0,0.0,0.0,0.0,0.0,0.0,0.0,0.0,0.0,0.0,0.0,0.0,0.0,0.0,0.0,0.0,0.0,0.0,0.0,0.0,0.0,0.0,0.0,0.0,0.0,0.0,0.0,0.0,0.0,0.0,0.0,0.0,0.0,0.0,0.0,0.0,0.0,0.0,0.0,0.0,0.0,0.0,0.0,0.0,0.0,0.0,0.0,0.0,0.0,0.0,0.0,0.0,0.0,0.0,0.0,0.0,0.0,0.0,0.0,0.0,0.0,0.0,0.0,0.0,0.0,0.0,0.0,0.0,0.0,0.0,0.0,0.0,0.0,0.0,0.0,0.0,0.0,0.0,0.0,0.0,0.0,0.0,0.0,0.0,0.0,0.0,0.0,0.0,0.0,0.0,0.0,0.0,0.0,0.0,0.0,0.0,0.0,0.0,0.0,0.0,0.0,0.0,0.0,0.0,0.0,0.0,0.0,0.0,0.0,0.0,0.0,0.0,0.0,0.0,0.0,0.0,0.0,0.0,0.0,0.0,0.0,0.0,0.0,0.0,0.0,0.0,0.0,0.0,0.0,0.0,0.0,0.0,0.0,0.0,0.0,0.0,0.0,0.0,0.0,0.0,0.0,0.0,0.0,0.0,0.0,0.0,0.0,0.0,0.0,0.0,0.0,0.0,0.0,0.0,0.0,0.0,0.0,0.0,0.0,0.0,0.0,0.0,0.0,0.0,0.0,0.0,0.0,0.0,0.0,0.0,0.0,0.0,0.0,0.0,0.0,0.0,0.0,0.0,0.0,0.0,0.0,0.0,0.0,0.0,0.0,0.0,0.0,0.0,0.0,0.0,0.0,0.0,0.0,0.0,0.0,0.0,0.0,0.0,0.0,0.0,0.0,0.0,0.0,0.0,0.0,0.0,0.0,0.0,0.0,0.0,0.0,0.0,0.0,0.0,0.0,0.0,0.0,0.0,0.0,0.0,0.0,0.0,0.0,0.0,0.0,0.0,0.0,0.0,0.0,0.0,0.0,0.0,0.0,0.0,0.0,0.0,0.0,0.0,0.0,0.0,0.0,0.0,0.0,0.0,0.0,0.0,0.0,0.0,0.0,0.0,0.0,0.0,0.0,0.0,0.0,0.0,0.0,0.0,0.0,0.0,0.0,0.0,0.0,0.0,0.0,0.0,0.0,0.0,0.0,0.0,0.0,0.0,0.0,0.0,0.0,0.0,0.0,0.0,0.0,0.0,0.0,0.0,0.0,0.0,0.0,0.0,0.0,0.0,0.0,0.0,0.0,0.0,0.0,0.0,0.0,0.0,0.0,0.0,0.0,0.0,0.0,0.0,0.0,0.0,0.0,0.0,0.0,0.0,0.0,0.0,0.0,0.0,0.0,0.0,0.0,0.0,0.0,0.0,0.0,0.0,0.0,0.0,0.0,0.0,0.0,0.0,0.0,0.0,0.0,0.0,0.0,0.0,0.0,0.0,0.0,0.0,0.0,0.0,0.0,0.0,0.0,0.0,0.0,0.0,0.0,0.0,0.0,0.0,0.0,0.0,0.0,0.0,0.0,0.0,0.0,0.0,0.0,0.0,0.0,0.0,0.0,0.0,0.0,0.0,0.0,0.0,0.0,0.0,0.0,0.0,0.0,0.0,0.0,0.0,0.0,0.0,0.0,0.0,0.0,0.0,0.0,0.0,0.0,0.0,0.0,0.0,0.0,0.0,0.0,0.0,0.0,0.0,0.0,0.0,0.0,0.0,0.0,0.0,0.0,0.0,0.0,0.0,0.0,0.0,0.0,0.0,0.0,0.0,0.0,0.0,0.0,0.0,0.0,0.0,0.0,0.0,0.0,0.0,0.0,0.0,0.0,0.0,0.0,0.0,0.0,0.0,0.0,0.0,0.0,0.0,0.0,0.0,0.0,0.0,0.0,0.0,0.0,0.0,0.0,0.0,0.0,0.0,0.0,0.0,0.0,0.0,0.0,0.0,0.0,0.0,0.0,0.0,0.0,0.0,0.0,0.0,0.0,0.0,0.0,0.0,0.0,0.0,0.0,0.0,0.0,0.0,0.0,0.0,0.0,0.0,0.0,0.0,0.0,0.0,0.0,0.0,0.0,0.0,0.0,0.0,0.0,0.0,0.0,0.0,0.0,0.0,0.0,0.0,0.0,0.0,0.0,0.0,0.0,0.0,0.0,0.0,0.0,0.0,0.0,0.0,0.0,0.0,0.0,0.0,0.0,0.0,0.0,0.0,0.0,0.0,0.0,0.0,0.0,0.0,0.0,0.0,0.0,0.0,0.0,0.0,0.0,0.0,0.0,0.0,0.0,0.0,0.0,0.0,0.0,0.0,0.0,0.0,0.0,0.0,0.0,0.0,0.0,0.0,0.0,0.0,0.0,0.0,0.0,0.0,0.0,0.0,0.0,0.0,0.0,0.0,0.0,0.0,0.0,0.0,0.0,0.0,0.0,0.0,0.0,0.0,0.0,0.0,0.0,0.0,0.0,0.0,0.0,0.0,0.0,0.0,0.0,0.0,0.0,0.0,0.0,0.0,0.0,0.0,0.0,0.0,0.0,0.0,0.0,0.0,0.0,0.0,0.0,0.0,0.0,0.0,0.0,0.0,0.0,0.0,0.0,0.0,0.0,0.0,0.0,0.0,0.0,0.0,0.0,0.0,0.0,0.0,0.0,0.0,0.0,0.0,0.0,0.0,0.0,0.0,0.0,0.0,0.0,0.0,0.0,0.0,0.0,0.0,0.0,0.0,0.0,0.0,0.0,0.0,0.0,0.0,0.0,0.0,0.0,0.0,0.0,0.0,0.0,0.0,0.0,0.0,0.0,0.0,0.0,0.0,0.0,0.0,0.0,0.0,0.0,0.0,0.0,0.0,0.0,0.0,0.0,0.0,0.0,0.0,0.0,0.0,0.0,0.0,0.0,0.0,0.0,0.0,0.0,0.0,0.0,0.0,0.0,0.0,0.0,0.0,0.0,0.0,0.0,0.0,0.0,0.0,0.0,0.0,0.0,0.0,0.0,0.0,0.0,0.0,0.0,0.0,0.0,0.0,0.0,0.0,0.0,0.0,0.0,0.0,0.0,0.0,0.0,0.0,0.0,0.0,0.0,0.0,0.0,0.0,0.2305,0.0,0.0,0.0,0.0,0.0,0.0,0.0,0.0,0.0,0.0,0.0,0.0,0.0,0.0,0.0,0.0,0.0,0.0,0.0,0.0,0.0,0.0,0.0,0.0,0.0,0.0,0.0,0.0,0.0,0.0,0.0,0.0,0.0,0.0,0.0,0.0,0.0,0.0,0.0,0.0,0.0,0.0,0.0,0.0,0.0,0.0,0.0,0.0,0.0,0.0,0.0,0.0,0.0,0.0,0.0,0.0,0.0,0.0,0.0,0.0,0.0,0.0,0.0,0.0,0.0,0.0,0.0,0.0,0.0,0.0,0.0,0.0,0.0,0.0,0.0,0.0,0.0,0.0,0.0,0.0,0.0,0.0,0.0,0.0,0.0,0.0,0.0,0.0,0.0,0.0,0.0,0.0,0.0,0.0,0.0,0.0,0.0,0.0,0.0,0.0,0.0,0.0,0.0,0.0,0.0,0.0,0.0,0.0,0.0,0.0,0.3836,0.383,0.3862,0.4052,0.4462,0.0,0.0,0.0,0.0,0.0,0.0,0.0,0.0,0.0,0.0,0.0,0.0,0.0,0.0,0.0,0.0,0.0,0.0,0.0,0.0,0.0,0.0,0.0,0.0,0.0,0.0,0.0,0.0,0.0,0.0,0.0,0.0,0.0,0.0,0.0,0.0,0.0,0.0,0.0,0.0,0.0,0.0,0.0,0.0,0.0,0.0,0.0,0.0,0.0,0.0,0.0,0.0,0.0,0.0,0.0,0.0,0.0,0.0,0.0,0.0,0.0,0.0,0.0,0.0,0.0,0.0,0.0,0.0,0.0,0.0,0.0,0.0,0.0,0.0,0.0,0.0,0.0,0.0,0.0,0.0,0.0,0.0,0.0,0.0,0.0,0.0,0.0,0.0,0.0,0.0,0.0,0.0,0.0,0.0,0.0,0.0,0.0,0.0,0.0,0.0,0.0,0.0,0.0,0.0,0.0,0.0,0.0,0.0,0.0,0.0,0.0,0.0,0.5292,0.5609,0.6166,0.0,0.0,0.0,0.0,0.0,0.0,0.0,0.0,0.0,0.0,0.0,0.0,0.0,0.0,0.0,0.0,0.0,0.0,0.0,0.0,0.0,0.0,0.0,0.0,0.0,0.0,0.0,0.0,0.0,0.0,0.0,0.0,0.0,0.0,0.0,0.0,0.0,0.0,0.0,0.0,0.0,0.0,0.0,0.0,0.0,0.0,0.0,0.0,0.0,0.0,0.0,0.0,0.0,0.0,0.0,0.0,0.0,0.0,0.0,0.0,0.0,0.0,0.0,0.0,0.0,0.0,0.0,0.0,0.0,0.0,0.0,0.0,0.0,0.0,0.0,0.0,0.0,0.0,0.0,0.0,0.0,0.0,0.0,0.0,0.0,0.0,0.0,0.0,0.0,0.0,0.0,0.0,0.0,0.0,0.0,0.0,0.0,0.0,0.0,0.0,0.0,0.0,0.0,0.0,0.0,0.0,0.0,0.0,0.0,0.0,0.5728,0.5832,0.6039,0.0,0.6544,0.0,0.0,0.0,0.0,0.0,0.0,0.0,0.0,0.0,0.0,0.0,0.0,0.0,0.0,0.0,0.0,0.0,0.0,0.0,0.0,0.0,0.0,0.0,0.0,0.0,0.0,0.0,0.0,0.0,0.0,0.0,0.0,0.0,0.0,0.0,0.0,0.0,0.0,0.0,0.0,0.0,0.0,0.0,0.0,0.0,0.0,0.0,0.0,0.0,0.0,0.0,0.0,0.0,0.0,0.0,0.0,0.0,0.0,0.0,0.0,0.0,0.0,0.0,0.0,0.0,0.0,0.0,0.0,0.0,0.0,0.0,0.0,0.0,0.0,0.0,0.0,0.0,0.0,0.0,0.0,0.0,0.0,0.0,0.0,0.0,0.0,0.0,0.0,0.0,0.0,0.0,0.0,0.0,0.0,0.0,0.0,0.0,0.0,0.0,0.0,0.0,0.0,0.0,0.0,0.0,0.0,0.0,0.0,0.0,0.0,0.5887,0.6033,0.6356,0.6624,0.0,0.0,0.0,0.0,0.0,0.0,0.0,0.0,0.0,0.0,0.0,0.0,0.0,0.0,0.0,0.0,0.0,0.0,0.0,0.0,0.0,0.0,0.0,0.0,0.0,0.0,0.0,0.0,0.0,0.0,0.0,0.0,0.0,0.0,0.0,0.0,0.0,0.0,0.0,0.0,0.0,0.0,0.0,0.0,0.0,0.0,0.0,0.0,0.0,0.0,0.0,0.0,0.0,0.0,0.0,0.0,0.0,0.0,0.0,0.0,0.0,0.0,0.0,0.0,0.0,0.0,0.0,0.0,0.0,0.0,0.0,0.0,0.0,0.0,0.0,0.0,0.0,0.0,0.0,0.0,0.0,0.0,0.0,0.0,0.0,0.0,0.0,0.0,0.0,0.0,0.0,0.0,0.0,0.0,0.0,0.0,0.0,0.0,0.0,0.0,0.0,0.0,0.0,0.0,0.0,0.0,0.0,0.0,0.0,0.0,0.6139,0.6318,0.6529,0.6763,0.6962,0.7001,0.0,0.0,0.0,0.0,0.0,0.0,0.0,0.0,0.0,0.0,0.0,0.0,0.0,0.0,0.0,0.0,0.0,0.0,0.0,0.0,0.0,0.0,0.0,0.0,0.0,0.0,0.0,0.0,0.0,0.0,0.0,0.0,0.0,0.0,0.0,0.0,0.0,0.0,0.0,0.0,0.0,0.0,0.0,0.0,0.0,0.0,0.0,0.0,0.0,0.0,0.0,0.0,0.0,0.0,0.0,0.0,0.0,0.0,0.0,0.0,0.0,0.0,0.0,0.0,0.0,0.0,0.0,0.0,0.0,0.0,0.0,0.0,0.0,0.0,0.0,0.0,0.0,0.0,0.0,0.0,0.0,0.0,0.0,0.0,0.0,0.0,0.0,0.0,0.0,0.0,0.0,0.0,0.0,0.0,0.0,0.0,0.0,0.0,0.0,0.0,0.0,0.0,0.0,0.0,0.0,0.0,0.0,0.0,0.6767,0.6913,0.7145,0.7443,0.7428,0.7428,0.0,0.0,0.0,0.0,0.0,0.0,0.0,0.0,0.0,0.0,0.0,0.0,0.0,0.0,0.0,0.0,0.0,0.0,0.0,0.0,0.0,0.0,0.0,0.0,0.0,0.0,0.0,0.0,0.0,0.0,0.0,0.0,0.0,0.0,0.0,0.0,0.0,0.0,0.0,0.0,0.0,0.0,0.0,0.0,0.0,0.0,0.0,0.0,0.0,0.0,0.0,0.0,0.0,0.0,0.0,0.0,0.0,0.0,0.0,0.0,0.0,0.0,0.0,0.0,0.0,0.0,0.0,0.0,0.0,0.0,0.0,0.0,0.0,0.0,0.0,0.0,0.0,0.0,0.0,0.0,0.0,0.0,0.0,0.0,0.0,0.0,0.0,0.0,0.0,0.0,0.0,0.0,0.0,0.0,0.0,0.0,0.0,0.0,0.0,0.0,0.0,0.0,0.0,0.0,0.0,0.0,0.0,0.0,0.0,0.6774,0.7221,0.7403,0.7461,0.7584,0.7638,0.0,0.0,0.0,0.0,0.0,0.0,0.0,0.0,0.0,0.0,0.0,0.0,0.0,0.0,0.0,0.0,0.0,0.0,0.0,0.0,0.0,0.0,0.0,0.0,0.0,0.0,0.0,0.0,0.0,0.0,0.0,0.0,0.0,0.0,0.0,0.0,0.0,0.0,0.0,0.0,0.0,0.0,0.0,0.0,0.0,0.0,0.0,0.0,0.0,0.0,0.0,0.0,0.0,0.0,0.0,0.0,0.0,0.0,0.0,0.0,0.0,0.0,0.0,0.0,0.0,0.0,0.0,0.0,0.0,0.0,0.0,0.0,0.0,0.0,0.0,0.0,0.0,0.0,0.0,0.0,0.0,0.0,0.0,0.0,0.0,0.0,0.0,0.0,0.0,0.0,0.0,0.0,0.0,0.0,0.0,0.0,0.0,0.0,0.0,0.0,0.0,0.0,0.0,0.0,0.0,0.0,0.0,0.0,0.0,0.7032,0.0,0.755,0.7455,0.7638,0.7719,0.0,0.0,0.0,0.0,0.0,0.0,0.0,0.0,0.0,0.0,0.0,0.0,0.0,0.0,0.0,0.0,0.0,0.0,0.0,0.0,0.0,0.0,0.0,0.0,0.0,0.0,0.0,0.0,0.0,0.0,0.0,0.0,0.0,0.0,0.0,0.0,0.0,0.0,0.0,0.0,0.0,0.0,0.0,0.0,0.0,0.0,0.0,0.0,0.0,0.0,0.0,0.0,0.0,0.0,0.0,0.0,0.0,0.0,0.0,0.0,0.0,0.0,0.0,0.0,0.0,0.0,0.0,0.0,0.0,0.0,0.0,0.0,0.0,0.0,0.0,0.0,0.0,0.0,0.0,0.0,0.0,0.0,0.0,0.0,0.0,0.0,0.0,0.0,0.0,0.0,0.0,0.0,0.0,0.0,0.0,0.0,0.0,0.0,0.0,0.0,0.0,0.0,0.0,0.0,0.0,0.0,0.0,0.0,0.7292,0.7617,0.7617,0.7638,0.7617,0.7624,0.7678,0.0,0.0,0.0,0.0,0.0,0.0,0.0,0.0,0.0,0.0,0.0,0.0,0.0,0.0,0.0,0.0,0.0,0.0,0.0,0.0,0.0,0.0,0.0,0.0,0.0,0.0,0.0,0.0,0.0,0.0,0.0,0.0,0.0,0.0,0.0,0.0,0.0,0.0,0.0,0.0,0.0,0.0,0.0,0.0,0.0,0.0,0.0,0.0,0.0,0.0,0.0,0.0,0.0,0.0,0.0,0.0,0.0,0.0,0.0,0.0,0.0,0.0,0.0,0.0,0.0,0.0,0.0,0.0,0.0,0.0,0.0,0.0,0.0,0.0,0.0,0.0,0.0,0.0,0.0,0.0,0.0,0.0,0.0,0.0,0.0,0.0,0.0,0.0,0.0,0.0,0.0,0.0,0.0,0.0,0.0,0.0,0.0,0.0,0.0,0.0,0.0,0.0,0.0,0.0,0.0,0.0,0.0,0.0,0.0,0.7727,0.7912,0.816,0.8343,0.7963,0.7909,0.0,0.0,0.0,0.0,0.0,0.0,0.0,0.0,0.0,0.0,0.0,0.0,0.0,0.0,0.0,0.0,0.0,0.0,0.0,0.0,0.0,0.0,0.0,0.0,0.0,0.0,0.0,0.0,0.0,0.0,0.0,0.0,0.0,0.0,0.0,0.0,0.0,0.0,0.0,0.0,0.0,0.0,0.0,0.0,0.0,0.0,0.0,0.0,0.0,0.0,0.0,0.0,0.0,0.0,0.0,0.0,0.0,0.0,0.0,0.0,0.0,0.0,0.0,0.0,0.0,0.0,0.0,0.0,0.0,0.0,0.0,0.0,0.0,0.0,0.0,0.0,0.0,0.0,0.0,0.0,0.0,0.0,0.0,0.0,0.0,0.0,0.0,0.0,0.0,0.0,0.0,0.0,0.0,0.0,0.0,0.0,0.0,0.0,0.0,0.0,0.0,0.0,0.0,0.0,0.0,0.0,0.0,0.0,0.0,0.8335,0.8314,0.8647,0.9154,0.8708,0.8748,0.9322,0.0,0.0,0.0,0.0,0.0,0.0,0.0,0.0,0.0,0.0,0.0,0.0,0.0,0.0,0.0,0.0,0.0,0.0,0.0,0.0,0.0,0.0,0.0,0.0,0.0,0.0,0.0,0.0,0.0,0.0,0.0,0.0,0.0,0.0,0.0,0.0,0.0,0.0,0.0,0.0,0.0,0.0,0.0,0.0,0.0,0.0,0.0,0.0,0.0,0.0,0.0,0.0,0.0,0.0,0.0,0.0,0.0,0.0,0.0,0.0,0.0,0.0,0.0,0.0,0.0,0.0,0.0,0.0,0.0,0.0,0.0,0.0,0.0,0.0,0.0,0.0,0.0,0.0,0.0,0.0,0.0,0.0,0.0,0.0,0.0,0.0,0.0,0.0,0.0,0.0,0.0,0.0,0.0,0.0,0.0,0.0,0.0,0.0,0.0,0.0,0.0,0.0,0.0,0.0,0.0,0.0,0.0,0.0,0.9545,0.9127,0.9169,0.9997,0.9967,1.0262,0.0,0.0,0.0,0.0,0.0,0.0,0.0,0.0,0.0,0.0,0.0,0.0,0.0,0.0,0.0,0.0,0.0,0.0,0.0,0.0,0.0,0.0,0.0,0.0,0.0,0.0,0.0,0.0,0.0,0.0,0.0,0.0,0.0,0.0,0.0,0.0,0.0,0.0,0.0,0.0,0.0,0.0,0.0,0.0,0.0,0.0,0.0,0.0,0.0,0.0,0.0,0.0,0.0,0.0,0.0,0.0,0.0,0.0,0.0,0.0,0.0,0.0,0.0,0.0,0.0,0.0,0.0,0.0,0.0,0.0,0.0,0.0,0.0,0.0,0.0,0.0,0.0,0.0,0.0,0.0,0.0,0.0,0.0,0.0,0.0,0.0,0.0,0.0,0.0,0.0,0.0,0.0,0.0,0.0,0.0,0.0,0.0,0.0,0.0,0.0,0.0,0.0,0.0,0.0,0.0,0.0,0.0,0.0,0.0,1.1864,1.2202,1.2194,1.167,1.188,1.2018,0.0,0.0,0.0,0.0,0.0,0.0,0.0,0.0,0.0,0.0,0.0,0.0,0.0,0.0,0.0,0.0,0.0,0.0,0.0,0.0,0.0,0.0,0.0,0.0,0.0,0.0,0.0,0.0,0.0,0.0,0.0,0.0,0.0,0.0,0.0,0.0,0.0,0.0,0.0,0.0,0.0,0.0,0.0,0.0,0.0,0.0,0.0,0.0,0.0,0.0,0.0,0.0,0.0,0.0,0.0,0.0,0.0,0.0,0.0,0.0,0.0,0.0,0.0,0.0,0.0,0.0,0.0,0.0,0.0,0.0,0.0,0.0,0.0,0.0,0.0,0.0,0.0,0.0,0.0,0.0,0.0,0.0,0.0,0.0,0.0,0.0,0.0,0.0,0.0,0.0,0.0,0.0,0.0,0.0,0.0,0.0,0.0,0.0,0.0,0.0,0.0,0.0,0.0,0.0,0.0,0.0,0.0,0.0,1.1815,1.3248,1.5459,1.6178,1.5229,1.4932,1.4437,0.0,0.0,0.0,0.0,0.0,0.0,0.0,0.0,0.0,0.0,0.0,0.0,0.0,0.0,0.0,0.0,0.0,0.0,0.0,0.0,0.0,0.0,0.0,0.0,0.0,0.0,0.0,0.0,0.0,0.0,0.0,0.0,0.0,0.0,0.0,0.0,0.0,0.0,0.0,0.0,0.0,0.0,0.0,0.0,0.0,0.0,0.0,0.0,0.0,0.0,0.0,0.0,0.0,0.0,0.0,0.0,0.0,0.0,0.0,0.0,0.0,0.0,0.0,0.0,0.0,0.0,0.0,0.0,0.0,0.0,0.0,0.0,0.0,0.0,0.0,0.0,0.0,0.0,0.0,0.0,0.0,0.0,0.0,0.0,0.0,0.0,0.0,0.0,0.0,0.0,0.0,0.0,0.0,0.0,0.0,0.0,0.0,0.0,0.0,0.0,0.0,0.0,0.0,0.0,0.0,0.0,0.0,0.0,1.3498,1.4276,1.8229,2.019,1.9585,1.8407,1.7156,0.0,0.0,0.0,0.0,0.0,0.0,0.0,0.0,0.0,0.0,0.0,0.0,0.0,0.0,0.0,0.0,0.0,0.0,0.0,0.0,0.0,0.0,0.0,0.0,0.0,0.0,0.0,0.0,0.0,0.0,0.0,0.0,0.0,0.0,0.0,0.0,0.0,0.0,0.0,0.0,0.0,0.0,0.0,0.0,0.0,0.0,0.0,0.0,0.0,0.0,0.0,0.0,0.0,0.0,0.0,0.0,0.0,0.0,0.0,0.0,0.0,0.0,0.0,0.0,0.0,0.0,0.0,0.0,0.0,0.0,0.0,0.0,0.0,0.0,0.0,0.0,0.0,0.0,0.0,0.0,0.0,0.0,0.0,0.0,0.0,0.0,0.0,0.0,0.0,0.0,0.0,0.0,0.0,0.0,0.0,0.0,0.0,0.0,0.0,0.0,0.0,0.0,0.0,0.0,0.0,0.0,0.0,0.0,1.4281,1.6616,1.9448,2.148,2.2471,2.032,1.8363,0.0,0.0,0.0,0.0,0.0,0.0,0.0,0.0,0.0,0.0,0.0,0.0,0.0,0.0,0.0,0.0,0.0,0.0,0.0,0.0,0.0,0.0,0.0,0.0,0.0,0.0,0.0,0.0,0.0,0.0,0.0,0.0,0.0,0.0,0.0,0.0,0.0,0.0,0.0,0.0,0.0,0.0,0.0,0.0,0.0,0.0,0.0,0.0,0.4261,0.0,0.0,0.0,0.0,0.0,0.0,0.0,0.0,0.0,0.0,0.0,0.0,0.0,0.0,0.0,0.0,0.0,0.0,0.0,0.0,0.0,0.0,0.0,0.0,0.0,0.0,0.0,0.0,0.0,0.0,0.0,0.0,0.0,0.0,0.0,0.0,0.0,0.0,0.0,0.0,0.0,0.0,0.0,0.0,0.0,0.0,0.0,0.0,0.0,0.0,0.0,0.0,0.0,0.0,0.0,0.0,0.0,0.0,0.0,1.5867,1.7908,2.0873,2.2843,2.3572,2.1607,1.9603,0.0,0.0,0.0,0.0,0.0,0.0,0.0,0.0,0.0,0.0,0.0,0.0,0.0,0.0,0.0,0.0,0.0,0.0,0.0,0.0,0.0,0.0,0.0,0.0,0.0,0.0,0.0,0.0,0.0,0.0,0.0,0.0,0.0,0.0,0.0,0.0,0.0,0.0,0.0,0.0,0.0,0.0,0.0,0.0,0.0,0.0,0.0,0.0,0.0,0.0,0.0,0.0,0.0,0.0,0.0,0.0,0.0,0.0,0.0,0.0,0.0,0.0,0.0,0.0,0.0,0.0,0.0,0.0,0.0,0.0,0.0,0.0,0.0,0.0,0.0,0.0,0.0,0.0,0.0,0.0,0.0,0.0,0.0,0.0,0.0,0.0,0.0,0.0,0.0,0.0,0.0,0.0,0.0,0.0,0.0,0.0,0.0,0.0,0.0,0.0,0.0,0.0,0.0,0.0,0.0,0.0,0.0,1.4764,1.7414,1.8868,2.2452,2.4299,2.4275,2.2549,2.0726,1.8879,0.0,0.0,0.0,0.0,0.0,0.0,0.0,0.0,0.0,0.0,0.0,0.0,0.0,0.0,0.0,0.0,0.0,0.0,0.0,0.0,0.0,0.0,0.0,0.0,0.0,0.0,0.0,0.0,0.0,0.0,0.0,0.0,0.0,0.0,0.0,0.0,0.0,0.0,-0.097,0.3057,0.0,0.0,0.0,0.0,0.0,0.0,0.0,0.0,0.5804,0.0,0.0,0.0,0.0,0.0,0.0,0.0,0.0,0.0,0.0,0.0,0.0,0.0,0.0,0.0,0.0,0.0,0.0,0.0,0.0,0.0,0.0,0.0,0.0,0.0,0.0,0.0,0.0,0.0,0.0,0.0,0.0,0.0,0.0,0.0,0.0,0.0,0.0,0.0,0.0,0.0,0.0,0.0,0.0,0.0,0.0,0.0,0.0,0.0,0.0,0.0,0.0,0.0,0.0,0.0,0.0,1.2824,1.5309,1.8063,2.1167,2.3376,2.4564,2.4516,2.2983,2.1257,1.9398,0.0,0.0,0.0,0.0,0.0,0.0,0.0,0.0,0.0,0.0,0.0,0.0,0.0,0.0,0.0,0.0,0.0,0.0,0.0,0.0,0.0,0.0,0.0,0.0,0.0,0.0,0.0,0.0,0.0,0.0,0.0,0.0,0.0,0.0,0.0,0.0,0.0,0.0,0.0,0.4645,0.6626,0.0,0.0,0.0,0.0,0.0,0.0,0.0,0.0,0.6054,0.0,0.0,0.0,0.0,0.0,0.0,0.0,0.0,0.0,0.0,0.0,0.0,0.0,0.0,0.0,0.0,0.0,0.0,0.0,0.0,0.0,0.0,0.0,0.0,0.0,0.0,0.0,0.0,0.0,0.0,0.0,0.0,0.0,0.0,0.0,0.0,0.0,0.0,0.0,0.0,0.0,0.0,0.0,0.0,0.0,0.0,0.0,0.0,0.0,0.0,0.0,0.0,0.0,0.0,0.0,1.3274,1.5977,1.8741,2.185,2.3855,2.4782,2.4589,2.2693,2.0895,0.0,0.0,0.0,0.0,0.0,0.0,0.0,0.0,0.0,0.0,0.0,0.0,0.0,0.0,0.0,0.0,0.0,0.0,0.0,0.0,0.0,0.0,0.0,0.0,0.0,0.0,0.0,0.0,0.0,0.0,0.0,0.0,0.0,0.0,0.0,0.0,0.0,0.0,0.0,0.0,0.5679,0.7152,0.6736,0.0,0.0,0.0,0.0,0.0,0.0,0.6594,0.6594,0.0,0.0,0.0,0.0,0.0,0.0,0.0,0.0,0.0,0.0,0.0,0.0,0.0,0.0,0.0,0.0,0.0,0.0,0.0,0.0,0.0,0.0,0.0,0.0,0.0,0.0,0.0,0.0,0.0,0.0,0.0,0.0,0.0,0.0,0.0,0.0,0.0,0.0,0.0,0.0,0.0,0.0,0.0,0.0,0.0,0.0,0.0,0.0,0.0,0.0,0.0,0.0,0.0,0.0,0.0,1.3831,1.6482,1.9357,2.2433,2.4256,2.4939,2.4685,2.2651,2.0743,0.0,0.0,0.0,0.0,0.0,0.0,0.0,0.0,0.0,0.0,0.0,0.0,0.0,0.0,0.0,0.0,0.0,0.0,0.0,0.0,0.0,0.0,0.0,0.0,0.0,0.0,0.0,0.0,0.0,0.0,0.0,0.0,0.0,0.0,0.0,0.0,0.0,0.0,0.0,0.0,0.0,0.7727,0.6817,0.6872,0.0,0.0,0.0,0.0,0.6692,0.6937,0.0,0.0,0.0,0.0,0.0,0.0,0.0,0.0,0.0,0.0,0.0,0.0,0.0,0.0,0.0,0.0,0.0,0.0,0.0,0.0,0.0,0.0,0.0,0.0,0.0,0.0,0.0,0.0,0.0,0.0,0.0,0.0,0.0,0.0,0.0,0.0,0.0,0.0,0.0,0.0,0.0,0.0,0.0,0.0,0.0,0.0,0.0,0.0,0.0,0.0,0.0,0.0,0.0,0.0,0.0,0.0,1.5404,1.7196,2.0061,2.4365,2.4855,2.5035,2.4975,2.3438,2.1444,0.0,0.0,0.0,0.0,0.0,0.0,0.0,0.0,0.0,0.0,0.0,0.0,0.0,0.0,0.0,0.0,0.0,0.0,0.0,0.0,0.0,0.0,0.0,0.0,0.0,0.0,0.0,0.0,0.0,0.0,0.0,0.0,0.0,0.0,0.0,0.0,0.0,0.0,0.0,0.0,0.0,0.8149,0.729,0.7361,0.7355,0.0,0.0,0.6942,0.6942,0.7323,0.0,0.0,0.0,0.0,0.0,0.0,0.0,0.0,0.0,0.0,0.0,0.0,0.0,0.0,0.0,0.0,0.0,0.0,0.0,0.0,0.0,0.0,0.0,0.0,0.0,0.0,0.0,0.0,0.0,0.0,0.0,0.0,0.0,0.0,0.0,0.0,0.0,0.0,0.0,0.0,0.0,0.0,0.0,0.0,0.0,0.0,0.0,0.0,0.0,0.0,0.0,0.0,0.0,0.0,0.0,1.2647,1.6014,1.8634,2.1501,2.4591,2.5108,2.5288,2.5151,2.3015,2.1257,0.0,0.0,0.0,0.0,0.0,0.0,0.0,0.0,0.0,0.0,0.0,0.0,0.0,0.0,0.0,0.0,0.0,0.0,0.0,0.0,0.0,0.0,0.0,0.0,0.0,0.0,0.0,0.0,0.0,0.0,0.0,0.0,0.0,0.0,0.0,0.0,0.0,0.0,0.0,0.0,0.0,0.0,0.8543,0.8129,0.0,0.0,0.0,0.7535,0.7671,0.0,0.0,0.0,0.0,0.0,0.0,0.0,0.0,0.0,0.0,0.0,0.0,0.0,0.0,0.0,0.0,0.0,0.0,0.0,0.0,0.0,0.0,0.0,0.0,0.0,0.0,0.0,0.0,0.0,0.0,0.0,0.0,0.0,0.0,0.0,0.0,0.0,0.0,0.0,0.0,0.0,0.0,0.0,0.0,0.0,0.0,0.0,0.0,0.0,0.0,0.0,0.0,0.0,0.0,0.0,0.0,0.0,1.6245,1.9822,2.2554,2.4806,2.5216,2.5579,2.5471,2.3067,0.0,0.0,0.0,0.0,0.0,0.0,0.0,0.0,0.0,0.0,0.0,0.0,0.0,0.0,0.0,0.0,0.0,0.0,0.0,0.0,0.0,0.0,0.0,0.0,0.0,0.0,0.0,0.6295,0.0,0.0,0.0,0.0,0.0,0.0,0.0,0.0,0.0,0.0,0.0,0.0,0.0,0.0,0.9003,0.9499,0.8841,0.8626,0.0,0.0,0.8232,0.8765,0.9525,0.9574,0.0,0.0,0.0,0.0,0.0,0.0,0.0,0.0,0.0,0.0,0.0,0.0,0.0,0.0,0.0,0.0,0.0,0.0,0.0,0.0,0.0,0.0,0.0,0.0,0.0,0.0,0.0,0.0,0.0,0.0,0.0,0.0,0.0,0.0,0.0,0.0,0.0,0.0,0.0,0.0,0.0,0.0,0.0,0.0,0.0,0.0,0.0,0.0,0.0,0.0,0.0,0.0,0.0,0.0,0.0,1.6631,2.0077,2.3064,2.5167,2.575,2.6078,2.6004,2.4265,2.2435,0.0,0.0,0.0,0.0,0.0,0.0,0.0,0.0,0.0,0.0,0.0,0.0,0.0,0.0,0.0,0.0,0.0,0.0,0.0,0.0,0.0,0.0,0.0,0.0,0.0,0.0,0.0,0.0,0.0,0.0,0.0,0.0,0.0,0.0,0.0,0.0,0.0,0.0,0.0,0.0,0.0,0.9491,1.0156,0.9323,0.9203,0.0,0.0,0.903,1.0357,1.0893,1.0906,1.0023,0.0,0.0,0.0,0.0,0.0,0.0,0.0,0.0,0.0,0.0,0.0,0.0,0.0,0.0,0.0,0.0,0.0,0.0,0.0,0.0,0.0,0.0,0.0,0.0,0.0,0.0,0.0,0.0,0.0,0.0,0.0,0.0,0.0,0.0,0.0,0.0,0.0,0.0,0.0,0.0,0.0,0.0,0.0,0.0,0.0,0.0,0.0,0.0,0.0,0.0,0.0,0.0,0.0,1.5135,1.6813,2.1268,2.4199,2.5506,2.6019,2.6373,2.6709,2.4894,2.2976,0.0,0.0,0.0,0.0,0.0,0.0,0.0,0.0,0.0,0.0,0.0,0.0,0.0,0.0,0.0,0.0,0.0,0.0,0.0,0.0,0.0,0.0,0.0,0.0,0.0,0.0,0.0,0.0,0.6138,0.6187,0.6279,0.0,0.0,0.0,0.0,0.0,0.0,0.0,0.0,0.0,0.0,1.1563,1.2033,1.2157,0.0,0.0,1.2079,1.1781,1.131,1.2316,1.2531,1.0607,1.0186,0.0,0.0,0.0,0.0,0.0,0.0,0.0,0.0,0.0,0.0,0.0,0.0,0.0,0.0,0.0,0.0,0.0,0.0,0.0,0.0,0.0,0.0,0.0,0.0,0.0,0.0,0.0,0.0,0.0,0.0,0.0,0.0,0.0,0.0,0.0,0.0,0.0,0.0,0.0,0.0,0.0,0.0,0.0,0.0,0.0,0.0,0.0,0.0,0.0,0.0,0.0,0.0,1.6115,1.6987,2.2099,2.5118,2.5818,2.6535,2.6904,2.7161,2.5465,2.3484,0.0,0.0,0.0,0.0,0.0,0.0,0.0,0.0,0.0,0.0,0.0,0.0,0.0,0.0,0.0,0.0,0.0,0.0,0.0,0.0,0.0,0.0,0.0,0.0,0.0,0.0,0.0,0.0,0.6192,0.623,0.6192,0.0,0.0,0.0,0.0,0.0,0.0,0.0,0.0,0.0,0.0,1.2751,1.299,1.338,1.3555,1.3539,1.3239,1.3097,1.3001,1.3908,1.397,1.1894,0.0,0.0,0.0,0.0,0.0,0.0,0.0,0.0,0.0,0.0,0.0,0.0,0.0,0.0,0.0,0.0,0.0,0.0,0.0,0.0,0.0,0.0,0.0,0.0,0.0,0.0,0.0,0.0,0.0,0.0,0.0,0.0,0.0,0.0,0.0,0.0,0.0,0.0,0.0,0.0,0.0,0.0,0.0,0.0,0.0,0.0,0.0,0.0,0.0,0.0,0.0,0.0,0.0,1.6556,1.7438,2.2579,2.5568,2.6103,2.6983,2.7529,2.7448,2.6268,2.4515,2.2448,0.0,0.0,0.0,0.0,0.0,0.0,0.0,0.0,0.0,0.0,0.0,0.0,0.0,0.0,0.0,0.0,0.0,0.0,0.0,0.0,0.0,0.0,0.0,0.0,0.0,0.0,0.6573,0.66,0.6551,0.0,0.0,0.0,0.0,0.0,0.0,0.0,0.0,0.0,0.0,1.0169,1.2593,1.2616,1.2306,1.2619,1.3745,1.2455,1.2411,1.5406,1.5496,1.5025,0.0,0.0,0.0,0.0,0.0,0.0,0.0,0.0,0.0,0.0,0.0,0.0,0.0,0.0,0.0,0.0,0.0,0.0,0.0,0.0,0.0,0.0,0.0,0.0,0.0,0.0,0.0,1.142,1.1875,0.0,0.0,0.0,0.0,0.0,0.0,0.0,0.0,0.0,0.0,0.0,1.3819,1.3862,0.0,0.0,0.0,0.0,0.0,0.0,0.0,0.0,0.0,0.0,0.0,0.0,1.644,1.7642,2.2623,2.5744,2.6613,2.7324,2.7865,2.7981,2.6814,2.4568,2.1136,0.0,0.0,0.0,0.0,0.0,0.0,0.0,0.0,0.0,0.0,0.0,0.0,0.0,0.0,0.0,0.0,0.0,0.0,0.0,0.0,0.0,0.0,0.0,0.0,0.0,0.6453,0.0,0.0,0.0,0.0,0.0,0.0,0.0,0.0,0.0,0.0,0.0,0.735,0.7633,1.0791,1.3486,1.4666,1.5772,1.629,0.0,0.0,0.0,0.0,0.0,0.0,0.0,0.0,0.0,0.0,0.0,0.0,0.0,0.0,0.7758,0.7203,0.7067,0.7067,0.7138,0.0,0.0,0.0,0.0,0.0,0.0,0.0,0.0,0.0,0.0,0.0,0.0,0.0,0.0,0.0,0.0,1.3435,0.0,0.0,0.0,0.0,0.0,0.0,0.0,0.0,1.4138,1.5471,1.6777,1.6907,1.6909,0.0,1.6661,1.5226,0.0,0.0,0.0,0.0,0.0,0.0,0.0,0.0,1.6904,1.8331,2.2894,2.5824,2.677,2.7577,2.7932,2.8123,2.66,2.4356,2.1162,1.9063,1.7441,0.0,0.0,0.0,0.0,0.0,0.0,0.0,0.0,0.0,0.0,0.0,0.0,0.0,0.0,0.0,0.0,0.0,0.0,0.0,0.0,0.0,0.0,0.0,0.7202,0.0,0.0,0.0,0.0,0.0,0.0,0.0,0.0,0.0,0.7209,0.7737,0.8401,0.9246,1.208,1.4558,1.5643,0.0,0.0,0.0,0.0,0.0,0.0,0.0,1.705,1.6014,1.5101,1.421,1.3003,1.2185,1.1257,0.9602,0.0,0.0,0.7586,0.7323,0.7328,0.7448,0.7595,0.7621,0.7861,0.7943,0.7997,0.0,0.0,0.0,0.0,0.0,0.0,0.0,0.0,1.4361,1.5081,0.0,1.5839,0.0,0.0,0.0,0.0,0.0,0.0,0.0,0.0,1.7276,1.8638,2.0336,2.0643,2.0758,2.0889,2.0989,1.9739,1.7044,1.3126,0.0,0.0,0.0,0.0,0.0,0.0,1.7559,1.9602,2.3644,2.5999,2.6783,2.7577,2.7919,2.8083,2.5919,2.4024,2.2526,2.0464,1.8804,1.774,1.7077,0.0,0.0,0.0,0.0,0.0,0.0,0.0,0.0,0.0,0.0,0.0,0.0,0.0,0.0,0.0,0.0,0.0,0.0,0.0,0.0,0.7674,0.0,0.0,0.0,0.0,0.0,0.0,0.0,0.0,0.0,0.0,0.7514,0.8864,1.0257,1.1563,0.0,0.0,0.0,0.0,1.6616,1.6788,1.6769,1.728,1.8821,1.8939,1.853,1.7863,0.0,0.0,1.4092,1.3797,1.3267,1.1625,1.1129,1.0419,0.8643,0.8099,0.7921,0.8035,0.8215,0.8391,0.8242,0.8598,0.8733,1.8336,0.0,0.0,0.0,0.0,1.6428,1.7065,1.7925,1.7457,1.7661,1.807,1.7274,0.0,0.0,0.0,0.0,0.0,0.0,1.7294,1.8572,2.0342,2.2077,2.3364,2.3707,2.3692,2.3484,2.3145,2.2039,2.0355,1.777,1.4878,1.157,0.0,0.0,0.0,0.0,1.8866,2.0258,2.4158,2.6335,2.6783,2.7722,2.7954,2.7829,2.6573,2.5086,2.3432,2.1984,2.0528,1.8875,1.7886,0.0,0.0,0.0,0.0,0.0,0.0,0.0,0.0,0.0,0.0,0.0,0.0,0.0,0.0,0.0,0.0,0.0,0.0,0.0,0.8913,0.9939,1.0642,0.0,0.0,0.0,0.0,0.0,0.0,0.0,0.0,0.0,0.9677,1.0236,1.1372,0.0,0.0,1.6887,1.808,1.8608,1.8799,1.8675,0.0,0.0,0.0,1.9058,1.8713,1.8509,1.8195,1.7955,1.7837,1.6797,1.5417,1.3713,1.3467,1.3192,1.2536,1.0148,0.8463,0.8421,0.8638,0.8856,0.8976,0.9417,0.9546,2.2486,2.0386,1.8742,1.8058,1.8227,1.8589,1.9237,1.9964,1.9915,2.0133,2.0414,1.9484,1.8277,1.6938,1.6386,0.0,0.0,0.0,2.0248,2.1558,2.3053,2.4376,2.5518,2.583,2.574,2.5449,2.4974,2.4013,2.2714,2.1387,1.8709,1.4833,0.0,0.0,1.461,1.776,2.0219,2.1661,2.4839,2.6684,2.7122,2.7812,2.8056,2.7856,2.7028,2.6092,2.494,2.3392,2.1952,2.0421,1.9063,1.8015,0.0,0.0,0.0,0.0,0.0,0.0,0.0,0.0,0.0,0.0,0.0,0.8059,0.0,0.0,0.0,0.0,0.7299,0.9054,1.2045,1.2284,0.0,0.0,0.0,0.0,0.0,0.0,0.0,0.754,0.8285,0.9431,1.0925,1.2307,1.3804,1.5703,1.6994,1.8407,1.9735,0.0,1.9977,2.0178,2.0222,2.0255,2.0342,2.0263,2.001,1.9823,1.9566,1.9555,1.9604,1.8694,1.7566,1.6138,1.5711,1.5432,1.472,1.2713,1.0959,1.0156,1.0364,1.0334,0.9772,1.0009,1.0169,2.7379,2.6017,2.2319,2.0564,2.0294,2.078,2.1163,2.1645,2.187,2.2519,2.3177,2.2115,2.1462,2.1091,2.0106,0.0,0.0,2.2146,2.3179,2.4796,2.5398,2.6106,2.6894,2.7188,2.7175,2.6894,2.6627,2.5728,2.4405,2.4125,2.2668,1.9848,1.7621,1.7027,1.8167,1.9781,2.165,2.3761,2.5564,2.6865,2.7799,2.8163,2.8501,2.846,2.7445,2.668,2.636,2.4657,2.321,2.1936,2.0573,1.9212,1.8034,0.0,0.0,0.0,0.0,0.0,0.0,0.0,0.0,0.0,0.0,0.0,0.0,0.0,0.0,0.0,0.8927,0.0,1.5538,1.4625,0.0,0.0,0.0,1.2026,1.0894,0.9513,0.8509,0.8161,0.0,0.0,0.0,0.0,1.6981,1.7693,1.9064,2.0217,2.091,2.0821,2.0854,2.1268,2.1223,2.1312,2.1614,2.1761,2.1726,2.1176,2.0821,2.034,2.0027,1.9898,1.9281,1.7902,1.7759,1.7554,1.6,1.5878,1.5268,1.3108,1.2842,1.258,1.1258,1.1028,1.1172,3.1697,2.9425,2.8509,2.6002,2.2485,2.2793,2.3466,2.429,2.4163,2.4061,2.4086,2.3395,2.2691,2.2025,2.225,2.2776,2.3287,2.4528,2.5424,2.6012,2.68,2.7295,2.7495,2.7789,2.7776,2.7495,2.7415,2.6712,2.5562,2.5295,2.4306,2.2792,2.2175,2.1106,1.9547,2.1453,2.3212,2.4591,2.6032,2.772,2.9969,3.0351,3.0533,3.0122,2.7921,2.668,2.6373,2.4983,2.3496,2.2349,2.0822,1.9587,1.8286,1.7438,0.0,0.0,0.0,0.0,0.0,0.0,0.0,0.0,0.0,1.0062,0.9776,0.0,1.0249,0.0,1.2064,1.3871,1.6206,1.6161,0.0,0.0,1.5526,1.4231,1.2829,1.2233,1.1572,1.0725,1.1984,1.3626,1.5168,1.6774,1.8381,2.0056,2.0713,2.1148,2.151,2.2004,2.2107,2.2076,2.2089,2.2248,2.227,2.2293,2.2065,2.1768,2.1344,2.0946,2.0452,2.0418,2.0238,1.9927,1.9803,1.9688,1.9355,1.9416,1.8809,1.7168,1.5931,1.5026,1.4479,1.3603,1.3311,3.541,3.294,3.2996,3.0737,2.7362,2.6018,2.5944,2.6543,2.6401,2.6268,2.6,2.5166,2.4527,2.4245,2.442,2.4887,2.5431,2.6239,2.676,2.7188,2.7669,2.7896,2.7909,2.807,2.8056,2.7896,2.7896,2.7315,2.6338,2.6173,2.5462,2.4383,2.4383,2.3675,2.2211,2.327,2.4405,2.5765,2.7954,3.0113,3.2161,3.1658,3.1278,3.0773,2.8246,2.656,2.6012,2.4716,2.3453,2.229,2.1019,1.9827,1.8753,1.7978,1.7244,0.0,0.0,0.0,0.0,0.0,0.0,0.0,0.0,0.0,0.0,0.0,1.2597,0.0,1.3808,0.0,1.7514,1.7565,1.7649,1.8155,1.7067,1.5919,1.5003,1.4428,1.3796,1.3238,1.4492,1.5877,1.6755,1.8591,2.0156,2.1581,2.2107,2.2345,2.2565,2.2828,2.2863,2.282,2.2866,2.2843,2.2898,2.2811,2.2565,2.2662,2.2035,2.1272,2.068,2.0757,2.0715,2.0561,2.088,2.1023,2.0878,2.1064,2.0761,1.9885,1.895,1.7809,1.6187,1.646,1.7195,3.8927,3.66,3.6543,3.5172,3.3038,3.0206,2.9123,2.93,2.9138,2.8658,2.8257,2.7188,2.6734,2.6707,2.6466,2.6774,2.7482,2.7495,2.7762,2.8243,2.8257,2.823,2.8203,2.8203,2.819,2.815,2.815,2.763,2.6783,2.6783,2.6161,2.5108,2.5096,2.5096,2.5083,2.4854,2.562,2.7109,3.0425,3.2983,3.4317,3.2693,3.1687,3.1091,2.8256,2.6213,2.5358,2.4182,2.3028,2.1936,2.0993,2.0168,1.925,1.8526,1.788,0.0,1.7141,0.0,0.0,0.0,0.0,0.0,0.0,0.0,0.0,1.45,1.4982,1.4377,1.5245,1.6646,1.8848,1.875,1.8698,1.9169,1.8312,1.7489,1.7209,1.6466,1.592,1.5772,1.7295,1.8091,1.7859,2.0059,2.1866,2.2414,2.2828,2.3383,2.3643,2.3501,2.3419,2.3667,2.3352,2.3288,2.3368,2.3273,2.321,2.3451,2.2621,2.1604,2.0989,2.1057,2.1091,2.0973,2.1333,2.176,2.1436,2.1793,2.1889,2.1416,2.1243,2.0099,1.7992,1.8947,2.0336,4.275,4.0325,4.0477,3.8909,3.6333,3.6327,3.5527,3.4262,3.2705,3.0937,2.9205,2.8738,2.8537,2.8537,2.8484,2.8551,2.8698,2.8698,2.8764,2.8871,2.8871,2.8751,2.8524,2.8524,2.839,2.815,2.815,2.763,2.6783,2.6783,2.6248,2.5361,2.5361,2.5361,2.5361,0.0,0.0,0.0,3.2659,3.5193,3.6541,3.5297,3.3982,3.3069,2.8061,0.0,2.4449,2.3086,2.2138,2.1593,2.0729,0.0,0.0,0.0,0.0,0.0,0.0,0.0,0.0,0.0,0.0,0.0,1.5968,1.5771,1.5502,1.6771,1.7643,1.7575,1.8101,1.8601,1.8994,1.934,1.9712,1.9855,1.9768,1.9403,1.8563,1.9093,1.9173,1.8466,1.9626,2.0508,2.068,2.1745,2.2537,2.2823,2.3365,2.3776,2.4028,2.3848,2.3716,2.3752,2.3704,2.3584,2.349,2.3393,2.3307,2.3157,2.2697,2.2165,2.2024,2.1997,2.1951,2.1771,2.2225,2.2396,2.2396,2.235,2.2406,2.2406,2.1739,2.1082,2.0455,2.1024,2.1537,4.4195,0.0,4.3058,4.1965,0.0,4.0899,4.1006,3.9899,3.5404,3.2176,2.9686,2.9379,2.9259,2.9245,2.9098,2.9125,2.9245,2.9112,2.9045,2.9045,2.9045,2.8965,2.8818,2.8671,2.8524,2.8364,2.8217,2.7643,2.6783,2.6783,2.6286,2.5433,2.5433,2.5433,2.5446,2.7068,2.9143,3.1298,3.4502,3.6727,3.8053,3.5858,3.4199,3.3305,0.0,0.0,0.0,0.0,0.0,0.0,0.0,0.0,0.0,0.0,0.0,1.8216,1.8215,1.8089,1.7587,1.7702,1.7828,1.7955,1.8185,1.807,1.746,1.8262,1.8976,1.8971,1.9221,1.9663,2.0207,2.0388,2.0569,2.0834,2.0871,2.0745,2.0515,2.0991,2.1214,2.0957,2.1453,2.1989,2.2377,2.2673,2.3055,2.3282,2.3596,2.3888,2.3997,2.3937,2.384,2.384,2.3719,2.355,2.3297,2.3128,2.2947,2.2748,2.2573,2.2293,2.2373,2.2236,2.2259,2.2128,2.2397,2.2823,2.253,2.2692,2.2878,2.2567,2.2234,2.19,2.1933,2.1927,2.1868,4.4921,4.3522,4.4768,4.4401,4.2776,4.4245,4.4433,4.326,0.0,0.0,0.0,2.9847,2.9713,2.97,2.9459,2.9459,2.9619,2.9392,2.9245,2.9192,2.9192,2.9165,2.9112,2.8871,2.8738,2.8671,2.8377,2.7709,2.6859,2.6808,2.6286,2.5446,2.5482,2.5506,2.586,2.8914,3.1381,3.3422,3.6008,3.79,3.9193,3.6152,3.4161,3.3145,2.9022,2.5851,2.3981,2.306,2.2111,2.1122,2.1015,2.0598,2.0093,1.9966,1.9487,1.8787,1.8686,1.8807,1.9024,1.9229,1.9446,1.9664,2.0134,2.0002,1.9036,1.9446,1.9833,1.978,1.9953,2.0343,2.1233,2.1521,2.1655,2.1898,2.191,2.1848,2.2054,2.2259,2.2464,2.2681,2.2718,2.2899,2.3188,2.3249,2.3285,2.3719,2.384,2.3816,2.378,2.3756,2.3756,2.3731,2.3538,2.3297,2.3031,2.2826,2.2561,2.2343,2.2283,2.2271,2.2295,2.2319,2.2181,2.1976,2.2613,2.2937,2.2685,2.3052,2.3187,2.2889,2.2728,2.2728,2.2751,2.2459,2.2311,4.5695,4.5488,4.564,4.5421,4.4943,4.5403,4.341,3.9519,3.783,3.487,3.1022,3.0742,3.0608,3.0608,3.0568,3.0434,3.0234,3.0194,3.0034,0.0,2.9793,2.9659,2.9432,2.9379,2.9219,2.8965,2.8684,2.8023,2.7285,2.691,2.6286,2.547,2.5663,2.6117,2.7139,3.0508,3.2875,3.3921,3.6426,3.8469,3.9758,3.7735,3.5692,3.3644,3.0166,2.7041,2.4543,2.3674,2.3006,2.2579,2.2044,2.1512,2.1124,2.0831,2.0429,2.0014,2.0207,2.0352,2.0376,2.0424,2.046,2.0509,2.0786,2.069,2.0134,2.0533,2.0847,2.0602,2.1053,2.1195,2.0969,2.1952,2.2681,2.2778,2.2802,2.2838,2.285,2.2874,2.2923,2.2983,2.2983,2.3068,2.3188,2.3381,2.3454,2.3744,2.3756,2.3744,2.3575,2.3502,2.3502,2.3478,2.3441,2.3174,2.2955,2.2846,2.2688,2.2307,2.2271,2.2271,2.2271,2.2416,2.2524,2.2573,2.2959,2.3285,2.3188,2.3476,2.3608,2.346,2.3484,2.352,2.3175,2.3248,2.3283,4.5883,4.5883,4.5883,4.5792,4.5627,4.581,4.3243,3.9069,3.8558,3.569,3.1423,3.1089,3.1022,3.1009,3.0862,3.0728,3.0581,3.0434,3.0194,2.9927,2.9913,2.9847,2.9713,2.9553,2.9419,2.9259,2.8978,2.8485,2.7939,2.7477,2.6895,2.6215,2.6017,2.7177,3.0043,3.205,3.4231,3.674,3.83,3.9084,3.952,3.6816,3.5311,3.4759,3.04,2.7622,2.6857,2.5242,2.4302,2.3848,2.3399,2.2754,2.2179,2.1735,2.1183,2.0509,2.0593,2.0738,2.0871,2.116,2.139,2.1523,2.1776,2.1824,2.1595,2.1655,2.1764,2.175,2.1905,2.2013,2.2165,2.2887,2.3365,2.321,2.3198,2.3104,2.3212,2.3116,2.3104,2.32,2.3007,2.2935,2.32,2.3237,2.3429,2.3732,2.3587,2.3406,2.3418,2.32,2.308,2.3176,2.3162,2.2979,2.2821,2.2676,2.2404,2.2271,2.2271,2.2271,2.2271,2.238,2.2428,2.2452,2.2766,2.2983,2.3031,2.3237,2.3369,2.3406,2.3599,2.3648,2.3464,2.3544,2.3643,4.5883,4.5883,4.5883,4.5883,4.5883,4.5883,4.3537,3.9898,3.9243,3.633,3.239,3.1531,3.133,3.1303,3.1089,3.0955,3.0862,3.0662,3.0394,3.0127,3.0114,3.0114,3.01,2.9873,2.9753,2.9659,2.9379,2.8855,2.8263,2.7836,2.731,2.6807,2.635,2.805,3.1975,3.2998,3.5206,3.8581,3.9613,3.9703,3.8974,3.6508,3.5242,3.4802,3.0956,2.8523,2.8388,2.6818,2.5665,2.5157,2.4634,2.4195,2.3374,2.2802,2.2131,2.1518,2.1269,2.1414,2.1679,2.2066,2.2404,2.2597,2.2802,2.2947,2.2983,2.2826,2.2705,2.2766,2.2674,2.2853,2.3307,2.3548,2.3729,2.3393,2.3393,2.3321,2.3478,2.3297,2.3176,2.3297,2.2947,2.2742,2.2887,2.2947,2.3162,2.3389,2.3377,2.3128,2.32,2.2899,2.2766,2.2766,2.2846,2.2724,2.2712,2.2566,2.2295,2.2271,2.2271,2.2271,2.2271,2.2271,2.2271,2.2307,2.2488,2.2669,2.2693,2.2887,2.3056,2.3104,2.3344,2.3622,2.355,2.3792,2.3848,4.5883,4.5883,4.5883,4.5883,4.5883,4.5883,4.4311,4.1849,4.0056,3.7547,3.4434,3.2666,3.1623,3.1623,3.1583,3.1423,3.1183,3.1156,3.0969,3.0702,3.0715,3.0715,3.0675,3.0662,3.0528,3.0247,2.9953,2.9317,2.8194,2.7762,2.7234,2.6698,2.6623,2.7849,3.0465,3.2991,3.5395,3.7439,3.9353,3.985,3.8786,3.8722,3.7038,3.3692,3.3154,3.1153,2.814,2.7418,2.6947,2.6613,2.5766,2.5308,2.5088,2.4227,2.3451,2.3401,2.3174,2.3321,2.3526,2.3635,2.3635,2.3695,2.3683,2.3804,2.4009,2.4033,2.3731,2.3453,2.349,2.3647,2.3805,2.3781,2.3719,2.3707,2.3719,2.378,2.3756,2.3575,2.3333,2.3092,2.2826,2.2657,2.2505,2.2669,2.279,2.3186,2.3137,2.2911,2.2826,2.2705,2.2549,2.2416,2.2319,2.2319,2.2319,2.2295,2.2271,2.2271,2.2271,2.2271,2.2271,2.2271,2.2271,2.2295,2.244,2.2597,2.2669,2.285,2.2995,2.2971,2.314,2.3296,2.3584,2.3961,2.4106,4.5883,4.5883,4.5883,4.5883,4.5883,4.5883,4.3849,4.0799,3.9628,3.7141,3.367,3.2435,3.1837,3.1677,3.1677,3.1503,3.1236,3.1223,3.1076,3.0808,3.0795,3.0795,3.0795,3.0795,3.0648,3.0381,3.0234,2.9673,2.886,2.7991,2.7392,2.6795,2.7964,2.9809,3.2146,3.4688,3.7099,3.9039,4.0268,4.0345,3.9303,3.8275,3.6997,3.5195,3.3015,3.1227,2.9618,2.8495,2.7722,2.7589,2.7038,2.6505,2.5844,2.5084,2.4309,2.3723,2.3453,2.3635,2.4045,2.4069,2.4069,2.4069,2.4082,2.413,2.4214,2.4094,2.3913,2.3828,2.3776,2.38,2.3744,2.3792,2.384,2.384,2.384,2.384,2.384,2.3466,2.3152,2.3031,2.2681,2.2416,2.2404,2.2416,2.2597,2.2874,2.2814,2.2597,2.2621,2.2524,2.238,2.2295,2.2271,2.2271,2.2271,2.2271,2.2271,2.2271,2.2271,2.2271,2.2271,2.2271,2.2271,2.2271,2.2367,2.244,2.2404,2.2476,2.2585,2.2681,2.2935,2.308,2.3357,2.3719,2.3888,4.5883,4.5883,4.5883,4.5883,4.5883,4.5883,4.3937,4.0626,3.9788,3.7176,3.3601,3.2732,3.2064,3.1797,3.1704,3.1543,3.137,3.1343,3.1236,3.1049,3.1036,3.1036,3.1036,3.1036,3.0875,3.0621,3.0515,2.9911,2.9041,2.7833,2.7206,2.7096,2.8587,3.0972,3.3563,3.5702,3.7978,4.0326,4.0767,4.0657,3.9997,3.7995,3.6696,3.6232,3.3352,3.1375,3.0788,2.9146,2.815,2.8136,2.7856,2.7344,2.6607,2.5983,2.5193,2.4281,2.3927,2.4082,2.454,2.4564,2.4564,2.4564,2.4564,2.454,2.4444,2.4287,2.4226,2.4299,2.4172,2.404,2.3888,2.384,2.384,2.384,2.384,2.384,2.3816,2.3369,2.3056,2.2995,2.2597,2.2271,2.2271,2.2283,2.2428,2.2669,2.25,2.2307,2.2476,2.238,2.2271,2.2271,2.2271,2.2271,2.2271,2.2271,2.2271,2.2271,2.2271,2.2271,2.2271,2.2271,2.2271,2.2271,2.2271,2.2271,2.2319,2.2295,2.2331,2.2416,2.2505,2.2817,2.3259,2.3418,2.3611,4.5883,4.5883,4.5883,4.5883,4.5883,4.5883,4.4732,4.22,4.0416,3.8287,3.5442,3.342,3.2358,3.2078,3.1837,3.1677,3.165,3.165,3.1637,3.161,3.1597,3.1623,3.1623,3.1623,3.145,3.1102,3.0875,2.9952,2.8525,2.7349,2.6785,2.6991,2.8066,3.0164,3.3308,3.5146,3.7213,4.0268,4.0584,4.0657,4.0673,3.8522,3.6987,3.6515,3.4718,3.257,3.0846,2.9132,2.815,2.815,2.7869,2.7669,2.7615,2.7046,2.6475,2.5675,2.5082,2.5059,2.5277,2.5313,2.5313,2.5325,2.5228,2.5228,2.4914,2.4806,2.4697,2.4613,2.4693,2.4511,2.3937,2.3876,2.3864,2.384,2.384,2.3828,2.3828,2.3321,2.308,2.2959,2.2573,2.2295,2.2271,2.2271,2.2283,2.2343,2.2295,2.2283,2.2295,2.2283,2.2271,2.2271,2.2271,2.2271,2.2271,2.2271,2.2271,2.2271,2.2271,2.2271,2.2271,2.2271,2.2271,2.2271,2.2271,2.2271,2.2271,2.2307,2.2367,2.2301,2.2561,2.2766,2.3077,2.3007,2.32,4.5883,4.5883,4.5883,4.5883,4.5883,4.5883,4.3937,4.0836,4.0061,3.7538,3.4352,3.326,3.2666,3.2372,3.2278,3.2118,3.1957,3.1944,3.1944,3.1917,3.1757,3.1677,3.1677,3.1677,3.1517,3.1249,3.1116,3.0306,2.9021,2.7817,2.7366,2.8012,2.9716,3.1954,3.4633,3.6622,3.8752,4.0887,4.1005,4.0914,4.0873,3.9049,3.769,3.7129,3.3976,3.1381,2.9437,2.8582,2.815,2.815,2.803,2.7896,2.7696,2.6783,2.6249,2.5657,2.5203,2.5168,2.5397,2.5433,2.5361,2.5192,2.5011,2.4914,2.4733,2.4492,2.4299,2.4347,2.4576,2.438,2.3961,2.3997,2.4033,2.3864,2.3695,2.3611,2.3502,2.3128,2.279,2.2742,2.2464,2.2271,2.2271,2.2271,2.2271,2.2271,2.2271,2.2271,2.2271,2.2271,2.2271,2.2271,2.2271,2.2271,2.2271,2.2271,2.2271,2.2271,2.2271,2.2259,2.2259,2.2259,2.2271,2.2271,2.2271,2.2271,2.2271,2.2271,2.2343,2.2367,2.2488,2.2621,2.2766,2.2826,2.2817,4.6012,4.5902,4.5883,4.5883,4.5883,4.5883,4.3556,3.9867,3.9673,3.7207,3.3715,3.3026,3.2866,3.2706,3.2679,3.2585,3.2385,3.2291,3.2198,3.2091,3.1904,3.1757,3.1677,3.1677,3.157,3.137,3.0888,3.013,2.9314,2.8186,2.7743,2.8309,3.0832,3.3343,3.5482,3.7766,3.9913,4.1451,4.1482,4.1262,4.1074,3.8683,3.7296,3.6467,3.287,3.0296,2.9446,2.8636,2.815,2.815,2.815,2.8043,2.7843,2.6838,2.6146,2.5974,2.5506,2.524,2.5409,2.5433,2.5361,2.5192,2.5011,2.4866,2.4758,2.4432,2.4359,2.442,2.4547,2.4564,2.4154,2.4263,2.4226,2.39,2.3611,2.3466,2.343,2.2983,2.2657,2.2524,2.238,2.2271,2.2271,2.2271,2.2271,2.2271,2.2271,2.2271,2.2271,2.2271,2.2271,2.2271,2.2271,2.2271,2.2259,2.2259,2.2259,2.2259,2.2323,2.2335,2.2259,2.2259,2.2271,2.2271,2.2271,2.2271,2.2271,2.2271,2.2271,2.2283,2.2343,2.2464,2.2409,2.2469,2.2601,4.6232,4.592,4.5883,4.5883,4.5883,4.5695,4.3366,4.0061,3.9478,3.71,3.352,3.312,3.3013,3.2986,3.2973,3.2973,3.2906,3.2692,3.2425,3.2158,3.2091,3.1917,3.1677,3.1677,3.1664,3.161,3.0415,2.9594,2.9377,2.8396,2.8197,2.8942,3.1164,3.3715,3.5794,3.8308,4.0491,4.1869,4.1922,4.1702,4.1287,3.7994,3.6031,3.5257,3.1814,3.0198,3.0836,2.9171,2.8177,2.815,2.815,2.815,2.7941,2.724,2.6758,2.6575,2.5921,2.5433,2.5433,2.5433,2.5433,2.5385,2.5397,2.5216,2.5011,2.4927,2.4878,2.483,2.4878,2.4842,2.4576,2.4552,2.4196,2.39,2.3562,2.3406,2.3297,2.2959,2.2561,2.2343,2.2271,2.2271,2.2271,2.2271,2.2271,2.2271,2.2271,2.2271,2.2271,2.2271,2.2271,2.2271,2.2271,2.2271,2.2259,2.2259,2.2259,2.2235,2.2262,2.2362,2.236,2.2271,2.2271,2.2271,2.2271,2.2271,2.2283,2.2295,2.2307,2.2307,2.2331,2.2331,2.238,2.2301,2.2488,4.625,4.5902,4.5883,4.5883,4.5695,4.4335,4.22,3.9673,3.8111,3.596,3.3787,3.332,3.328,3.328,3.328,3.328,3.3267,3.316,3.2879,3.2438,3.2211,3.1957,3.1717,3.1677,3.1677,3.1434,3.0415,2.9784,2.9621,2.8929,2.8842,2.9794,3.1997,3.4552,3.6711,3.8691,4.0788,4.2828,4.2436,4.2106,4.1878,3.9375,3.7128,3.5304,3.2907,3.1076,3.0051,2.9068,2.8377,2.8177,2.815,2.815,2.7643,2.7135,2.6626,2.6273,2.5775,2.5433,2.5433,2.5433,2.5433,2.5409,2.5277,2.5144,2.5035,2.4878,2.4721,2.4576,2.4649,2.4826,2.4456,2.454,2.4311,2.3647,2.3333,2.3116,2.2923,2.2609,2.238,2.2295,2.2271,2.2271,2.2271,2.2271,2.2271,2.2271,2.2271,2.2271,2.2271,2.2271,2.2271,2.2271,2.2271,2.2259,2.2259,2.2372,2.2347,2.236,2.2275,2.2362,2.2335,2.2271,2.2271,2.2271,2.2271,2.2271,2.2295,2.2319,2.2331,2.2355,2.2392,2.2355,2.2283,2.2307,2.2367,4.6599,4.6122,4.6103,4.6012,4.5695,4.3747,4.1624,3.9478,3.7326,3.538,3.36,3.34,3.3414,3.3414,3.3414,3.3414,3.3414,3.3414,3.316,3.2719,3.2398,3.2104,3.1837,3.1704,3.1677,3.1447,3.0518,2.9962,3.0306,2.9595,2.9507,3.0479,3.3412,3.562,3.7472,4.0112,4.23,4.3211,4.2839,4.2417,4.1832,3.9964,3.7994,3.6362,3.3884,3.2004,3.0502,2.9621,2.8791,2.8511,2.8377,2.8101,2.75,2.6965,2.6613,2.6103,2.5775,2.5433,2.5433,2.5433,2.5433,2.5409,2.5289,2.5192,2.5156,2.4999,2.4818,2.4625,2.4697,2.4625,2.4347,2.4371,2.4154,2.3538,2.3321,2.2995,2.2621,2.2367,2.2283,2.2271,2.2271,2.2271,2.2271,2.2271,2.2271,2.2271,2.2271,2.2271,2.2271,2.2271,2.2271,2.2271,2.2271,2.2259,2.2247,2.2347,2.2287,2.2299,2.2299,2.2299,2.2372,2.2259,2.2271,2.2271,2.2271,2.2271,2.2283,2.2343,2.238,2.2404,2.2253,2.2404,2.2355,2.2283,2.2331,4.7204,4.6507,4.647,4.6232,4.5525,4.3366,4.1414,3.9478,3.7145,3.4983,3.36,3.3414,3.3414,3.3414,3.3414,3.3414,3.3414,3.34,3.328,3.2986,3.2692,3.2398,3.2064,3.1837,3.1757,3.154,3.0739,3.0574,3.0855,2.9962,2.9962,3.1487,3.4809,3.7191,3.8494,4.1986,4.365,4.3554,4.3169,4.2803,4.2417,4.0048,3.8392,3.7825,3.4766,3.2529,3.1464,3.0164,2.9325,2.9045,2.8711,2.8286,2.7565,2.6991,2.6664,2.6116,2.5604,2.5458,2.5446,2.5433,2.5433,2.5433,2.5421,2.5433,2.5385,2.5337,2.5216,2.4987,2.4663,2.4484,2.4256,2.4184,2.392,2.344,2.3393,2.3031,2.2404,2.2283,2.2319,2.2283,2.2271,2.2271,2.2271,2.2271,2.2271,2.2271,2.2271,2.2271,2.2271,2.2271,2.2271,2.2271,2.2271,2.2259,2.2259,2.2247,2.2335,2.2335,2.2335,2.236,2.2372,2.2247,2.2271,2.2271,2.2271,2.2271,2.2307,2.2367,2.2355,2.2319,2.2355,2.2416,2.2392,2.2469,2.2518,4.7222,4.6507,4.6489,4.625,4.5336,4.22,4.0255,3.9283,3.5762,3.4,3.3414,3.3414,3.3414,3.3414,3.3414,3.3414,3.3414,3.3414,3.3387,3.3267,3.3,3.2572,3.2185,3.2038,3.1984,3.1984,3.1229,3.114,3.149,3.0754,3.1416,3.3457,3.5876,3.8159,4.0021,4.2601,4.4031,4.394,4.3829,4.3357,4.2882,4.1786,3.9687,3.6736,3.5447,3.3204,3.1026,3.015,2.9553,2.9072,2.8764,2.8234,2.7457,2.7088,2.6669,2.5848,2.5615,2.5627,2.5482,2.5433,2.5433,2.5433,2.5433,2.5433,2.5433,2.5433,2.5313,2.5144,2.5011,2.4915,2.4673,2.4483,2.4256,2.384,2.3442,2.2983,2.2488,2.2428,2.2488,2.2307,2.2283,2.2271,2.2271,2.2271,2.2271,2.2271,2.2271,2.2271,2.2271,2.2271,2.2271,2.2271,2.2271,2.2271,2.2271,2.2271,2.2259,2.2247,2.2247,2.2247,2.2247,2.2259,2.2271,2.2271,2.2271,2.2271,2.2343,2.2416,2.2355,2.2271,2.2542,2.2639,2.253,2.2606,2.2753,4.7571,4.6965,4.6819,4.6507,4.5553,4.1481,3.9689,3.8894,3.5366,3.3414,3.3414,3.3414,3.3414,3.3414,3.3414,3.3414,3.3414,3.3414,3.3414,3.336,3.3106,3.2719,3.2358,3.2185,3.2158,3.2278,3.1516,3.1607,3.1881,3.1412,3.1952,3.3737,3.6616,3.8498,3.934,4.1856,4.2975,4.2473,4.2091,4.1587,4.1924,4.0613,3.9351,3.7061,3.5699,3.3028,3.0285,2.9913,2.9686,2.9299,2.9058,2.8564,2.7554,2.7368,2.6735,2.5639,2.5747,2.5711,2.5506,2.5433,2.5433,2.5433,2.5433,2.5433,2.5433,2.5433,2.5325,2.5108,2.5108,2.4878,2.4589,2.4528,2.4263,2.3756,2.349,2.3152,2.2645,2.2633,2.2585,2.2452,2.2331,2.2271,2.2271,2.2271,2.2271,2.2271,2.2271,2.2271,2.2271,2.2271,2.2271,2.2271,2.2271,2.2271,2.2271,2.2271,2.2271,2.2259,2.2259,2.2271,2.2271,2.2271,2.2283,2.2283,2.2271,2.2283,2.2343,2.238,2.2331,2.2481,2.2615,2.2802,2.2717,2.2704,2.2839,4.8066,4.7662,4.7259,4.6855,4.5843,4.1774,3.9689,3.8894,3.5182,3.3414,3.3414,3.3414,3.3414,3.3414,3.3414,3.3414,3.3414,3.3414,3.3414,3.332,3.312,3.2839,3.2692,3.2412,3.2425,3.2559,3.162,3.1855,3.2274,3.162,3.1959,3.3685,3.6707,3.8009,3.8585,4.0574,4.1119,4.0275,3.9336,3.9205,3.962,3.8318,3.7614,3.75,3.4487,3.2204,3.0407,2.994,2.978,2.9539,2.9513,2.8771,2.7849,2.7661,2.6997,2.6102,2.588,2.5784,2.553,2.5482,2.5433,2.5433,2.5433,2.5433,2.5433,2.5433,2.5349,2.5156,2.4866,2.4709,2.4383,2.4094,2.3852,2.3647,2.3719,2.3575,2.3212,2.2862,2.2693,2.2657,2.244,2.2295,2.2295,2.2283,2.2271,2.2271,2.2271,2.2271,2.2271,2.2271,2.2271,2.2271,2.2271,2.2271,2.2271,2.2271,2.2271,2.2259,2.2259,2.2271,2.2271,2.2271,2.2295,2.2307,2.2319,2.2295,2.2283,2.2283,2.2283,2.2295,2.2518,2.2591,2.2651,2.2851,2.2961,4.8047,4.7662,4.7277,4.6874,4.5861,4.1774,3.9673,3.9283,3.5167,3.3414,3.3414,3.3414,3.3414,3.3414,3.3414,3.3414,3.3414,3.3414,3.3414,3.3374,3.3106,3.312,3.3106,3.2893,3.2826,3.2879,3.2682,3.2802,3.2881,3.2616,3.3239,3.4952,3.5749,3.6746,3.8071,3.8765,3.8933,3.8369,3.8179,3.8259,3.8095,3.7565,3.6761,3.5942,3.3073,3.13,3.0455,3.0047,2.99,2.9793,2.9619,2.8942,2.8156,2.7966,2.7296,2.6394,2.6134,2.6025,2.5771,2.5566,2.5433,2.5433,2.5433,2.5433,2.5433,2.5458,2.5421,2.5349,2.5289,2.4999,2.4528,2.4094,2.3864,2.378,2.3792,2.3804,2.3623,2.3249,2.2817,2.2531,2.2397,2.2331,2.2349,2.2331,2.2295,2.2271,2.2271,2.2271,2.2271,2.2271,2.2271,2.2271,2.2271,2.2271,2.2271,2.2271,2.2271,2.2271,2.2271,2.2331,2.2331,2.2283,2.2295,2.2331,2.2367,2.2331,2.2271,2.2271,2.2271,2.2271,2.2271,2.2331,2.2578,2.2863,2.3071,4.8157,4.7919,4.634,4.5575,4.4517,4.0286,3.8111,3.7523,3.4784,3.3414,3.3414,3.3414,3.3414,3.3414,3.3414,3.3414,3.3414,3.3414,3.3414,3.3387,3.324,3.328,3.3347,3.328,3.3187,3.3187,3.2988,3.3094,3.3067,3.2934,3.3238,3.4717,3.5514,3.7055,3.8102,3.7923,3.7881,3.757,3.6586,3.6163,3.6503,3.5821,3.5046,3.3746,3.2083,3.1116,3.0982,3.0408,3.0261,3.0181,2.9734,2.896,2.8437,2.8054,2.7392,2.6649,2.6411,2.6206,2.5904,2.5699,2.5566,2.5446,2.5446,2.5433,2.5482,2.5542,2.5542,2.547,2.5373,2.518,2.454,2.4263,2.4009,2.3864,2.384,2.384,2.378,2.3478,2.3225,2.2793,2.2613,2.2433,2.2361,2.2416,2.2295,2.2271,2.2271,2.2271,2.2271,2.2271,2.2271,2.2271,2.2271,2.2271,2.2271,2.2271,2.2271,2.2271,2.2271,2.238,2.2476,2.2392,2.2307,2.2343,2.2392,2.2319,2.2271,2.2271,2.2283,2.2271,2.2271,2.2271,2.238,2.2797,2.2992,4.8194,4.7923,4.5344,4.4211,4.313,3.9158,3.6948,3.6356,3.4399,3.3414,3.3414,3.3414,3.3414,3.3414,3.3414,3.3414,3.3414,3.3414,3.3414,3.34,3.3387,3.3374,3.34,3.3387,3.336,3.3414,3.2986,3.3,3.32,3.3,3.3107,3.3787,3.4969,3.6065,3.7311,3.6832,3.6177,3.6291,3.4753,3.3921,3.4525,3.3699,3.2949,3.2485,3.2189,3.1704,3.145,3.0942,3.0555,3.0688,2.969,2.9093,2.8474,2.7908,2.7472,2.6701,2.6641,2.6375,2.6025,2.5844,2.5711,2.5506,2.5446,2.5482,2.5542,2.5602,2.5578,2.5482,2.5349,2.5071,2.4407,2.4226,2.4094,2.3925,2.384,2.384,2.3804,2.3635,2.3538,2.3442,2.3056,2.2778,2.2493,2.2385,2.2392,2.2271,2.2271,2.2271,2.2271,2.2271,2.2271,2.2271,2.2271,2.2271,2.2271,2.2271,2.2271,2.2271,2.2271,2.238,2.2512,2.2404,2.2307,2.2367,2.2392,2.2343,2.2331,2.2367,2.2355,2.2295,2.2283,2.2295,2.2476,2.2742,2.2923,4.7791,4.7736,4.6525,4.5009,4.3163,4.0221,3.7915,3.6356,3.42,3.3414,3.3414,3.3414,3.3414,3.3414,3.3414,3.3414,3.3414,3.3414,3.3414,3.3414,3.3414,3.3414,3.3414,3.3414,3.3414,3.3414,3.3213,3.3213,3.3414,3.3414,3.3213,3.34,3.38,3.4433,3.4647,3.3803,3.4114,3.4682,3.3598,3.3287,3.3443,3.3354,3.3053,3.2759,3.2465,3.2158,3.1744,3.1316,3.0889,3.0488,2.9417,2.8885,2.8563,2.7958,2.7365,2.7099,2.6761,2.652,2.6206,2.5977,2.5844,2.5723,2.5615,2.559,2.5663,2.5639,2.559,2.5458,2.5264,2.4975,2.479,2.4407,2.413,2.3937,2.3852,2.384,2.3828,2.3792,2.3731,2.3683,2.3309,2.2971,2.2874,2.2565,2.25,2.2367,2.2295,2.2283,2.2271,2.2271,2.2271,2.2271,2.2271,2.2271,2.2271,2.2271,2.2271,2.2271,2.2271,2.2295,2.2367,2.2319,2.2307,2.25,2.2524,2.2476,2.2476,2.2476,2.244,2.2392,2.2355,2.2343,2.2573,2.2826,2.3104,4.6966,4.5718,4.3952,4.214,3.9905,3.7461,3.596,3.4784,3.38,3.3414,3.3414,3.3414,3.3414,3.3414,3.3414,3.3414,3.3414,3.3414,3.3414,3.3414,3.3414,3.3414,3.3414,3.3414,3.3414,3.3414,3.3414,3.3414,3.3414,3.3414,3.3414,3.3414,3.3414,3.3719,3.4419,3.3995,3.3817,3.3863,3.3619,3.312,3.3,3.3146,3.3133,3.3106,3.2799,3.2492,3.2318,3.1704,3.1343,3.0863,2.9831,2.9167,2.8597,2.7938,2.7342,2.7039,2.6906,2.6713,2.6484,2.6303,2.6206,2.6037,2.5892,2.582,2.5658,2.5634,2.5538,2.5602,2.5409,2.5156,2.507,2.4601,2.4335,2.4094,2.3937,2.3852,2.384,2.384,2.384,2.3828,2.3502,2.3249,2.3176,2.2959,2.2657,2.2476,2.2355,2.2331,2.2331,2.2343,2.238,2.2343,2.2355,2.2319,2.2307,2.2283,2.2271,2.2271,2.2319,2.2343,2.2416,2.2452,2.2597,2.2802,2.2766,2.2681,2.2597,2.2585,2.2536,2.2512,2.2524,2.2561,2.2705,2.2923,2.3225,4.6269,4.4355,4.1799,3.9496,3.7472,3.5095,3.38,3.3414,3.3414,3.3414,3.3414,3.3414,3.3414,3.3414,3.3414,3.3414,3.3414,3.3414,3.3414,3.3414,3.3414,3.3414,3.3414,3.3414,3.3414,3.3414,3.3414,3.3414,3.3414,3.3414,3.3414,3.3414,3.3414,3.4,3.4969,3.3946,3.4603,3.4589,3.4234,3.3267,3.312,3.3026,3.308,3.3267,3.2826,3.2625,3.2532,3.2091,3.1677,3.1033,3.0168,2.9263,2.8653,2.8002,2.7317,2.7148,2.7063,2.6882,2.6701,2.6616,2.6472,2.6315,2.6054,2.5922,2.5778,2.573,2.552,2.5759,2.5578,2.5313,2.5215,2.496,2.4516,2.4251,2.3997,2.384,2.384,2.384,2.384,2.3768,2.3611,2.349,2.3369,2.3261,2.2971,2.2778,2.2657,2.2621,2.2609,2.2573,2.2573,2.25,2.2464,2.2416,2.2367,2.2295,2.2283,2.2271,2.238,2.2476,2.2585,2.2834,2.2862,2.3007,2.3031,2.2947,2.2838,2.2766,2.2826,2.2826,2.2766,2.2814,2.3007,2.3164,2.3551,4.6389,4.5933,4.3399,4.1288,3.8956,3.6765,3.4983,3.3414,3.3414,3.3414,3.3414,3.3414,3.3414,3.3414,3.3414,3.3414,3.3414,3.3414,3.3414,3.3414,3.3414,3.3414,3.3414,3.3414,3.3414,3.3414,3.3414,3.3414,3.3414,3.3414,3.3414,3.3414,3.3414,3.36,3.4,3.36,3.3587,3.376,3.3587,3.3387,3.3307,3.3106,3.3026,3.2959,3.2746,3.2465,3.2345,3.2051,3.1646,3.0805,3.0123,2.9343,2.8533,2.7903,2.7437,2.7317,2.716,2.6918,2.6725,2.6689,2.6677,2.6544,2.621,2.6054,2.5862,2.5574,2.5407,2.5506,2.5446,2.5361,2.53,2.4997,2.454,2.4299,2.4094,2.3937,2.3876,2.384,2.384,2.384,2.3719,2.3611,2.3502,2.3406,2.3297,2.3116,2.2959,2.2923,2.2874,2.2802,2.279,2.273,2.2681,2.2621,2.2597,2.25,2.244,2.238,2.2488,2.2645,2.2967,2.3113,2.3007,2.3128,2.32,2.3249,2.3152,2.314,2.3176,2.3116,2.3019,2.2985,2.3188,2.3478,2.3745,4.38,4.2613,4.1497,3.9089,3.6158,3.5182,3.42,3.36,3.3414,3.3414,3.3414,3.3414,3.3414,3.3414,3.3414,3.3414,3.3414,3.3414,3.3414,3.3414,3.3414,3.3414,3.3414,3.3414,3.3414,3.3414,3.3414,3.3414,3.3414,3.3414,3.3414,3.3414,3.3414,3.3414,3.3414,3.3414,3.3414,3.34,3.3414,3.3414,3.3334,3.3146,3.2973,3.2959,3.2692,3.2385,3.2158,3.2091,3.1726,3.0786,3.0152,2.9633,2.8855,2.8295,2.7824,2.7618,2.7401,2.7148,2.6918,2.687,2.6846,2.6785,2.6402,2.615,2.585,2.5502,2.5433,2.5446,2.5446,2.5373,2.5264,2.5023,2.4866,2.4625,2.4287,2.4142,2.4033,2.3876,2.384,2.384,2.384,2.3744,2.3647,2.3526,2.3454,2.3345,2.3176,2.3068,2.3019,2.2959,2.2959,2.2971,2.2923,2.2874,2.2862,2.2814,2.2625,2.2577,2.2778,2.2935,2.3283,2.3405,2.3297,2.3406,2.3562,2.3562,2.3478,2.3406,2.3369,2.3164,2.3104,2.3224,2.3356,2.3635,2.3756,4.1624,3.9673,3.9089,3.713,3.42,3.36,3.3414,3.3414,3.3414,3.3414,3.3414,3.3414,3.3414,3.3414,3.3414,3.3414,3.3414,3.3414,3.3414,3.3414,3.3414,3.3414,3.3414,3.3414,3.3414,3.3414,3.3414,3.3414,3.3414,3.3414,3.3414,3.3414,3.3414,3.3414,3.3414,3.3414,3.3414,3.3414,3.3414,3.3414,3.336,3.3133,3.2959,3.2799,3.2585,3.2291,3.2038,3.1984,3.1646,3.0752,3.0293,2.9608,2.8901,2.8375,2.8077,2.7884,2.7667,2.7401,2.7184,2.7063,2.7039,2.693,2.6701,2.6126,2.5826,2.5478,2.5433,2.5433,2.5433,2.5433,2.5385,2.5192,2.5035,2.4842,2.4601,2.4456,2.4311,2.4178,2.4057,2.4009,2.3997,2.3913,2.3792,2.3659,2.3575,2.3538,2.3406,2.3261,2.3225,2.32,2.3261,2.3309,2.32,2.3152,2.3128,2.3104,2.2769,2.2758,2.2949,2.3176,2.3502,2.3648,2.3575,2.3719,2.384,2.3792,2.3659,2.3599,2.355,2.338,2.338,2.338,2.3635,2.3756,2.3913,4.1607,3.9478,3.7538,3.6553,3.5975,3.42,3.3414,3.3414,3.3414,3.3414,3.3414,3.3414,3.3414,3.3414,3.3414,3.3414,3.3414,3.3414,3.3414,3.3414,3.3414,3.3414,3.3414,3.3414,3.3414,3.3414,3.3414,3.3414,3.3414,3.3414,3.3414,3.3414,3.3414,3.3414,3.3414,3.3414,3.3414,3.3414,3.3414,3.3414,3.3347,3.3146,3.2906,3.2625,3.2318,3.2011,3.173,3.1784,3.1363,3.0331,3.0128,2.9554,2.8882,2.8367,2.8234,2.8149,2.7932,2.7691,2.7498,2.7232,2.7051,2.6894,2.6629,2.6126,2.5934,2.5526,2.5494,2.5494,2.5518,2.547,2.5385,2.524,2.5144,2.5035,2.4866,2.4697,2.4589,2.4516,2.4395,2.4263,2.4154,2.4057,2.3937,2.3804,2.3719,2.3683,2.3683,2.3538,2.3599,2.3599,2.3659,2.3659,2.3514,2.3442,2.3393,2.32,2.314,2.3152,2.3357,2.3406,2.3648,2.3794,2.3756,2.3792,2.384,2.384,2.384,2.3756,2.3719,2.3792,2.3804,2.3731,2.3707,2.3804,2.3997,4.1624,3.9478,3.7326,3.5762,3.4599,3.38,3.3414,3.3414,3.3414,3.3414,3.34,3.3414,3.3414,3.34,3.3414,3.3414,3.3414,3.3414,3.3414,3.3414,3.3414,3.3414,3.3414,3.3414,3.3414,3.3414,3.3414,3.3414,3.3414,3.3414,3.3414,3.3414,3.3414,3.3414,3.3414,3.3414,3.3414,3.3414,3.3414,3.3414,3.3387,3.332,3.3106,3.2812,3.2746,3.2385,3.2038,3.1957,3.1251,3.037,3.0128,2.9567,2.8812,2.8487,2.8451,2.8415,2.8186,2.8005,2.7811,2.7486,2.7148,2.6798,2.658,2.6399,2.609,2.5989,2.5646,2.5574,2.5466,2.5578,2.5421,2.5349,2.5289,2.5228,2.5108,2.4939,2.4854,2.4794,2.4673,2.4528,2.4335,2.4178,2.4057,2.3937,2.3876,2.3828,2.384,2.384,2.384,2.3864,2.3864,2.3876,2.3731,2.3707,2.3671,2.3599,2.3526,2.3562,2.3611,2.3695,2.3915,2.3719,2.3828,2.384,2.3888,2.3937,2.3937,2.3864,2.3864,2.3913,2.3888,2.3828,2.3828,2.3888,2.4106,4.1607,3.9478,3.7341,3.538,3.3614,3.3414,3.3414,3.3414,3.3414,3.3347,3.3293,3.336,3.3293,3.324,3.336,3.332,3.332,3.3347,3.34,3.3414,3.3414,3.3414,3.3414,3.3414,3.3414,3.3414,3.3414,3.3414,3.3414,3.3414,3.3414,3.3414,3.3414,3.3414,3.3414,3.3414,3.3414,3.3414,3.3414,3.3414,3.3414,3.3387,3.3253,3.2973,3.2839,3.2545,3.2144,3.1957,3.1238,3.0561,2.9937,2.9567,2.9004,2.862,2.862,2.8548,2.8451,2.8294,2.8089,2.7715,2.7232,2.6894,2.6677,2.6532,2.6387,2.6218,2.5904,2.582,2.5747,2.5651,2.5458,2.5409,2.5397,2.5337,2.5289,2.5156,2.512,2.5071,2.4927,2.477,2.4613,2.4492,2.416,2.4052,2.3872,2.3788,2.3852,2.3852,2.384,2.3864,2.3913,2.3913,2.3888,2.39,2.3937,2.3816,2.3731,2.3716,2.3764,2.4021,2.4057,2.4021,2.4057,2.419,2.4202,2.4106,2.4118,2.419,2.4106,2.4009,2.3997,2.4009,2.4118,2.4202,2.4347,4.1607,3.9478,3.7341,3.538,3.3414,3.3414,3.34,3.336,3.336,3.3227,3.3053,3.3253,3.3093,3.2866,3.3173,3.3267,3.3146,3.3293,3.3414,3.3414,3.3414,3.3414,3.3414,3.3414,3.3414,3.3414,3.3414,3.3414,3.3414,3.3414,3.3414,3.3414,3.3414,3.3414,3.3414,3.3414,3.3414,3.3414,3.3414,3.3414,3.3414,3.3414,3.3253,3.308,3.2893,3.2625,3.2345,3.2038,3.1508,3.0625,3.0153,2.9567,2.8812,2.862,2.862,2.8608,2.8608,2.8463,2.8198,2.7703,2.7365,2.7063,2.6858,2.6677,2.6532,2.6266,2.6013,2.6049,2.5784,2.5578,2.5482,2.5446,2.5446,2.5421,2.5373,2.5349,2.5313,2.5289,2.5132,2.5023,2.4999,2.4927,2.4543,2.4175,2.3937,2.392,2.3752,2.3864,2.39,2.3997,2.4094,2.4057,2.4069,2.4154,2.4166,2.4009,2.3961,2.3956,2.4064,2.4299,2.4383,2.4395,2.4456,2.454,2.448,2.4359,2.4468,2.4601,2.448,2.4371,2.4251,2.4263,2.4383,2.4492,2.4589,4.1624,3.9478,3.7326,3.538,3.3614,3.3414,3.3307,3.3146,3.3106,3.2959,3.2839,3.3187,3.3093,3.2879,3.3053,3.324,3.3066,3.3267,3.3414,3.3414,3.3414,3.3414,3.3414,3.3414,3.3414,3.3414,3.3414,3.3414,3.3414,3.3414,3.3414,3.3414,3.3414,3.3414,3.3414,3.3414,3.3414,3.3414,3.3414,3.3414,3.3414,3.34,3.336,3.324,3.312,3.2906,3.2625,3.2318,3.1719,3.0767,3.0459,2.9771,2.9196,2.8812,2.862,2.862,2.862,2.8487,2.827,2.7968,2.7739,2.7389,2.7063,2.6906,2.6834,2.6761,2.6568,2.6327,2.6049,2.5868,2.5562,2.5359,2.547,2.5446,2.5409,2.5409,2.5397,2.5397,2.5337,2.5252,2.5204,2.4987,2.4615,2.4615,2.4435,2.4351,2.4395,2.419,2.4166,2.4299,2.4407,2.4311,2.4299,2.4395,2.4407,2.4275,2.3925,2.3892,2.4151,2.4693,2.4778,2.4733,2.4697,2.4709,2.4661,2.4637,2.4733,2.4818,2.4675,2.4603,2.4483,2.4564,2.4637,2.4851,2.4875,4.1607,3.9673,3.8111,3.596,3.36,3.3414,3.3253,3.2986,3.2866,3.2666,3.2545,3.2893,3.2772,3.2572,3.2893,3.3106,3.2893,3.324,3.3414,3.3414,3.3414,3.3414,3.3414,3.3414,3.3414,3.3414,3.3414,3.3414,3.3414,3.3414,3.3414,3.3414,3.3414,3.3414,3.3414,3.3414,3.3414,3.3414,3.3414,3.3414,3.3414,3.3414,3.3414,3.336,3.3267,3.3133,3.2933,3.2692,3.2217,3.1373,3.0587,3.0025,2.9425,2.9004,2.862,2.862,2.8608,2.8524,2.8403,2.821,2.798,2.7751,2.7377,2.7135,2.7027,2.6858,2.6749,2.6568,2.6399,2.6194,2.5778,2.5711,2.5663,2.5651,2.5578,2.559,2.559,2.5602,2.5602,2.5506,2.5421,2.5168,2.4939,2.4975,2.4795,2.4939,2.4902,2.4673,2.4456,2.4564,2.4673,2.4613,2.454,2.4613,2.4649,2.4589,2.427,2.3843,2.4235,2.496,2.5118,2.5071,2.4963,2.4902,2.4963,2.5011,2.4999,2.5035,2.4915,2.4927,2.4879,2.4975,2.5094,2.507,2.5057,4.1414,3.9867,3.9673,3.7115,3.38,3.3347,3.3173,3.2919,3.2639,3.2358,3.2131,3.2438,3.2332,3.1984,3.2585,3.2812,3.2732,3.3146,3.3334,3.34,3.3414,3.3414,3.3414,3.3414,3.3414,3.3414,3.3414,3.3414,3.3414,3.3414,3.3414,3.3414,3.3414,3.3414,3.3414,3.3414,3.3414,3.3414,3.3414,3.3414,3.3414,3.3414,3.3414,3.336,3.324,3.3146,3.2973,3.2786,3.2284,3.1477,3.0934,3.0177,2.9487,2.8824,2.862,2.862,2.862,2.8596,2.8548,2.8355,2.8234,2.8029,2.7727,2.7389,2.7099,2.693,2.681,2.6689,2.6686,2.6375,2.6206,2.6122,2.6224,2.5965,2.5856,2.5844,2.5844,2.5844,2.5844,2.5808,2.5759,2.5578,2.5337,2.5301,2.5192,2.5216,2.5168,2.5059,2.4866,2.4782,2.4878,2.4914,2.4854,2.4842,2.4854,2.4878,2.4747,2.4483,2.4687,2.5083,2.5252,2.5337,2.524,2.5204,2.5349,2.5361,2.5252,2.5264,2.5349,2.5349,2.5095,2.5252,2.5168,2.512,2.512,4.0255,3.9447,3.7657,3.5548,3.3533,3.2973,3.2625,3.2358,3.2251,3.2064,3.1824,3.2332,3.2158,3.177,3.2372,3.2559,3.2719,3.2919,3.32,3.3334,3.3414,3.3414,3.3414,3.3414,3.3414,3.3414,3.3414,3.36,3.3414,3.3414,3.3414,3.3414,3.3414,3.3414,3.3414,3.3414,3.3414,3.3414,3.3414,3.3414,3.3414,3.3414,3.3414,3.336,3.332,3.324,3.3173,3.3,3.2523,3.1699,3.1063,3.0265,2.9413,2.9004,2.862,2.862,2.862,2.862,2.8608,2.8548,2.8427,2.827,2.8029,2.7751,2.7401,2.7099,2.693,2.6798,2.6868,2.6746,2.6661,2.6601,2.6491,2.6382,2.6122,2.6122,2.6109,2.6109,2.6097,2.6001,2.5965,2.5687,2.5482,2.5421,2.5337,2.5409,2.5397,2.5301,2.5216,2.5108,2.5059,2.5096,2.5132,2.5108,2.5192,2.5228,2.5083,2.5119,2.5107,2.5277,2.5349,2.5397,2.5433,2.5433,2.5433,2.5433,2.5409,2.5433,2.5433,2.5433,2.5385,2.5409,2.5421,2.5325,2.5277,3.9387,3.9035,3.7678,3.6297,3.5118,3.3283,3.2198,3.1971,3.1931,3.181,3.1717,3.2024,3.1998,3.181,3.2265,3.2559,3.2599,3.3,3.328,3.336,3.3414,3.3414,3.3414,3.4,3.42,3.4,3.4,3.4386,3.38,3.3614,3.3614,3.4585,3.4,3.3414,3.3414,3.3414,3.3414,3.3414,3.3414,3.3414,3.3414,3.3414,3.3414,3.3414,3.3414,3.3414,3.34,3.32,3.2802,3.2169,3.1529,3.07,2.9804,2.909,2.8632,2.862,2.862,2.862,2.862,2.862,2.8512,2.8391,2.8258,2.7968,2.7667,2.7353,2.716,2.7003,2.7075,2.6977,2.6929,2.7035,2.6722,2.6589,2.6399,2.6387,2.6387,2.6387,2.6291,2.617,2.5953,2.5651,2.5506,2.547,2.5433,2.5433,2.5433,2.5409,2.5361,2.5325,2.5264,2.5264,2.5325,2.5373,2.5433,2.5433,2.5239,2.5203,2.5215,2.5397,2.5433,2.5433,2.5433,2.5433,2.5433,2.5433,2.5433,2.5433,2.5433,2.5433,2.5433,2.5433,2.5433,2.5409,2.5385,3.9101,3.864,3.8214,3.7663,3.7523,3.3788,3.1957,3.169,3.1704,3.1677,3.1677,3.169,3.1717,3.1757,3.2144,3.2385,3.2559,3.2919,3.3173,3.3374,3.3414,3.3414,3.4,3.4983,3.4585,3.4585,3.4983,3.538,3.42,3.4,3.4784,3.6173,3.4399,3.3414,3.3414,3.3414,3.3414,3.3414,3.3414,3.3414,3.3414,3.3414,3.3414,3.3414,3.3414,3.3414,3.3414,3.336,3.328,3.267,3.2274,3.1436,3.0103,2.9467,2.8777,2.8693,2.8717,2.8656,2.8644,2.862,2.862,2.8512,2.8379,2.8101,2.7811,2.7498,2.728,2.7075,2.6954,2.693,2.7075,2.705,2.6785,2.6701,2.6677,2.6665,2.6665,2.6641,2.6556,2.6399,2.6182,2.5892,2.5711,2.5687,2.5419,2.5518,2.5446,2.5446,2.5458,2.5458,2.5433,2.5397,2.5409,2.5433,2.5433,2.5433,2.5433,2.5433,2.5433,2.5433,2.5433,2.5433,2.5433,2.5433,2.5433,2.5433,2.5433,2.5433,2.5433,2.5433,2.5433,2.5433,2.5446,2.5446,2.5433,4.0026,3.8229,3.5395,3.5456,3.704,3.3689,3.1931,3.1677,3.1677,3.1664,3.1677,3.1664,3.165,3.169,3.1864,3.2078,3.2358,3.2732,3.2879,3.3146,3.332,3.3414,3.3414,3.4399,3.4784,3.5777,3.6158,3.6356,3.596,3.5564,3.4983,3.4386,3.34,3.3414,3.3414,3.3414,3.3414,3.3414,3.3414,3.3414,3.3414,3.3414,3.3414,3.3414,3.3414,3.3414,3.3414,3.34,3.3041,3.2445,3.197,3.0935,2.9444,2.9212,2.9103,2.897,2.885,2.8753,2.8669,2.862,2.862,2.862,2.8475,2.821,2.792,2.7606,2.7341,2.7148,2.7027,2.7027,2.7039,2.7039,2.7027,2.6979,2.6918,2.6918,2.6918,2.6846,2.6773,2.6604,2.6399,2.6194,2.5989,2.5694,2.5586,2.5466,2.5494,2.5446,2.5482,2.5494,2.5482,2.5458,2.5421,2.5433,2.5433,2.5433,2.5433,2.5433,2.5433,2.5433,2.5446,2.5433,2.5433,2.5433,2.5433,2.5433,2.5433,2.5433,2.5433,2.5482,2.5446,2.5458,2.547,2.547,2.5458,4.0545,3.8894,3.5149,3.5147,3.6545,3.352,3.181,3.169,3.1677,3.1597,3.1517,3.1597,3.161,3.1583,3.173,3.1971,3.2265,3.2612,3.2959,3.32,3.328,3.3374,3.3614,3.42,3.538,3.6356,3.7523,3.7915,3.7734,3.6751,3.5579,3.4585,3.4,3.3414,3.3414,3.3414,3.3414,3.3414,3.3414,3.3414,3.3414,3.3414,3.3414,3.3414,3.3414,3.3414,3.3414,3.3414,3.312,3.2563,3.206,3.0998,2.9947,2.9396,2.9067,2.8898,2.8789,2.8777,2.8681,2.8632,2.8632,2.862,2.8475,2.8162,2.792,2.7618,2.7401,2.7208,2.7051,2.7027,2.7135,2.716,2.7184,2.7172,2.7051,2.6979,2.6918,2.6822,2.6749,2.6641,2.6435,2.6066,2.591,2.5699,2.5604,2.5766,2.5771,2.5711,2.5699,2.5602,2.5578,2.5542,2.553,2.547,2.5433,2.5433,2.5433,2.5433,2.5446,2.5458,2.547,2.5458,2.5433,2.547,2.547,2.5433,2.5433,2.5433,2.5554,2.5651,2.5566,2.5482,2.5494,2.5518,2.5482,4.1033,4.0214,3.6529,3.582,3.6944,3.3959,3.2123,3.1773,3.1935,3.1558,3.1169,3.145,3.1423,3.1503,3.177,3.2118,3.2425,3.2625,3.2986,3.3173,3.3347,3.3387,3.4,3.4983,3.596,3.7915,3.9673,3.9673,3.9283,3.8111,3.6948,3.596,3.4784,3.3414,3.3414,3.3414,3.3414,3.3414,3.3414,3.3414,3.3414,3.3414,3.3414,3.3414,3.3414,3.3414,3.3414,3.3414,3.3414,3.2934,3.219,3.1188,3.0367,2.9787,2.9188,2.9031,2.885,2.8789,2.8693,2.8656,2.8632,2.8572,2.8355,2.8162,2.7932,2.7751,2.7534,2.7365,2.7208,2.7172,2.728,2.7304,2.7329,2.7329,2.7196,2.7099,2.7003,2.6906,2.6822,2.6737,2.6556,2.6186,2.6138,2.5737,2.5866,2.6018,2.6146,2.6134,2.6061,2.5916,2.582,2.5747,2.5699,2.5615,2.5482,2.5458,2.547,2.5482,2.5494,2.5506,2.553,2.559,2.559,2.553,2.5518,2.5482,2.5446,2.5433,2.559,2.5723,2.5786,2.5689,2.5615,2.5615,2.5518,4.2039,4.1599,3.7631,3.653,3.6917,3.5789,3.3993,3.1797,3.2704,3.2239,3.0926,3.1076,3.1249,3.1236,3.157,3.1877,3.2091,3.2438,3.2599,3.2719,3.3187,3.3347,3.4,3.5182,3.6356,3.8894,4.1607,4.22,4.0255,3.9089,3.713,3.42,3.4,3.3414,3.3414,3.3414,3.3414,3.3414,3.3414,3.3414,3.3414,3.3414,3.3414,3.3414,3.3414,3.3414,3.3414,3.3414,3.3414,3.2986,3.2346,3.1628,3.0852,3.0255,2.9675,2.92,2.9019,2.8874,2.8608,2.8681,2.8644,2.862,2.8439,2.8331,2.8174,2.8077,2.7872,2.7703,2.7582,2.7534,2.7582,2.7461,2.7449,2.7425,2.7341,2.7341,2.7292,2.7232,2.716,2.7039,2.6894,2.6798,2.6773,2.6498,2.6366,2.6661,2.6704,2.6503,2.6315,2.6194,2.6061,2.5989,2.5916,2.5663,2.5494,2.5506,2.5506,2.553,2.5615,2.5735,2.582,2.582,2.5796,2.5759,2.5615,2.5518,2.5494,2.5518,2.5518,2.5627,2.5922,2.6068,2.5847,2.5711,2.5602]}]]